<?xml version="1.0" encoding="UTF-8" standalone="no" ?>
<gpx xmlns="http://www.topografix.com/GPX/1/1" xmlns:xsi="http://www.w3.org/2001/XMLSchema-instance" xsi:schemaLocation="http://www.topografix.com/GPX/1/1 http://www.topografix.com/GPX/1/1/gpx.xsd" version="1.1" creator="VisuGPX - https://www.visugpx.com">
  <metadata>
    <name>Singles ombragés</name>
    <desc><![CDATA[Un tas de singles en sous bois aux portes de Toulouse]]></desc>
  </metadata>
  <wpt lat="43.52377" lon="1.45223">
    <ele>268</ele>
    <name><![CDATA[Pause Ã  03/09 10:33]]></name>
    <desc><![CDATA[Pause de 9min 56s]]></desc>
  </wpt>
  <wpt lat="43.50127" lon="1.45849">
    <ele>238</ele>
    <name><![CDATA[Pause Ã  03/09 11:22]]></name>
    <desc><![CDATA[Pause de 4min 2s]]></desc>
  </wpt>
  <wpt lat="43.50313" lon="1.46111">
    <ele>247</ele>
    <name><![CDATA[Pause Ã  03/09 11:28]]></name>
    <desc><![CDATA[Pause de 3min 39s]]></desc>
  </wpt>
  <wpt lat="43.50286" lon="1.46143">
    <ele>245</ele>
    <name><![CDATA[Pause Ã  03/09 11:31]]></name>
    <desc><![CDATA[Pause de 3min 16s]]></desc>
  </wpt>
  <wpt lat="43.53087" lon="1.49138">
    <ele>207</ele>
    <name><![CDATA[Pause Ã  03/09 09:11]]></name>
    <desc><![CDATA[Pause de 5min 59s]]></desc>
  </wpt>
  <wpt lat="43.53883" lon="1.44218">
    <ele>196</ele>
    <name><![CDATA[Pause Ã  03/09 10:03]]></name>
    <desc><![CDATA[Pause de 8min 18s]]></desc>
  </wpt>
  <wpt lat="43.52418" lon="1.45212">
    <ele>256</ele>
    <name><![CDATA[Pause Ã  03/09 10:29]]></name>
    <desc><![CDATA[Pause de 3min 12s]]></desc>
  </wpt>
  <trk>
    <name><![CDATA[Singles film]]></name>
    <extensions>
      <line xmlns="http://www.topografix.com/GPX/gpx_style/0/2">
        <color>0000FF</color>
        <opacity>1</opacity>
        <width>4</width>
      </line>
    </extensions>
    <trkseg>
      <trkpt lat="43.52839" lon="1.49825">
        <ele>209</ele>
        <time>2026-09-03T07:05:26Z</time>
      </trkpt>
      <trkpt lat="43.52832" lon="1.49827">
        <ele>206</ele>
        <time>2026-09-03T07:05:31Z</time>
      </trkpt>
      <trkpt lat="43.52837" lon="1.49832">
        <ele>205</ele>
        <time>2026-09-03T07:05:36Z</time>
      </trkpt>
      <trkpt lat="43.5284" lon="1.49839">
        <ele>203</ele>
        <time>2026-09-03T07:05:50Z</time>
      </trkpt>
      <trkpt lat="43.52854" lon="1.49829">
        <ele>202</ele>
        <time>2026-09-03T07:05:55Z</time>
      </trkpt>
      <trkpt lat="43.52869" lon="1.49816">
        <ele>201</ele>
        <time>2026-09-03T07:06:00Z</time>
      </trkpt>
      <trkpt lat="43.52885" lon="1.49801">
        <ele>203</ele>
        <time>2026-09-03T07:06:05Z</time>
      </trkpt>
      <trkpt lat="43.52903" lon="1.49785">
        <ele>203</ele>
        <time>2026-09-03T07:06:10Z</time>
      </trkpt>
      <trkpt lat="43.52922" lon="1.49772">
        <ele>203</ele>
        <time>2026-09-03T07:06:15Z</time>
      </trkpt>
      <trkpt lat="43.52942" lon="1.49761">
        <ele>201</ele>
        <time>2026-09-03T07:06:20Z</time>
      </trkpt>
      <trkpt lat="43.5296" lon="1.49746">
        <ele>200</ele>
        <time>2026-09-03T07:06:25Z</time>
      </trkpt>
      <trkpt lat="43.52967" lon="1.49719">
        <ele>198</ele>
        <time>2026-09-03T07:06:30Z</time>
      </trkpt>
      <trkpt lat="43.52954" lon="1.49694">
        <ele>197</ele>
        <time>2026-09-03T07:06:35Z</time>
      </trkpt>
      <trkpt lat="43.52942" lon="1.49668">
        <ele>196</ele>
        <time>2026-09-03T07:06:40Z</time>
      </trkpt>
      <trkpt lat="43.52931" lon="1.49646">
        <ele>196</ele>
        <time>2026-09-03T07:06:45Z</time>
      </trkpt>
      <trkpt lat="43.52922" lon="1.49618">
        <ele>197</ele>
        <time>2026-09-03T07:06:50Z</time>
      </trkpt>
      <trkpt lat="43.52932" lon="1.4959">
        <ele>197</ele>
        <time>2026-09-03T07:06:55Z</time>
      </trkpt>
      <trkpt lat="43.52935" lon="1.4956">
        <ele>197</ele>
        <time>2026-09-03T07:07:00Z</time>
      </trkpt>
      <trkpt lat="43.52935" lon="1.49521">
        <ele>197</ele>
        <time>2026-09-03T07:07:06Z</time>
      </trkpt>
      <trkpt lat="43.52939" lon="1.4949">
        <ele>198</ele>
        <time>2026-09-03T07:07:11Z</time>
      </trkpt>
      <trkpt lat="43.52938" lon="1.4946">
        <ele>198</ele>
        <time>2026-09-03T07:07:16Z</time>
      </trkpt>
      <trkpt lat="43.52943" lon="1.49432">
        <ele>198</ele>
        <time>2026-09-03T07:07:21Z</time>
      </trkpt>
      <trkpt lat="43.52956" lon="1.49412">
        <ele>198</ele>
        <time>2026-09-03T07:07:26Z</time>
      </trkpt>
      <trkpt lat="43.5297" lon="1.49388">
        <ele>199</ele>
        <time>2026-09-03T07:07:31Z</time>
      </trkpt>
      <trkpt lat="43.52983" lon="1.49372">
        <ele>199</ele>
        <time>2026-09-03T07:07:36Z</time>
      </trkpt>
      <trkpt lat="43.52995" lon="1.49357">
        <ele>200</ele>
        <time>2026-09-03T07:07:41Z</time>
      </trkpt>
      <trkpt lat="43.53008" lon="1.49334">
        <ele>200</ele>
        <time>2026-09-03T07:07:46Z</time>
      </trkpt>
      <trkpt lat="43.53019" lon="1.49306">
        <ele>200</ele>
        <time>2026-09-03T07:07:51Z</time>
      </trkpt>
      <trkpt lat="43.53033" lon="1.49292">
        <ele>201</ele>
        <time>2026-09-03T07:07:56Z</time>
      </trkpt>
      <trkpt lat="43.53042" lon="1.49278">
        <ele>201</ele>
        <time>2026-09-03T07:08:01Z</time>
      </trkpt>
      <trkpt lat="43.53054" lon="1.49259">
        <ele>202</ele>
        <time>2026-09-03T07:08:06Z</time>
      </trkpt>
      <trkpt lat="43.53061" lon="1.49237">
        <ele>203</ele>
        <time>2026-09-03T07:08:11Z</time>
      </trkpt>
      <trkpt lat="43.53069" lon="1.49207">
        <ele>204</ele>
        <time>2026-09-03T07:08:16Z</time>
      </trkpt>
      <trkpt lat="43.53078" lon="1.4918">
        <ele>205</ele>
        <time>2026-09-03T07:08:21Z</time>
      </trkpt>
      <trkpt lat="43.53088" lon="1.49156">
        <ele>206</ele>
        <time>2026-09-03T07:08:26Z</time>
      </trkpt>
      <trkpt lat="43.53087" lon="1.49138">
        <ele>207</ele>
        <time>2026-09-03T07:08:31Z</time>
      </trkpt>
      <trkpt lat="43.53085" lon="1.49129">
        <ele>207</ele>
        <time>2026-09-03T07:08:36Z</time>
      </trkpt>
      <trkpt lat="43.53084" lon="1.49119">
        <ele>207</ele>
        <time>2026-09-03T07:08:41Z</time>
      </trkpt>
      <trkpt lat="43.53079" lon="1.49121">
        <ele>207</ele>
        <time>2026-09-03T07:08:46Z</time>
      </trkpt>
      <trkpt lat="43.53074" lon="1.49117">
        <ele>206</ele>
        <time>2026-09-03T07:08:51Z</time>
      </trkpt>
      <trkpt lat="43.5308" lon="1.49118">
        <ele>206</ele>
        <time>2026-09-03T07:09:14Z</time>
      </trkpt>
      <trkpt lat="43.53085" lon="1.4912">
        <ele>207</ele>
        <time>2026-09-03T07:09:19Z</time>
      </trkpt>
      <trkpt lat="43.53089" lon="1.49124">
        <ele>207</ele>
        <time>2026-09-03T07:09:24Z</time>
      </trkpt>
      <trkpt lat="43.53088" lon="1.49132">
        <ele>208</ele>
        <time>2026-09-03T07:09:29Z</time>
      </trkpt>
      <trkpt lat="43.53085" lon="1.49133">
        <ele>210</ele>
        <time>2026-09-03T07:09:53Z</time>
      </trkpt>
      <trkpt lat="43.53086" lon="1.4915">
        <ele>217</ele>
        <time>2026-09-03T07:09:55Z</time>
      </trkpt>
      <trkpt lat="43.53085" lon="1.49132">
        <ele>220</ele>
        <time>2026-09-03T07:10:00Z</time>
      </trkpt>
      <trkpt lat="43.53085" lon="1.49133">
        <ele>223</ele>
        <time>2026-09-03T07:10:27Z</time>
      </trkpt>
      <trkpt lat="43.53083" lon="1.49152">
        <ele>229</ele>
        <time>2026-09-03T07:10:29Z</time>
      </trkpt>
      <trkpt lat="43.53087" lon="1.49142">
        <ele>231</ele>
        <time>2026-09-03T07:10:34Z</time>
      </trkpt>
      <trkpt lat="43.53087" lon="1.49142">
        <ele>226</ele>
        <time>2026-09-03T07:11:01Z</time>
      </trkpt>
      <trkpt lat="43.53077" lon="1.49128">
        <ele>229</ele>
        <time>2026-09-03T07:11:03Z</time>
      </trkpt>
      <trkpt lat="43.53076" lon="1.49134">
        <ele>228</ele>
        <time>2026-09-03T07:11:08Z</time>
      </trkpt>
      <trkpt lat="43.53114" lon="1.49073">
        <ele>212</ele>
        <time>2026-09-03T07:14:30Z</time>
      </trkpt>
      <trkpt lat="43.53123" lon="1.49044">
        <ele>210</ele>
        <time>2026-09-03T07:14:35Z</time>
      </trkpt>
      <trkpt lat="43.53128" lon="1.49015">
        <ele>208</ele>
        <time>2026-09-03T07:14:40Z</time>
      </trkpt>
      <trkpt lat="43.53138" lon="1.48984">
        <ele>207</ele>
        <time>2026-09-03T07:14:45Z</time>
      </trkpt>
      <trkpt lat="43.53146" lon="1.48959">
        <ele>206</ele>
        <time>2026-09-03T07:14:50Z</time>
      </trkpt>
      <trkpt lat="43.53154" lon="1.48933">
        <ele>206</ele>
        <time>2026-09-03T07:14:55Z</time>
      </trkpt>
      <trkpt lat="43.53162" lon="1.48906">
        <ele>207</ele>
        <time>2026-09-03T07:15:00Z</time>
      </trkpt>
      <trkpt lat="43.53166" lon="1.48882">
        <ele>207</ele>
        <time>2026-09-03T07:15:05Z</time>
      </trkpt>
      <trkpt lat="43.53148" lon="1.48861">
        <ele>207</ele>
        <time>2026-09-03T07:15:10Z</time>
      </trkpt>
      <trkpt lat="43.5314" lon="1.48835">
        <ele>208</ele>
        <time>2026-09-03T07:15:15Z</time>
      </trkpt>
      <trkpt lat="43.53127" lon="1.48825">
        <ele>208</ele>
        <time>2026-09-03T07:15:20Z</time>
      </trkpt>
      <trkpt lat="43.53122" lon="1.48818">
        <ele>209</ele>
        <time>2026-09-03T07:15:25Z</time>
      </trkpt>
      <trkpt lat="43.53115" lon="1.48805">
        <ele>209</ele>
        <time>2026-09-03T07:15:30Z</time>
      </trkpt>
      <trkpt lat="43.53108" lon="1.48787">
        <ele>211</ele>
        <time>2026-09-03T07:15:35Z</time>
      </trkpt>
      <trkpt lat="43.53102" lon="1.48774">
        <ele>212</ele>
        <time>2026-09-03T07:15:40Z</time>
      </trkpt>
      <trkpt lat="43.53099" lon="1.48767">
        <ele>214</ele>
        <time>2026-09-03T07:15:45Z</time>
      </trkpt>
      <trkpt lat="43.53096" lon="1.48762">
        <ele>215</ele>
        <time>2026-09-03T07:15:50Z</time>
      </trkpt>
      <trkpt lat="43.53087" lon="1.48743">
        <ele>217</ele>
        <time>2026-09-03T07:15:55Z</time>
      </trkpt>
      <trkpt lat="43.53087" lon="1.48728">
        <ele>219</ele>
        <time>2026-09-03T07:16:00Z</time>
      </trkpt>
      <trkpt lat="43.53091" lon="1.48714">
        <ele>221</ele>
        <time>2026-09-03T07:16:05Z</time>
      </trkpt>
      <trkpt lat="43.53093" lon="1.48697">
        <ele>223</ele>
        <time>2026-09-03T07:16:10Z</time>
      </trkpt>
      <trkpt lat="43.53094" lon="1.48681">
        <ele>225</ele>
        <time>2026-09-03T07:16:15Z</time>
      </trkpt>
      <trkpt lat="43.53091" lon="1.48668">
        <ele>227</ele>
        <time>2026-09-03T07:16:20Z</time>
      </trkpt>
      <trkpt lat="43.53089" lon="1.48649">
        <ele>228</ele>
        <time>2026-09-03T07:16:25Z</time>
      </trkpt>
      <trkpt lat="43.53091" lon="1.48629">
        <ele>230</ele>
        <time>2026-09-03T07:16:30Z</time>
      </trkpt>
      <trkpt lat="43.53093" lon="1.48613">
        <ele>231</ele>
        <time>2026-09-03T07:16:35Z</time>
      </trkpt>
      <trkpt lat="43.53095" lon="1.48599">
        <ele>231</ele>
        <time>2026-09-03T07:16:40Z</time>
      </trkpt>
      <trkpt lat="43.53095" lon="1.48587">
        <ele>232</ele>
        <time>2026-09-03T07:16:45Z</time>
      </trkpt>
      <trkpt lat="43.53092" lon="1.48576">
        <ele>233</ele>
        <time>2026-09-03T07:16:50Z</time>
      </trkpt>
      <trkpt lat="43.53088" lon="1.48566">
        <ele>233</ele>
        <time>2026-09-03T07:16:55Z</time>
      </trkpt>
      <trkpt lat="43.53085" lon="1.48556">
        <ele>234</ele>
        <time>2026-09-03T07:17:00Z</time>
      </trkpt>
      <trkpt lat="43.53084" lon="1.48545">
        <ele>234</ele>
        <time>2026-09-03T07:17:05Z</time>
      </trkpt>
      <trkpt lat="43.53081" lon="1.48537">
        <ele>235</ele>
        <time>2026-09-03T07:17:10Z</time>
      </trkpt>
      <trkpt lat="43.53077" lon="1.48524">
        <ele>236</ele>
        <time>2026-09-03T07:17:15Z</time>
      </trkpt>
      <trkpt lat="43.53075" lon="1.48512">
        <ele>237</ele>
        <time>2026-09-03T07:17:20Z</time>
      </trkpt>
      <trkpt lat="43.53074" lon="1.48502">
        <ele>238</ele>
        <time>2026-09-03T07:17:25Z</time>
      </trkpt>
      <trkpt lat="43.53069" lon="1.48494">
        <ele>238</ele>
        <time>2026-09-03T07:17:30Z</time>
      </trkpt>
      <trkpt lat="43.53067" lon="1.48484">
        <ele>239</ele>
        <time>2026-09-03T07:17:35Z</time>
      </trkpt>
      <trkpt lat="43.53067" lon="1.48471">
        <ele>240</ele>
        <time>2026-09-03T07:17:40Z</time>
      </trkpt>
      <trkpt lat="43.53067" lon="1.4846">
        <ele>242</ele>
        <time>2026-09-03T07:17:45Z</time>
      </trkpt>
      <trkpt lat="43.53065" lon="1.48447">
        <ele>243</ele>
        <time>2026-09-03T07:17:50Z</time>
      </trkpt>
      <trkpt lat="43.53057" lon="1.48436">
        <ele>244</ele>
        <time>2026-09-03T07:17:55Z</time>
      </trkpt>
      <trkpt lat="43.53048" lon="1.48428">
        <ele>244</ele>
        <time>2026-09-03T07:18:00Z</time>
      </trkpt>
      <trkpt lat="43.53039" lon="1.48421">
        <ele>244</ele>
        <time>2026-09-03T07:18:05Z</time>
      </trkpt>
      <trkpt lat="43.53032" lon="1.48409">
        <ele>244</ele>
        <time>2026-09-03T07:18:10Z</time>
      </trkpt>
      <trkpt lat="43.53023" lon="1.48398">
        <ele>244</ele>
        <time>2026-09-03T07:18:15Z</time>
      </trkpt>
      <trkpt lat="43.53016" lon="1.48387">
        <ele>244</ele>
        <time>2026-09-03T07:18:20Z</time>
      </trkpt>
      <trkpt lat="43.53007" lon="1.48377">
        <ele>246</ele>
        <time>2026-09-03T07:18:25Z</time>
      </trkpt>
      <trkpt lat="43.52999" lon="1.48367">
        <ele>247</ele>
        <time>2026-09-03T07:18:30Z</time>
      </trkpt>
      <trkpt lat="43.52992" lon="1.48357">
        <ele>249</ele>
        <time>2026-09-03T07:18:35Z</time>
      </trkpt>
      <trkpt lat="43.52983" lon="1.48351">
        <ele>250</ele>
        <time>2026-09-03T07:18:40Z</time>
      </trkpt>
      <trkpt lat="43.52974" lon="1.48346">
        <ele>251</ele>
        <time>2026-09-03T07:18:45Z</time>
      </trkpt>
      <trkpt lat="43.52964" lon="1.48338">
        <ele>252</ele>
        <time>2026-09-03T07:18:50Z</time>
      </trkpt>
      <trkpt lat="43.52956" lon="1.48324">
        <ele>252</ele>
        <time>2026-09-03T07:18:55Z</time>
      </trkpt>
      <trkpt lat="43.52936" lon="1.48332">
        <ele>252</ele>
        <time>2026-09-03T07:19:00Z</time>
      </trkpt>
      <trkpt lat="43.52924" lon="1.48347">
        <ele>253</ele>
        <time>2026-09-03T07:19:05Z</time>
      </trkpt>
      <trkpt lat="43.52913" lon="1.48349">
        <ele>253</ele>
        <time>2026-09-03T07:19:10Z</time>
      </trkpt>
      <trkpt lat="43.52903" lon="1.48314">
        <ele>252</ele>
        <time>2026-09-03T07:19:15Z</time>
      </trkpt>
      <trkpt lat="43.52879" lon="1.48266">
        <ele>250</ele>
        <time>2026-09-03T07:19:20Z</time>
      </trkpt>
      <trkpt lat="43.52858" lon="1.48225">
        <ele>246</ele>
        <time>2026-09-03T07:19:25Z</time>
      </trkpt>
      <trkpt lat="43.52844" lon="1.48212">
        <ele>243</ele>
        <time>2026-09-03T07:19:30Z</time>
      </trkpt>
      <trkpt lat="43.52828" lon="1.48197">
        <ele>240</ele>
        <time>2026-09-03T07:19:35Z</time>
      </trkpt>
      <trkpt lat="43.52817" lon="1.48175">
        <ele>238</ele>
        <time>2026-09-03T07:19:40Z</time>
      </trkpt>
      <trkpt lat="43.52822" lon="1.48145">
        <ele>238</ele>
        <time>2026-09-03T07:19:45Z</time>
      </trkpt>
      <trkpt lat="43.52818" lon="1.48119">
        <ele>239</ele>
        <time>2026-09-03T07:19:50Z</time>
      </trkpt>
      <trkpt lat="43.52812" lon="1.48097">
        <ele>241</ele>
        <time>2026-09-03T07:19:55Z</time>
      </trkpt>
      <trkpt lat="43.52802" lon="1.48082">
        <ele>242</ele>
        <time>2026-09-03T07:20:00Z</time>
      </trkpt>
      <trkpt lat="43.52787" lon="1.48073">
        <ele>242</ele>
        <time>2026-09-03T07:20:05Z</time>
      </trkpt>
      <trkpt lat="43.52775" lon="1.48056">
        <ele>242</ele>
        <time>2026-09-03T07:20:10Z</time>
      </trkpt>
      <trkpt lat="43.52767" lon="1.48041">
        <ele>243</ele>
        <time>2026-09-03T07:20:15Z</time>
      </trkpt>
      <trkpt lat="43.52759" lon="1.48026">
        <ele>244</ele>
        <time>2026-09-03T07:20:20Z</time>
      </trkpt>
      <trkpt lat="43.52752" lon="1.4801">
        <ele>245</ele>
        <time>2026-09-03T07:20:25Z</time>
      </trkpt>
      <trkpt lat="43.52747" lon="1.47992">
        <ele>246</ele>
        <time>2026-09-03T07:20:30Z</time>
      </trkpt>
      <trkpt lat="43.52742" lon="1.47976">
        <ele>248</ele>
        <time>2026-09-03T07:20:35Z</time>
      </trkpt>
      <trkpt lat="43.52733" lon="1.47963">
        <ele>249</ele>
        <time>2026-09-03T07:20:40Z</time>
      </trkpt>
      <trkpt lat="43.52726" lon="1.47953">
        <ele>250</ele>
        <time>2026-09-03T07:20:45Z</time>
      </trkpt>
      <trkpt lat="43.52716" lon="1.4795">
        <ele>251</ele>
        <time>2026-09-03T07:20:50Z</time>
      </trkpt>
      <trkpt lat="43.52707" lon="1.47946">
        <ele>253</ele>
        <time>2026-09-03T07:20:55Z</time>
      </trkpt>
      <trkpt lat="43.52696" lon="1.47945">
        <ele>254</ele>
        <time>2026-09-03T07:21:00Z</time>
      </trkpt>
      <trkpt lat="43.52683" lon="1.47947">
        <ele>256</ele>
        <time>2026-09-03T07:21:05Z</time>
      </trkpt>
      <trkpt lat="43.52665" lon="1.47956">
        <ele>258</ele>
        <time>2026-09-03T07:21:10Z</time>
      </trkpt>
      <trkpt lat="43.52653" lon="1.4797">
        <ele>260</ele>
        <time>2026-09-03T07:21:15Z</time>
      </trkpt>
      <trkpt lat="43.52643" lon="1.47987">
        <ele>262</ele>
        <time>2026-09-03T07:21:20Z</time>
      </trkpt>
      <trkpt lat="43.52628" lon="1.47986">
        <ele>264</ele>
        <time>2026-09-03T07:21:25Z</time>
      </trkpt>
      <trkpt lat="43.52615" lon="1.47971">
        <ele>266</ele>
        <time>2026-09-03T07:21:30Z</time>
      </trkpt>
      <trkpt lat="43.52602" lon="1.4796">
        <ele>267</ele>
        <time>2026-09-03T07:21:35Z</time>
      </trkpt>
      <trkpt lat="43.5259" lon="1.47951">
        <ele>266</ele>
        <time>2026-09-03T07:21:40Z</time>
      </trkpt>
      <trkpt lat="43.52578" lon="1.47943">
        <ele>266</ele>
        <time>2026-09-03T07:21:45Z</time>
      </trkpt>
      <trkpt lat="43.52565" lon="1.47931">
        <ele>265</ele>
        <time>2026-09-03T07:21:50Z</time>
      </trkpt>
      <trkpt lat="43.52555" lon="1.47918">
        <ele>265</ele>
        <time>2026-09-03T07:21:55Z</time>
      </trkpt>
      <trkpt lat="43.52544" lon="1.47905">
        <ele>264</ele>
        <time>2026-09-03T07:22:00Z</time>
      </trkpt>
      <trkpt lat="43.52535" lon="1.47897">
        <ele>264</ele>
        <time>2026-09-03T07:22:05Z</time>
      </trkpt>
      <trkpt lat="43.52525" lon="1.47887">
        <ele>265</ele>
        <time>2026-09-03T07:22:10Z</time>
      </trkpt>
      <trkpt lat="43.52515" lon="1.47881">
        <ele>265</ele>
        <time>2026-09-03T07:22:15Z</time>
      </trkpt>
      <trkpt lat="43.52505" lon="1.47883">
        <ele>266</ele>
        <time>2026-09-03T07:22:20Z</time>
      </trkpt>
      <trkpt lat="43.52494" lon="1.47884">
        <ele>267</ele>
        <time>2026-09-03T07:22:25Z</time>
      </trkpt>
      <trkpt lat="43.52482" lon="1.47884">
        <ele>268</ele>
        <time>2026-09-03T07:22:30Z</time>
      </trkpt>
      <trkpt lat="43.5247" lon="1.47877">
        <ele>269</ele>
        <time>2026-09-03T07:22:35Z</time>
      </trkpt>
      <trkpt lat="43.52465" lon="1.4786">
        <ele>270</ele>
        <time>2026-09-03T07:22:40Z</time>
      </trkpt>
      <trkpt lat="43.52457" lon="1.47842">
        <ele>270</ele>
        <time>2026-09-03T07:22:45Z</time>
      </trkpt>
      <trkpt lat="43.52451" lon="1.47824">
        <ele>270</ele>
        <time>2026-09-03T07:22:50Z</time>
      </trkpt>
      <trkpt lat="43.52435" lon="1.47805">
        <ele>269</ele>
        <time>2026-09-03T07:22:55Z</time>
      </trkpt>
      <trkpt lat="43.5242" lon="1.47822">
        <ele>269</ele>
        <time>2026-09-03T07:23:00Z</time>
      </trkpt>
      <trkpt lat="43.52412" lon="1.47844">
        <ele>269</ele>
        <time>2026-09-03T07:23:05Z</time>
      </trkpt>
      <trkpt lat="43.52407" lon="1.47869">
        <ele>269</ele>
        <time>2026-09-03T07:23:10Z</time>
      </trkpt>
      <trkpt lat="43.52401" lon="1.47893">
        <ele>268</ele>
        <time>2026-09-03T07:23:15Z</time>
      </trkpt>
      <trkpt lat="43.52396" lon="1.47916">
        <ele>268</ele>
        <time>2026-09-03T07:23:20Z</time>
      </trkpt>
      <trkpt lat="43.5239" lon="1.47939">
        <ele>268</ele>
        <time>2026-09-03T07:23:25Z</time>
      </trkpt>
      <trkpt lat="43.52385" lon="1.47963">
        <ele>269</ele>
        <time>2026-09-03T07:23:30Z</time>
      </trkpt>
      <trkpt lat="43.52379" lon="1.47987">
        <ele>270</ele>
        <time>2026-09-03T07:23:35Z</time>
      </trkpt>
      <trkpt lat="43.52369" lon="1.48009">
        <ele>271</ele>
        <time>2026-09-03T07:23:40Z</time>
      </trkpt>
      <trkpt lat="43.52358" lon="1.4803">
        <ele>272</ele>
        <time>2026-09-03T07:23:45Z</time>
      </trkpt>
      <trkpt lat="43.52349" lon="1.48054">
        <ele>274</ele>
        <time>2026-09-03T07:23:50Z</time>
      </trkpt>
      <trkpt lat="43.52338" lon="1.48077">
        <ele>275</ele>
        <time>2026-09-03T07:23:55Z</time>
      </trkpt>
      <trkpt lat="43.52329" lon="1.48101">
        <ele>276</ele>
        <time>2026-09-03T07:24:00Z</time>
      </trkpt>
      <trkpt lat="43.52317" lon="1.48126">
        <ele>277</ele>
        <time>2026-09-03T07:24:05Z</time>
      </trkpt>
      <trkpt lat="43.52305" lon="1.48151">
        <ele>277</ele>
        <time>2026-09-03T07:24:10Z</time>
      </trkpt>
      <trkpt lat="43.5229" lon="1.48176">
        <ele>278</ele>
        <time>2026-09-03T07:24:15Z</time>
      </trkpt>
      <trkpt lat="43.52273" lon="1.48199">
        <ele>279</ele>
        <time>2026-09-03T07:24:20Z</time>
      </trkpt>
      <trkpt lat="43.52254" lon="1.48211">
        <ele>280</ele>
        <time>2026-09-03T07:24:25Z</time>
      </trkpt>
      <trkpt lat="43.52243" lon="1.48232">
        <ele>281</ele>
        <time>2026-09-03T07:24:30Z</time>
      </trkpt>
      <trkpt lat="43.52233" lon="1.48257">
        <ele>282</ele>
        <time>2026-09-03T07:24:35Z</time>
      </trkpt>
      <trkpt lat="43.5222" lon="1.48284">
        <ele>283</ele>
        <time>2026-09-03T07:24:40Z</time>
      </trkpt>
      <trkpt lat="43.52205" lon="1.48309">
        <ele>284</ele>
        <time>2026-09-03T07:24:45Z</time>
      </trkpt>
      <trkpt lat="43.52187" lon="1.48328">
        <ele>284</ele>
        <time>2026-09-03T07:24:50Z</time>
      </trkpt>
      <trkpt lat="43.5217" lon="1.48345">
        <ele>285</ele>
        <time>2026-09-03T07:24:55Z</time>
      </trkpt>
      <trkpt lat="43.52163" lon="1.48358">
        <ele>286</ele>
        <time>2026-09-03T07:25:00Z</time>
      </trkpt>
      <trkpt lat="43.52145" lon="1.48372">
        <ele>287</ele>
        <time>2026-09-03T07:25:05Z</time>
      </trkpt>
      <trkpt lat="43.52127" lon="1.48388">
        <ele>288</ele>
        <time>2026-09-03T07:25:10Z</time>
      </trkpt>
      <trkpt lat="43.52104" lon="1.484">
        <ele>289</ele>
        <time>2026-09-03T07:25:15Z</time>
      </trkpt>
      <trkpt lat="43.52083" lon="1.48397">
        <ele>290</ele>
        <time>2026-09-03T07:25:20Z</time>
      </trkpt>
      <trkpt lat="43.52068" lon="1.48378">
        <ele>291</ele>
        <time>2026-09-03T07:25:25Z</time>
      </trkpt>
      <trkpt lat="43.52052" lon="1.48358">
        <ele>290</ele>
        <time>2026-09-03T07:25:30Z</time>
      </trkpt>
      <trkpt lat="43.52036" lon="1.48341">
        <ele>289</ele>
        <time>2026-09-03T07:25:35Z</time>
      </trkpt>
      <trkpt lat="43.52021" lon="1.48327">
        <ele>288</ele>
        <time>2026-09-03T07:25:40Z</time>
      </trkpt>
      <trkpt lat="43.52004" lon="1.48309">
        <ele>288</ele>
        <time>2026-09-03T07:25:45Z</time>
      </trkpt>
      <trkpt lat="43.51987" lon="1.4829">
        <ele>287</ele>
        <time>2026-09-03T07:25:50Z</time>
      </trkpt>
      <trkpt lat="43.51971" lon="1.48272">
        <ele>287</ele>
        <time>2026-09-03T07:25:55Z</time>
      </trkpt>
      <trkpt lat="43.51955" lon="1.48258">
        <ele>287</ele>
        <time>2026-09-03T07:26:00Z</time>
      </trkpt>
      <trkpt lat="43.51938" lon="1.48251">
        <ele>287</ele>
        <time>2026-09-03T07:26:05Z</time>
      </trkpt>
      <trkpt lat="43.51918" lon="1.4825">
        <ele>288</ele>
        <time>2026-09-03T07:26:10Z</time>
      </trkpt>
      <trkpt lat="43.51899" lon="1.48235">
        <ele>289</ele>
        <time>2026-09-03T07:26:15Z</time>
      </trkpt>
      <trkpt lat="43.5188" lon="1.4822">
        <ele>290</ele>
        <time>2026-09-03T07:26:20Z</time>
      </trkpt>
      <trkpt lat="43.51862" lon="1.48206">
        <ele>290</ele>
        <time>2026-09-03T07:26:25Z</time>
      </trkpt>
      <trkpt lat="43.5186" lon="1.48179">
        <ele>291</ele>
        <time>2026-09-03T07:26:30Z</time>
      </trkpt>
      <trkpt lat="43.51868" lon="1.4815">
        <ele>290</ele>
        <time>2026-09-03T07:26:35Z</time>
      </trkpt>
      <trkpt lat="43.5187" lon="1.4812">
        <ele>290</ele>
        <time>2026-09-03T07:26:40Z</time>
      </trkpt>
      <trkpt lat="43.51864" lon="1.48093">
        <ele>290</ele>
        <time>2026-09-03T07:26:45Z</time>
      </trkpt>
      <trkpt lat="43.5185" lon="1.48076">
        <ele>291</ele>
        <time>2026-09-03T07:26:50Z</time>
      </trkpt>
      <trkpt lat="43.51833" lon="1.48061">
        <ele>292</ele>
        <time>2026-09-03T07:26:55Z</time>
      </trkpt>
      <trkpt lat="43.51817" lon="1.48043">
        <ele>293</ele>
        <time>2026-09-03T07:27:00Z</time>
      </trkpt>
      <trkpt lat="43.51798" lon="1.48027">
        <ele>293</ele>
        <time>2026-09-03T07:27:05Z</time>
      </trkpt>
      <trkpt lat="43.51784" lon="1.48007">
        <ele>294</ele>
        <time>2026-09-03T07:27:10Z</time>
      </trkpt>
      <trkpt lat="43.51794" lon="1.47982">
        <ele>294</ele>
        <time>2026-09-03T07:27:15Z</time>
      </trkpt>
      <trkpt lat="43.51806" lon="1.47959">
        <ele>295</ele>
        <time>2026-09-03T07:27:20Z</time>
      </trkpt>
      <trkpt lat="43.51822" lon="1.47937">
        <ele>295</ele>
        <time>2026-09-03T07:27:25Z</time>
      </trkpt>
      <trkpt lat="43.5184" lon="1.47912">
        <ele>295</ele>
        <time>2026-09-03T07:27:30Z</time>
      </trkpt>
      <trkpt lat="43.51858" lon="1.47886">
        <ele>295</ele>
        <time>2026-09-03T07:27:35Z</time>
      </trkpt>
      <trkpt lat="43.51868" lon="1.47867">
        <ele>295</ele>
        <time>2026-09-03T07:27:40Z</time>
      </trkpt>
      <trkpt lat="43.51856" lon="1.47853">
        <ele>295</ele>
        <time>2026-09-03T07:27:45Z</time>
      </trkpt>
      <trkpt lat="43.51842" lon="1.47836">
        <ele>294</ele>
        <time>2026-09-03T07:27:50Z</time>
      </trkpt>
      <trkpt lat="43.51828" lon="1.47817">
        <ele>294</ele>
        <time>2026-09-03T07:27:55Z</time>
      </trkpt>
      <trkpt lat="43.51817" lon="1.47799">
        <ele>294</ele>
        <time>2026-09-03T07:28:00Z</time>
      </trkpt>
      <trkpt lat="43.51815" lon="1.47777">
        <ele>294</ele>
        <time>2026-09-03T07:28:05Z</time>
      </trkpt>
      <trkpt lat="43.51831" lon="1.47756">
        <ele>295</ele>
        <time>2026-09-03T07:28:10Z</time>
      </trkpt>
      <trkpt lat="43.51828" lon="1.47722">
        <ele>295</ele>
        <time>2026-09-03T07:28:15Z</time>
      </trkpt>
      <trkpt lat="43.51827" lon="1.47685">
        <ele>295</ele>
        <time>2026-09-03T07:28:20Z</time>
      </trkpt>
      <trkpt lat="43.51823" lon="1.47652">
        <ele>294</ele>
        <time>2026-09-03T07:28:25Z</time>
      </trkpt>
      <trkpt lat="43.51822" lon="1.47628">
        <ele>294</ele>
        <time>2026-09-03T07:28:30Z</time>
      </trkpt>
      <trkpt lat="43.51824" lon="1.47607">
        <ele>295</ele>
        <time>2026-09-03T07:28:35Z</time>
      </trkpt>
      <trkpt lat="43.51825" lon="1.47588">
        <ele>295</ele>
        <time>2026-09-03T07:28:40Z</time>
      </trkpt>
      <trkpt lat="43.51824" lon="1.47571">
        <ele>296</ele>
        <time>2026-09-03T07:28:45Z</time>
      </trkpt>
      <trkpt lat="43.51823" lon="1.47555">
        <ele>297</ele>
        <time>2026-09-03T07:28:50Z</time>
      </trkpt>
      <trkpt lat="43.51822" lon="1.47539">
        <ele>298</ele>
        <time>2026-09-03T07:28:55Z</time>
      </trkpt>
      <trkpt lat="43.5182" lon="1.47523">
        <ele>299</ele>
        <time>2026-09-03T07:29:00Z</time>
      </trkpt>
      <trkpt lat="43.51819" lon="1.47509">
        <ele>300</ele>
        <time>2026-09-03T07:29:05Z</time>
      </trkpt>
      <trkpt lat="43.51824" lon="1.475">
        <ele>301</ele>
        <time>2026-09-03T07:29:10Z</time>
      </trkpt>
      <trkpt lat="43.51836" lon="1.47506">
        <ele>302</ele>
        <time>2026-09-03T07:29:15Z</time>
      </trkpt>
      <trkpt lat="43.51854" lon="1.47518">
        <ele>304</ele>
        <time>2026-09-03T07:29:20Z</time>
      </trkpt>
      <trkpt lat="43.51873" lon="1.47534">
        <ele>305</ele>
        <time>2026-09-03T07:29:25Z</time>
      </trkpt>
      <trkpt lat="43.51893" lon="1.47544">
        <ele>306</ele>
        <time>2026-09-03T07:29:30Z</time>
      </trkpt>
      <trkpt lat="43.51917" lon="1.47537">
        <ele>307</ele>
        <time>2026-09-03T07:29:35Z</time>
      </trkpt>
      <trkpt lat="43.5195" lon="1.4753">
        <ele>306</ele>
        <time>2026-09-03T07:29:40Z</time>
      </trkpt>
      <trkpt lat="43.51988" lon="1.47521">
        <ele>305</ele>
        <time>2026-09-03T07:29:45Z</time>
      </trkpt>
      <trkpt lat="43.52022" lon="1.47506">
        <ele>303</ele>
        <time>2026-09-03T07:29:50Z</time>
      </trkpt>
      <trkpt lat="43.5206" lon="1.47484">
        <ele>300</ele>
        <time>2026-09-03T07:29:55Z</time>
      </trkpt>
      <trkpt lat="43.52093" lon="1.47458">
        <ele>297</ele>
        <time>2026-09-03T07:30:00Z</time>
      </trkpt>
      <trkpt lat="43.52126" lon="1.47423">
        <ele>294</ele>
        <time>2026-09-03T07:30:05Z</time>
      </trkpt>
      <trkpt lat="43.52156" lon="1.47407">
        <ele>292</ele>
        <time>2026-09-03T07:30:10Z</time>
      </trkpt>
      <trkpt lat="43.52188" lon="1.47396">
        <ele>291</ele>
        <time>2026-09-03T07:30:15Z</time>
      </trkpt>
      <trkpt lat="43.52213" lon="1.47389">
        <ele>290</ele>
        <time>2026-09-03T07:30:20Z</time>
      </trkpt>
      <trkpt lat="43.52233" lon="1.47375">
        <ele>290</ele>
        <time>2026-09-03T07:30:25Z</time>
      </trkpt>
      <trkpt lat="43.52248" lon="1.47359">
        <ele>290</ele>
        <time>2026-09-03T07:30:30Z</time>
      </trkpt>
      <trkpt lat="43.52256" lon="1.47352">
        <ele>290</ele>
        <time>2026-09-03T07:30:35Z</time>
      </trkpt>
      <trkpt lat="43.52256" lon="1.47351">
        <ele>289</ele>
        <time>2026-09-03T07:31:03Z</time>
      </trkpt>
      <trkpt lat="43.52259" lon="1.47346">
        <ele>296</ele>
        <time>2026-09-03T07:31:05Z</time>
      </trkpt>
      <trkpt lat="43.52255" lon="1.47352">
        <ele>297</ele>
        <time>2026-09-03T07:31:10Z</time>
      </trkpt>
      <trkpt lat="43.52255" lon="1.47351">
        <ele>298</ele>
        <time>2026-09-03T07:31:36Z</time>
      </trkpt>
      <trkpt lat="43.5226" lon="1.47349">
        <ele>304</ele>
        <time>2026-09-03T07:31:39Z</time>
      </trkpt>
      <trkpt lat="43.52255" lon="1.47351">
        <ele>303</ele>
        <time>2026-09-03T07:31:44Z</time>
      </trkpt>
      <trkpt lat="43.52256" lon="1.47353">
        <ele>296</ele>
        <time>2026-09-03T07:32:09Z</time>
      </trkpt>
      <trkpt lat="43.52255" lon="1.47346">
        <ele>294</ele>
        <time>2026-09-03T07:32:12Z</time>
      </trkpt>
      <trkpt lat="43.52258" lon="1.4735">
        <ele>292</ele>
        <time>2026-09-03T07:32:17Z</time>
      </trkpt>
      <trkpt lat="43.52259" lon="1.47349">
        <ele>285</ele>
        <time>2026-09-03T07:32:42Z</time>
      </trkpt>
      <trkpt lat="43.52257" lon="1.47349">
        <ele>288</ele>
        <time>2026-09-03T07:32:46Z</time>
      </trkpt>
      <trkpt lat="43.52263" lon="1.47344">
        <ele>286</ele>
        <time>2026-09-03T07:32:51Z</time>
      </trkpt>
      <trkpt lat="43.52279" lon="1.47327">
        <ele>285</ele>
        <time>2026-09-03T07:32:56Z</time>
      </trkpt>
      <trkpt lat="43.52295" lon="1.47301">
        <ele>285</ele>
        <time>2026-09-03T07:33:01Z</time>
      </trkpt>
      <trkpt lat="43.52311" lon="1.47271">
        <ele>285</ele>
        <time>2026-09-03T07:33:06Z</time>
      </trkpt>
      <trkpt lat="43.5233" lon="1.47247">
        <ele>282</ele>
        <time>2026-09-03T07:33:11Z</time>
      </trkpt>
      <trkpt lat="43.52353" lon="1.47221">
        <ele>284</ele>
        <time>2026-09-03T07:33:16Z</time>
      </trkpt>
      <trkpt lat="43.52365" lon="1.47186">
        <ele>285</ele>
        <time>2026-09-03T07:33:21Z</time>
      </trkpt>
      <trkpt lat="43.52379" lon="1.47155">
        <ele>286</ele>
        <time>2026-09-03T07:33:26Z</time>
      </trkpt>
      <trkpt lat="43.52398" lon="1.47127">
        <ele>286</ele>
        <time>2026-09-03T07:33:31Z</time>
      </trkpt>
      <trkpt lat="43.52413" lon="1.47097">
        <ele>286</ele>
        <time>2026-09-03T07:33:36Z</time>
      </trkpt>
      <trkpt lat="43.52419" lon="1.47071">
        <ele>286</ele>
        <time>2026-09-03T07:33:41Z</time>
      </trkpt>
      <trkpt lat="43.52402" lon="1.47053">
        <ele>286</ele>
        <time>2026-09-03T07:33:46Z</time>
      </trkpt>
      <trkpt lat="43.52379" lon="1.47026">
        <ele>284</ele>
        <time>2026-09-03T07:33:51Z</time>
      </trkpt>
      <trkpt lat="43.52349" lon="1.47001">
        <ele>282</ele>
        <time>2026-09-03T07:33:56Z</time>
      </trkpt>
      <trkpt lat="43.52318" lon="1.47001">
        <ele>280</ele>
        <time>2026-09-03T07:34:01Z</time>
      </trkpt>
      <trkpt lat="43.52302" lon="1.47">
        <ele>279</ele>
        <time>2026-09-03T07:34:06Z</time>
      </trkpt>
      <trkpt lat="43.52298" lon="1.47001">
        <ele>277</ele>
        <time>2026-09-03T07:34:12Z</time>
      </trkpt>
      <trkpt lat="43.52285" lon="1.46996">
        <ele>277</ele>
        <time>2026-09-03T07:34:17Z</time>
      </trkpt>
      <trkpt lat="43.52272" lon="1.46991">
        <ele>277</ele>
        <time>2026-09-03T07:34:22Z</time>
      </trkpt>
      <trkpt lat="43.52259" lon="1.46984">
        <ele>278</ele>
        <time>2026-09-03T07:34:27Z</time>
      </trkpt>
      <trkpt lat="43.52248" lon="1.46976">
        <ele>278</ele>
        <time>2026-09-03T07:34:32Z</time>
      </trkpt>
      <trkpt lat="43.52238" lon="1.4697">
        <ele>279</ele>
        <time>2026-09-03T07:34:37Z</time>
      </trkpt>
      <trkpt lat="43.52231" lon="1.46964">
        <ele>279</ele>
        <time>2026-09-03T07:34:42Z</time>
      </trkpt>
      <trkpt lat="43.52227" lon="1.4696">
        <ele>280</ele>
        <time>2026-09-03T07:35:01Z</time>
      </trkpt>
      <trkpt lat="43.52222" lon="1.46956">
        <ele>280</ele>
        <time>2026-09-03T07:35:06Z</time>
      </trkpt>
      <trkpt lat="43.52214" lon="1.46949">
        <ele>281</ele>
        <time>2026-09-03T07:35:11Z</time>
      </trkpt>
      <trkpt lat="43.52209" lon="1.46942">
        <ele>282</ele>
        <time>2026-09-03T07:35:16Z</time>
      </trkpt>
      <trkpt lat="43.522" lon="1.46935">
        <ele>283</ele>
        <time>2026-09-03T07:35:21Z</time>
      </trkpt>
      <trkpt lat="43.52192" lon="1.46929">
        <ele>283</ele>
        <time>2026-09-03T07:35:26Z</time>
      </trkpt>
      <trkpt lat="43.52179" lon="1.46913">
        <ele>284</ele>
        <time>2026-09-03T07:35:31Z</time>
      </trkpt>
      <trkpt lat="43.52161" lon="1.46893">
        <ele>285</ele>
        <time>2026-09-03T07:35:36Z</time>
      </trkpt>
      <trkpt lat="43.5215" lon="1.46883">
        <ele>286</ele>
        <time>2026-09-03T07:35:41Z</time>
      </trkpt>
      <trkpt lat="43.52144" lon="1.46883">
        <ele>287</ele>
        <time>2026-09-03T07:35:46Z</time>
      </trkpt>
      <trkpt lat="43.52137" lon="1.46872">
        <ele>288</ele>
        <time>2026-09-03T07:35:51Z</time>
      </trkpt>
      <trkpt lat="43.52135" lon="1.46852">
        <ele>287</ele>
        <time>2026-09-03T07:35:56Z</time>
      </trkpt>
      <trkpt lat="43.52138" lon="1.46833">
        <ele>286</ele>
        <time>2026-09-03T07:36:01Z</time>
      </trkpt>
      <trkpt lat="43.52125" lon="1.46809">
        <ele>284</ele>
        <time>2026-09-03T07:36:06Z</time>
      </trkpt>
      <trkpt lat="43.52115" lon="1.46784">
        <ele>281</ele>
        <time>2026-09-03T07:36:11Z</time>
      </trkpt>
      <trkpt lat="43.52111" lon="1.46773">
        <ele>278</ele>
        <time>2026-09-03T07:36:16Z</time>
      </trkpt>
      <trkpt lat="43.52116" lon="1.46756">
        <ele>276</ele>
        <time>2026-09-03T07:36:21Z</time>
      </trkpt>
      <trkpt lat="43.52124" lon="1.46743">
        <ele>274</ele>
        <time>2026-09-03T07:36:26Z</time>
      </trkpt>
      <trkpt lat="43.52131" lon="1.46733">
        <ele>273</ele>
        <time>2026-09-03T07:36:31Z</time>
      </trkpt>
      <trkpt lat="43.52144" lon="1.46722">
        <ele>272</ele>
        <time>2026-09-03T07:36:36Z</time>
      </trkpt>
      <trkpt lat="43.52154" lon="1.46712">
        <ele>270</ele>
        <time>2026-09-03T07:36:41Z</time>
      </trkpt>
      <trkpt lat="43.52165" lon="1.46707">
        <ele>269</ele>
        <time>2026-09-03T07:36:46Z</time>
      </trkpt>
      <trkpt lat="43.52169" lon="1.46704">
        <ele>268</ele>
        <time>2026-09-03T07:36:52Z</time>
      </trkpt>
      <trkpt lat="43.52175" lon="1.46703">
        <ele>268</ele>
        <time>2026-09-03T07:36:58Z</time>
      </trkpt>
      <trkpt lat="43.52185" lon="1.46701">
        <ele>267</ele>
        <time>2026-09-03T07:37:03Z</time>
      </trkpt>
      <trkpt lat="43.52195" lon="1.46692">
        <ele>267</ele>
        <time>2026-09-03T07:37:08Z</time>
      </trkpt>
      <trkpt lat="43.5221" lon="1.46684">
        <ele>267</ele>
        <time>2026-09-03T07:37:13Z</time>
      </trkpt>
      <trkpt lat="43.52224" lon="1.46676">
        <ele>266</ele>
        <time>2026-09-03T07:37:18Z</time>
      </trkpt>
      <trkpt lat="43.52235" lon="1.46671">
        <ele>266</ele>
        <time>2026-09-03T07:37:23Z</time>
      </trkpt>
      <trkpt lat="43.52244" lon="1.46662">
        <ele>265</ele>
        <time>2026-09-03T07:37:28Z</time>
      </trkpt>
      <trkpt lat="43.52252" lon="1.46663">
        <ele>265</ele>
        <time>2026-09-03T07:37:33Z</time>
      </trkpt>
      <trkpt lat="43.52261" lon="1.46664">
        <ele>264</ele>
        <time>2026-09-03T07:37:38Z</time>
      </trkpt>
      <trkpt lat="43.52266" lon="1.46659">
        <ele>264</ele>
        <time>2026-09-03T07:37:43Z</time>
      </trkpt>
      <trkpt lat="43.52272" lon="1.4666">
        <ele>264</ele>
        <time>2026-09-03T07:37:48Z</time>
      </trkpt>
      <trkpt lat="43.52277" lon="1.4666">
        <ele>264</ele>
        <time>2026-09-03T07:37:57Z</time>
      </trkpt>
      <trkpt lat="43.52284" lon="1.46662">
        <ele>263</ele>
        <time>2026-09-03T07:38:02Z</time>
      </trkpt>
      <trkpt lat="43.5229" lon="1.46665">
        <ele>263</ele>
        <time>2026-09-03T07:38:07Z</time>
      </trkpt>
      <trkpt lat="43.52292" lon="1.46667">
        <ele>264</ele>
        <time>2026-09-03T07:38:26Z</time>
      </trkpt>
      <trkpt lat="43.52293" lon="1.46659">
        <ele>271</ele>
        <time>2026-09-03T07:38:28Z</time>
      </trkpt>
      <trkpt lat="43.52297" lon="1.46665">
        <ele>273</ele>
        <time>2026-09-03T07:38:33Z</time>
      </trkpt>
      <trkpt lat="43.52292" lon="1.46665">
        <ele>273</ele>
        <time>2026-09-03T07:38:42Z</time>
      </trkpt>
      <trkpt lat="43.52288" lon="1.46663">
        <ele>272</ele>
        <time>2026-09-03T07:38:51Z</time>
      </trkpt>
      <trkpt lat="43.52283" lon="1.46663">
        <ele>271</ele>
        <time>2026-09-03T07:38:59Z</time>
      </trkpt>
      <trkpt lat="43.52281" lon="1.46662">
        <ele>262</ele>
        <time>2026-09-03T07:39:14Z</time>
      </trkpt>
      <trkpt lat="43.52277" lon="1.46665">
        <ele>263</ele>
        <time>2026-09-03T07:39:18Z</time>
      </trkpt>
      <trkpt lat="43.52272" lon="1.46668">
        <ele>260</ele>
        <time>2026-09-03T07:39:23Z</time>
      </trkpt>
      <trkpt lat="43.52273" lon="1.46663">
        <ele>257</ele>
        <time>2026-09-03T07:39:48Z</time>
      </trkpt>
      <trkpt lat="43.52276" lon="1.46657">
        <ele>259</ele>
        <time>2026-09-03T07:39:51Z</time>
      </trkpt>
      <trkpt lat="43.52276" lon="1.46663">
        <ele>259</ele>
        <time>2026-09-03T07:39:55Z</time>
      </trkpt>
      <trkpt lat="43.52282" lon="1.46664">
        <ele>254</ele>
        <time>2026-09-03T07:40:04Z</time>
      </trkpt>
      <trkpt lat="43.52291" lon="1.46666">
        <ele>258</ele>
        <time>2026-09-03T07:40:09Z</time>
      </trkpt>
      <trkpt lat="43.52296" lon="1.4667">
        <ele>262</ele>
        <time>2026-09-03T07:40:14Z</time>
      </trkpt>
      <trkpt lat="43.523" lon="1.46673">
        <ele>263</ele>
        <time>2026-09-03T07:40:21Z</time>
      </trkpt>
      <trkpt lat="43.52305" lon="1.46672">
        <ele>267</ele>
        <time>2026-09-03T07:40:26Z</time>
      </trkpt>
      <trkpt lat="43.52309" lon="1.46676">
        <ele>270</ele>
        <time>2026-09-03T07:40:37Z</time>
      </trkpt>
      <trkpt lat="43.52315" lon="1.46677">
        <ele>272</ele>
        <time>2026-09-03T07:40:43Z</time>
      </trkpt>
      <trkpt lat="43.52321" lon="1.46673">
        <ele>273</ele>
        <time>2026-09-03T07:40:48Z</time>
      </trkpt>
      <trkpt lat="43.52329" lon="1.46671">
        <ele>274</ele>
        <time>2026-09-03T07:40:53Z</time>
      </trkpt>
      <trkpt lat="43.52338" lon="1.46676">
        <ele>275</ele>
        <time>2026-09-03T07:40:58Z</time>
      </trkpt>
      <trkpt lat="43.52343" lon="1.46677">
        <ele>277</ele>
        <time>2026-09-03T07:41:03Z</time>
      </trkpt>
      <trkpt lat="43.52349" lon="1.46678">
        <ele>277</ele>
        <time>2026-09-03T07:41:20Z</time>
      </trkpt>
      <trkpt lat="43.52356" lon="1.46673">
        <ele>278</ele>
        <time>2026-09-03T07:41:25Z</time>
      </trkpt>
      <trkpt lat="43.52364" lon="1.46667">
        <ele>278</ele>
        <time>2026-09-03T07:41:30Z</time>
      </trkpt>
      <trkpt lat="43.52368" lon="1.46664">
        <ele>277</ele>
        <time>2026-09-03T07:41:35Z</time>
      </trkpt>
      <trkpt lat="43.52379" lon="1.46651">
        <ele>276</ele>
        <time>2026-09-03T07:41:40Z</time>
      </trkpt>
      <trkpt lat="43.5239" lon="1.46636">
        <ele>275</ele>
        <time>2026-09-03T07:41:45Z</time>
      </trkpt>
      <trkpt lat="43.52407" lon="1.4663">
        <ele>274</ele>
        <time>2026-09-03T07:41:50Z</time>
      </trkpt>
      <trkpt lat="43.52422" lon="1.46616">
        <ele>273</ele>
        <time>2026-09-03T07:41:55Z</time>
      </trkpt>
      <trkpt lat="43.52435" lon="1.46599">
        <ele>272</ele>
        <time>2026-09-03T07:42:00Z</time>
      </trkpt>
      <trkpt lat="43.5246" lon="1.46577">
        <ele>271</ele>
        <time>2026-09-03T07:42:05Z</time>
      </trkpt>
      <trkpt lat="43.52465" lon="1.46556">
        <ele>269</ele>
        <time>2026-09-03T07:42:10Z</time>
      </trkpt>
      <trkpt lat="43.5248" lon="1.46548">
        <ele>268</ele>
        <time>2026-09-03T07:42:15Z</time>
      </trkpt>
      <trkpt lat="43.52489" lon="1.46551">
        <ele>266</ele>
        <time>2026-09-03T07:42:20Z</time>
      </trkpt>
      <trkpt lat="43.52494" lon="1.46549">
        <ele>265</ele>
        <time>2026-09-03T07:42:25Z</time>
      </trkpt>
      <trkpt lat="43.52507" lon="1.46543">
        <ele>264</ele>
        <time>2026-09-03T07:42:30Z</time>
      </trkpt>
      <trkpt lat="43.52522" lon="1.46545">
        <ele>263</ele>
        <time>2026-09-03T07:42:35Z</time>
      </trkpt>
      <trkpt lat="43.52531" lon="1.46527">
        <ele>263</ele>
        <time>2026-09-03T07:42:40Z</time>
      </trkpt>
      <trkpt lat="43.52546" lon="1.46528">
        <ele>262</ele>
        <time>2026-09-03T07:42:45Z</time>
      </trkpt>
      <trkpt lat="43.5256" lon="1.46515">
        <ele>262</ele>
        <time>2026-09-03T07:42:50Z</time>
      </trkpt>
      <trkpt lat="43.52579" lon="1.46519">
        <ele>262</ele>
        <time>2026-09-03T07:42:55Z</time>
      </trkpt>
      <trkpt lat="43.52594" lon="1.46525">
        <ele>261</ele>
        <time>2026-09-03T07:43:00Z</time>
      </trkpt>
      <trkpt lat="43.52608" lon="1.46535">
        <ele>261</ele>
        <time>2026-09-03T07:43:05Z</time>
      </trkpt>
      <trkpt lat="43.52621" lon="1.46534">
        <ele>260</ele>
        <time>2026-09-03T07:43:10Z</time>
      </trkpt>
      <trkpt lat="43.52642" lon="1.46528">
        <ele>258</ele>
        <time>2026-09-03T07:43:15Z</time>
      </trkpt>
      <trkpt lat="43.52659" lon="1.46529">
        <ele>256</ele>
        <time>2026-09-03T07:43:20Z</time>
      </trkpt>
      <trkpt lat="43.5267" lon="1.46521">
        <ele>254</ele>
        <time>2026-09-03T07:43:25Z</time>
      </trkpt>
      <trkpt lat="43.52683" lon="1.46522">
        <ele>251</ele>
        <time>2026-09-03T07:43:30Z</time>
      </trkpt>
      <trkpt lat="43.52691" lon="1.46529">
        <ele>249</ele>
        <time>2026-09-03T07:43:35Z</time>
      </trkpt>
      <trkpt lat="43.52704" lon="1.46536">
        <ele>247</ele>
        <time>2026-09-03T07:43:40Z</time>
      </trkpt>
      <trkpt lat="43.52716" lon="1.46545">
        <ele>245</ele>
        <time>2026-09-03T07:43:45Z</time>
      </trkpt>
      <trkpt lat="43.52729" lon="1.46543">
        <ele>243</ele>
        <time>2026-09-03T07:43:50Z</time>
      </trkpt>
      <trkpt lat="43.52742" lon="1.46539">
        <ele>242</ele>
        <time>2026-09-03T07:43:55Z</time>
      </trkpt>
      <trkpt lat="43.52766" lon="1.46534">
        <ele>241</ele>
        <time>2026-09-03T07:44:00Z</time>
      </trkpt>
      <trkpt lat="43.52787" lon="1.46525">
        <ele>239</ele>
        <time>2026-09-03T07:44:05Z</time>
      </trkpt>
      <trkpt lat="43.52803" lon="1.46512">
        <ele>238</ele>
        <time>2026-09-03T07:44:10Z</time>
      </trkpt>
      <trkpt lat="43.52818" lon="1.46504">
        <ele>236</ele>
        <time>2026-09-03T07:44:15Z</time>
      </trkpt>
      <trkpt lat="43.52833" lon="1.46499">
        <ele>235</ele>
        <time>2026-09-03T07:44:20Z</time>
      </trkpt>
      <trkpt lat="43.5285" lon="1.4649">
        <ele>234</ele>
        <time>2026-09-03T07:44:25Z</time>
      </trkpt>
      <trkpt lat="43.52864" lon="1.46491">
        <ele>233</ele>
        <time>2026-09-03T07:44:30Z</time>
      </trkpt>
      <trkpt lat="43.5287" lon="1.46489">
        <ele>232</ele>
        <time>2026-09-03T07:44:35Z</time>
      </trkpt>
      <trkpt lat="43.52879" lon="1.46481">
        <ele>230</ele>
        <time>2026-09-03T07:44:40Z</time>
      </trkpt>
      <trkpt lat="43.52891" lon="1.46476">
        <ele>229</ele>
        <time>2026-09-03T07:44:45Z</time>
      </trkpt>
      <trkpt lat="43.52889" lon="1.46469">
        <ele>229</ele>
        <time>2026-09-03T07:44:56Z</time>
      </trkpt>
      <trkpt lat="43.52888" lon="1.46455">
        <ele>229</ele>
        <time>2026-09-03T07:45:01Z</time>
      </trkpt>
      <trkpt lat="43.52889" lon="1.46453">
        <ele>228</ele>
        <time>2026-09-03T07:45:17Z</time>
      </trkpt>
      <trkpt lat="43.52893" lon="1.46448">
        <ele>227</ele>
        <time>2026-09-03T07:45:20Z</time>
      </trkpt>
      <trkpt lat="43.5288" lon="1.46443">
        <ele>224</ele>
        <time>2026-09-03T07:45:25Z</time>
      </trkpt>
      <trkpt lat="43.5288" lon="1.46436">
        <ele>223</ele>
        <time>2026-09-03T07:45:30Z</time>
      </trkpt>
      <trkpt lat="43.52892" lon="1.46428">
        <ele>222</ele>
        <time>2026-09-03T07:45:35Z</time>
      </trkpt>
      <trkpt lat="43.52908" lon="1.46424">
        <ele>222</ele>
        <time>2026-09-03T07:45:40Z</time>
      </trkpt>
      <trkpt lat="43.52922" lon="1.46425">
        <ele>223</ele>
        <time>2026-09-03T07:45:45Z</time>
      </trkpt>
      <trkpt lat="43.52945" lon="1.46422">
        <ele>228</ele>
        <time>2026-09-03T07:45:50Z</time>
      </trkpt>
      <trkpt lat="43.52969" lon="1.46418">
        <ele>230</ele>
        <time>2026-09-03T07:45:55Z</time>
      </trkpt>
      <trkpt lat="43.52996" lon="1.46418">
        <ele>230</ele>
        <time>2026-09-03T07:46:00Z</time>
      </trkpt>
      <trkpt lat="43.53027" lon="1.46417">
        <ele>230</ele>
        <time>2026-09-03T07:46:05Z</time>
      </trkpt>
      <trkpt lat="43.53052" lon="1.46417">
        <ele>230</ele>
        <time>2026-09-03T07:46:10Z</time>
      </trkpt>
      <trkpt lat="43.53057" lon="1.46419">
        <ele>229</ele>
        <time>2026-09-03T07:46:15Z</time>
      </trkpt>
      <trkpt lat="43.53061" lon="1.46417">
        <ele>229</ele>
        <time>2026-09-03T07:46:20Z</time>
      </trkpt>
      <trkpt lat="43.53074" lon="1.46419">
        <ele>228</ele>
        <time>2026-09-03T07:46:25Z</time>
      </trkpt>
      <trkpt lat="43.53089" lon="1.46418">
        <ele>228</ele>
        <time>2026-09-03T07:46:30Z</time>
      </trkpt>
      <trkpt lat="43.5311" lon="1.46413">
        <ele>227</ele>
        <time>2026-09-03T07:46:35Z</time>
      </trkpt>
      <trkpt lat="43.53131" lon="1.46407">
        <ele>226</ele>
        <time>2026-09-03T07:46:40Z</time>
      </trkpt>
      <trkpt lat="43.53154" lon="1.464">
        <ele>225</ele>
        <time>2026-09-03T07:46:45Z</time>
      </trkpt>
      <trkpt lat="43.53175" lon="1.46388">
        <ele>225</ele>
        <time>2026-09-03T07:46:50Z</time>
      </trkpt>
      <trkpt lat="43.53193" lon="1.46386">
        <ele>225</ele>
        <time>2026-09-03T07:46:55Z</time>
      </trkpt>
      <trkpt lat="43.53198" lon="1.46388">
        <ele>225</ele>
        <time>2026-09-03T07:47:04Z</time>
      </trkpt>
      <trkpt lat="43.53213" lon="1.46392">
        <ele>224</ele>
        <time>2026-09-03T07:47:09Z</time>
      </trkpt>
      <trkpt lat="43.53225" lon="1.46372">
        <ele>223</ele>
        <time>2026-09-03T07:47:14Z</time>
      </trkpt>
      <trkpt lat="43.53233" lon="1.46337">
        <ele>222</ele>
        <time>2026-09-03T07:47:19Z</time>
      </trkpt>
      <trkpt lat="43.5324" lon="1.46298">
        <ele>220</ele>
        <time>2026-09-03T07:47:24Z</time>
      </trkpt>
      <trkpt lat="43.5325" lon="1.46259">
        <ele>219</ele>
        <time>2026-09-03T07:47:29Z</time>
      </trkpt>
      <trkpt lat="43.53257" lon="1.46212">
        <ele>217</ele>
        <time>2026-09-03T07:47:34Z</time>
      </trkpt>
      <trkpt lat="43.53263" lon="1.46163">
        <ele>215</ele>
        <time>2026-09-03T07:47:39Z</time>
      </trkpt>
      <trkpt lat="43.53269" lon="1.46116">
        <ele>213</ele>
        <time>2026-09-03T07:47:44Z</time>
      </trkpt>
      <trkpt lat="43.53277" lon="1.46084">
        <ele>212</ele>
        <time>2026-09-03T07:47:49Z</time>
      </trkpt>
      <trkpt lat="43.53284" lon="1.46048">
        <ele>211</ele>
        <time>2026-09-03T07:47:54Z</time>
      </trkpt>
      <trkpt lat="43.53297" lon="1.4601">
        <ele>210</ele>
        <time>2026-09-03T07:47:59Z</time>
      </trkpt>
      <trkpt lat="43.53314" lon="1.4597">
        <ele>210</ele>
        <time>2026-09-03T07:48:04Z</time>
      </trkpt>
      <trkpt lat="43.53328" lon="1.4593">
        <ele>211</ele>
        <time>2026-09-03T07:48:09Z</time>
      </trkpt>
      <trkpt lat="43.53345" lon="1.45895">
        <ele>212</ele>
        <time>2026-09-03T07:48:14Z</time>
      </trkpt>
      <trkpt lat="43.53361" lon="1.45853">
        <ele>212</ele>
        <time>2026-09-03T07:48:19Z</time>
      </trkpt>
      <trkpt lat="43.53378" lon="1.45825">
        <ele>213</ele>
        <time>2026-09-03T07:48:24Z</time>
      </trkpt>
      <trkpt lat="43.534" lon="1.45808">
        <ele>213</ele>
        <time>2026-09-03T07:48:29Z</time>
      </trkpt>
      <trkpt lat="43.53409" lon="1.45797">
        <ele>213</ele>
        <time>2026-09-03T07:48:34Z</time>
      </trkpt>
      <trkpt lat="43.53413" lon="1.45776">
        <ele>213</ele>
        <time>2026-09-03T07:48:39Z</time>
      </trkpt>
      <trkpt lat="43.53422" lon="1.45757">
        <ele>213</ele>
        <time>2026-09-03T07:48:44Z</time>
      </trkpt>
      <trkpt lat="43.53431" lon="1.45746">
        <ele>212</ele>
        <time>2026-09-03T07:48:49Z</time>
      </trkpt>
      <trkpt lat="43.53436" lon="1.4572">
        <ele>212</ele>
        <time>2026-09-03T07:48:54Z</time>
      </trkpt>
      <trkpt lat="43.53435" lon="1.45698">
        <ele>211</ele>
        <time>2026-09-03T07:48:59Z</time>
      </trkpt>
      <trkpt lat="43.53416" lon="1.45685">
        <ele>212</ele>
        <time>2026-09-03T07:49:04Z</time>
      </trkpt>
      <trkpt lat="43.53416" lon="1.45668">
        <ele>212</ele>
        <time>2026-09-03T07:49:09Z</time>
      </trkpt>
      <trkpt lat="43.53429" lon="1.45635">
        <ele>212</ele>
        <time>2026-09-03T07:49:14Z</time>
      </trkpt>
      <trkpt lat="43.53442" lon="1.45604">
        <ele>212</ele>
        <time>2026-09-03T07:49:19Z</time>
      </trkpt>
      <trkpt lat="43.53457" lon="1.45576">
        <ele>213</ele>
        <time>2026-09-03T07:49:24Z</time>
      </trkpt>
      <trkpt lat="43.53475" lon="1.45547">
        <ele>212</ele>
        <time>2026-09-03T07:49:29Z</time>
      </trkpt>
      <trkpt lat="43.53494" lon="1.45517">
        <ele>212</ele>
        <time>2026-09-03T07:49:34Z</time>
      </trkpt>
      <trkpt lat="43.53515" lon="1.45484">
        <ele>213</ele>
        <time>2026-09-03T07:49:39Z</time>
      </trkpt>
      <trkpt lat="43.53534" lon="1.45446">
        <ele>213</ele>
        <time>2026-09-03T07:49:44Z</time>
      </trkpt>
      <trkpt lat="43.53555" lon="1.45419">
        <ele>214</ele>
        <time>2026-09-03T07:49:49Z</time>
      </trkpt>
      <trkpt lat="43.53559" lon="1.45408">
        <ele>214</ele>
        <time>2026-09-03T07:49:54Z</time>
      </trkpt>
      <trkpt lat="43.53566" lon="1.45408">
        <ele>214</ele>
        <time>2026-09-03T07:49:59Z</time>
      </trkpt>
      <trkpt lat="43.53577" lon="1.45409">
        <ele>214</ele>
        <time>2026-09-03T07:50:04Z</time>
      </trkpt>
      <trkpt lat="43.53585" lon="1.45399">
        <ele>214</ele>
        <time>2026-09-03T07:50:09Z</time>
      </trkpt>
      <trkpt lat="43.53593" lon="1.45383">
        <ele>214</ele>
        <time>2026-09-03T07:50:14Z</time>
      </trkpt>
      <trkpt lat="43.53602" lon="1.45368">
        <ele>214</ele>
        <time>2026-09-03T07:50:19Z</time>
      </trkpt>
      <trkpt lat="43.53614" lon="1.45348">
        <ele>215</ele>
        <time>2026-09-03T07:50:24Z</time>
      </trkpt>
      <trkpt lat="43.5363" lon="1.45331">
        <ele>215</ele>
        <time>2026-09-03T07:50:29Z</time>
      </trkpt>
      <trkpt lat="43.53641" lon="1.4531">
        <ele>214</ele>
        <time>2026-09-03T07:50:34Z</time>
      </trkpt>
      <trkpt lat="43.5366" lon="1.4529">
        <ele>213</ele>
        <time>2026-09-03T07:50:39Z</time>
      </trkpt>
      <trkpt lat="43.53663" lon="1.45265">
        <ele>212</ele>
        <time>2026-09-03T07:50:44Z</time>
      </trkpt>
      <trkpt lat="43.53664" lon="1.45249">
        <ele>211</ele>
        <time>2026-09-03T07:50:49Z</time>
      </trkpt>
      <trkpt lat="43.53676" lon="1.4523">
        <ele>209</ele>
        <time>2026-09-03T07:50:54Z</time>
      </trkpt>
      <trkpt lat="43.53688" lon="1.45211">
        <ele>208</ele>
        <time>2026-09-03T07:50:59Z</time>
      </trkpt>
      <trkpt lat="43.53699" lon="1.45194">
        <ele>208</ele>
        <time>2026-09-03T07:51:04Z</time>
      </trkpt>
      <trkpt lat="43.5371" lon="1.45162">
        <ele>208</ele>
        <time>2026-09-03T07:51:09Z</time>
      </trkpt>
      <trkpt lat="43.53704" lon="1.45138">
        <ele>208</ele>
        <time>2026-09-03T07:51:14Z</time>
      </trkpt>
      <trkpt lat="43.53711" lon="1.4513">
        <ele>208</ele>
        <time>2026-09-03T07:51:19Z</time>
      </trkpt>
      <trkpt lat="43.53721" lon="1.45105">
        <ele>208</ele>
        <time>2026-09-03T07:51:24Z</time>
      </trkpt>
      <trkpt lat="43.53741" lon="1.45082">
        <ele>208</ele>
        <time>2026-09-03T07:51:29Z</time>
      </trkpt>
      <trkpt lat="43.5376" lon="1.45057">
        <ele>207</ele>
        <time>2026-09-03T07:51:34Z</time>
      </trkpt>
      <trkpt lat="43.53779" lon="1.45037">
        <ele>206</ele>
        <time>2026-09-03T07:51:39Z</time>
      </trkpt>
      <trkpt lat="43.53779" lon="1.45022">
        <ele>205</ele>
        <time>2026-09-03T07:51:44Z</time>
      </trkpt>
      <trkpt lat="43.53769" lon="1.45015">
        <ele>204</ele>
        <time>2026-09-03T07:51:49Z</time>
      </trkpt>
      <trkpt lat="43.53764" lon="1.45003">
        <ele>203</ele>
        <time>2026-09-03T07:51:54Z</time>
      </trkpt>
      <trkpt lat="43.53765" lon="1.44986">
        <ele>203</ele>
        <time>2026-09-03T07:51:59Z</time>
      </trkpt>
      <trkpt lat="43.53762" lon="1.44972">
        <ele>203</ele>
        <time>2026-09-03T07:52:04Z</time>
      </trkpt>
      <trkpt lat="43.53767" lon="1.44961">
        <ele>203</ele>
        <time>2026-09-03T07:52:09Z</time>
      </trkpt>
      <trkpt lat="43.53772" lon="1.44942">
        <ele>203</ele>
        <time>2026-09-03T07:52:14Z</time>
      </trkpt>
      <trkpt lat="43.5378" lon="1.44925">
        <ele>202</ele>
        <time>2026-09-03T07:52:19Z</time>
      </trkpt>
      <trkpt lat="43.53791" lon="1.44904">
        <ele>202</ele>
        <time>2026-09-03T07:52:24Z</time>
      </trkpt>
      <trkpt lat="43.53796" lon="1.44883">
        <ele>201</ele>
        <time>2026-09-03T07:52:29Z</time>
      </trkpt>
      <trkpt lat="43.53809" lon="1.44868">
        <ele>200</ele>
        <time>2026-09-03T07:52:34Z</time>
      </trkpt>
      <trkpt lat="43.53815" lon="1.44861">
        <ele>200</ele>
        <time>2026-09-03T07:52:39Z</time>
      </trkpt>
      <trkpt lat="43.53824" lon="1.4485">
        <ele>199</ele>
        <time>2026-09-03T07:52:44Z</time>
      </trkpt>
      <trkpt lat="43.53832" lon="1.44833">
        <ele>199</ele>
        <time>2026-09-03T07:52:49Z</time>
      </trkpt>
      <trkpt lat="43.5384" lon="1.44816">
        <ele>199</ele>
        <time>2026-09-03T07:52:54Z</time>
      </trkpt>
      <trkpt lat="43.53843" lon="1.44798">
        <ele>199</ele>
        <time>2026-09-03T07:52:59Z</time>
      </trkpt>
      <trkpt lat="43.5385" lon="1.44783">
        <ele>199</ele>
        <time>2026-09-03T07:53:04Z</time>
      </trkpt>
      <trkpt lat="43.53853" lon="1.44763">
        <ele>198</ele>
        <time>2026-09-03T07:53:09Z</time>
      </trkpt>
      <trkpt lat="43.53854" lon="1.44746">
        <ele>198</ele>
        <time>2026-09-03T07:53:14Z</time>
      </trkpt>
      <trkpt lat="43.53858" lon="1.44727">
        <ele>197</ele>
        <time>2026-09-03T07:53:19Z</time>
      </trkpt>
      <trkpt lat="43.53865" lon="1.44707">
        <ele>198</ele>
        <time>2026-09-03T07:53:24Z</time>
      </trkpt>
      <trkpt lat="43.53867" lon="1.44682">
        <ele>200</ele>
        <time>2026-09-03T07:53:29Z</time>
      </trkpt>
      <trkpt lat="43.53875" lon="1.44661">
        <ele>202</ele>
        <time>2026-09-03T07:53:34Z</time>
      </trkpt>
      <trkpt lat="43.53894" lon="1.44638">
        <ele>203</ele>
        <time>2026-09-03T07:53:39Z</time>
      </trkpt>
      <trkpt lat="43.53904" lon="1.44623">
        <ele>204</ele>
        <time>2026-09-03T07:53:44Z</time>
      </trkpt>
      <trkpt lat="43.53919" lon="1.44608">
        <ele>203</ele>
        <time>2026-09-03T07:53:49Z</time>
      </trkpt>
      <trkpt lat="43.53928" lon="1.44597">
        <ele>201</ele>
        <time>2026-09-03T07:53:54Z</time>
      </trkpt>
      <trkpt lat="43.5394" lon="1.44595">
        <ele>200</ele>
        <time>2026-09-03T07:53:59Z</time>
      </trkpt>
      <trkpt lat="43.5395" lon="1.44592">
        <ele>199</ele>
        <time>2026-09-03T07:54:04Z</time>
      </trkpt>
      <trkpt lat="43.5396" lon="1.44586">
        <ele>198</ele>
        <time>2026-09-03T07:54:09Z</time>
      </trkpt>
      <trkpt lat="43.5397" lon="1.44578">
        <ele>197</ele>
        <time>2026-09-03T07:54:14Z</time>
      </trkpt>
      <trkpt lat="43.5398" lon="1.44568">
        <ele>196</ele>
        <time>2026-09-03T07:54:19Z</time>
      </trkpt>
      <trkpt lat="43.53991" lon="1.44563">
        <ele>196</ele>
        <time>2026-09-03T07:54:24Z</time>
      </trkpt>
      <trkpt lat="43.53999" lon="1.44558">
        <ele>196</ele>
        <time>2026-09-03T07:54:29Z</time>
      </trkpt>
      <trkpt lat="43.54008" lon="1.44558">
        <ele>196</ele>
        <time>2026-09-03T07:54:34Z</time>
      </trkpt>
      <trkpt lat="43.54015" lon="1.44559">
        <ele>196</ele>
        <time>2026-09-03T07:54:39Z</time>
      </trkpt>
      <trkpt lat="43.54022" lon="1.44563">
        <ele>196</ele>
        <time>2026-09-03T07:54:44Z</time>
      </trkpt>
      <trkpt lat="43.5403" lon="1.44568">
        <ele>196</ele>
        <time>2026-09-03T07:54:49Z</time>
      </trkpt>
      <trkpt lat="43.54037" lon="1.44567">
        <ele>196</ele>
        <time>2026-09-03T07:54:54Z</time>
      </trkpt>
      <trkpt lat="43.54035" lon="1.4456">
        <ele>197</ele>
        <time>2026-09-03T07:55:05Z</time>
      </trkpt>
      <trkpt lat="43.54028" lon="1.44549">
        <ele>197</ele>
        <time>2026-09-03T07:55:10Z</time>
      </trkpt>
      <trkpt lat="43.54018" lon="1.44531">
        <ele>198</ele>
        <time>2026-09-03T07:55:15Z</time>
      </trkpt>
      <trkpt lat="43.54006" lon="1.44513">
        <ele>198</ele>
        <time>2026-09-03T07:55:20Z</time>
      </trkpt>
      <trkpt lat="43.53994" lon="1.445">
        <ele>198</ele>
        <time>2026-09-03T07:55:25Z</time>
      </trkpt>
      <trkpt lat="43.53995" lon="1.44475">
        <ele>198</ele>
        <time>2026-09-03T07:55:30Z</time>
      </trkpt>
      <trkpt lat="43.54003" lon="1.44457">
        <ele>198</ele>
        <time>2026-09-03T07:55:35Z</time>
      </trkpt>
      <trkpt lat="43.54004" lon="1.44449">
        <ele>197</ele>
        <time>2026-09-03T07:55:44Z</time>
      </trkpt>
      <trkpt lat="43.54003" lon="1.44432">
        <ele>197</ele>
        <time>2026-09-03T07:55:49Z</time>
      </trkpt>
      <trkpt lat="43.54009" lon="1.44409">
        <ele>196</ele>
        <time>2026-09-03T07:55:54Z</time>
      </trkpt>
      <trkpt lat="43.54027" lon="1.44388">
        <ele>196</ele>
        <time>2026-09-03T07:55:59Z</time>
      </trkpt>
      <trkpt lat="43.5404" lon="1.44377">
        <ele>195</ele>
        <time>2026-09-03T07:56:04Z</time>
      </trkpt>
      <trkpt lat="43.54048" lon="1.44356">
        <ele>194</ele>
        <time>2026-09-03T07:56:09Z</time>
      </trkpt>
      <trkpt lat="43.54058" lon="1.44334">
        <ele>193</ele>
        <time>2026-09-03T07:56:14Z</time>
      </trkpt>
      <trkpt lat="43.54073" lon="1.44314">
        <ele>192</ele>
        <time>2026-09-03T07:56:19Z</time>
      </trkpt>
      <trkpt lat="43.54093" lon="1.44283">
        <ele>190</ele>
        <time>2026-09-03T07:56:24Z</time>
      </trkpt>
      <trkpt lat="43.54101" lon="1.44254">
        <ele>189</ele>
        <time>2026-09-03T07:56:29Z</time>
      </trkpt>
      <trkpt lat="43.54113" lon="1.44232">
        <ele>189</ele>
        <time>2026-09-03T07:56:34Z</time>
      </trkpt>
      <trkpt lat="43.54131" lon="1.44213">
        <ele>188</ele>
        <time>2026-09-03T07:56:39Z</time>
      </trkpt>
      <trkpt lat="43.54145" lon="1.442">
        <ele>187</ele>
        <time>2026-09-03T07:56:44Z</time>
      </trkpt>
      <trkpt lat="43.54157" lon="1.44194">
        <ele>186</ele>
        <time>2026-09-03T07:56:49Z</time>
      </trkpt>
      <trkpt lat="43.54167" lon="1.44185">
        <ele>185</ele>
        <time>2026-09-03T07:56:54Z</time>
      </trkpt>
      <trkpt lat="43.54166" lon="1.44176">
        <ele>185</ele>
        <time>2026-09-03T07:57:03Z</time>
      </trkpt>
      <trkpt lat="43.54173" lon="1.44158">
        <ele>185</ele>
        <time>2026-09-03T07:57:08Z</time>
      </trkpt>
      <trkpt lat="43.54183" lon="1.44156">
        <ele>185</ele>
        <time>2026-09-03T07:57:13Z</time>
      </trkpt>
      <trkpt lat="43.54187" lon="1.44149">
        <ele>185</ele>
        <time>2026-09-03T07:57:18Z</time>
      </trkpt>
      <trkpt lat="43.54185" lon="1.44136">
        <ele>185</ele>
        <time>2026-09-03T07:57:23Z</time>
      </trkpt>
      <trkpt lat="43.54186" lon="1.44122">
        <ele>185</ele>
        <time>2026-09-03T07:57:28Z</time>
      </trkpt>
      <trkpt lat="43.54181" lon="1.44116">
        <ele>185</ele>
        <time>2026-09-03T07:57:33Z</time>
      </trkpt>
      <trkpt lat="43.54178" lon="1.44109">
        <ele>185</ele>
        <time>2026-09-03T07:57:38Z</time>
      </trkpt>
      <trkpt lat="43.54173" lon="1.44092">
        <ele>185</ele>
        <time>2026-09-03T07:57:43Z</time>
      </trkpt>
      <trkpt lat="43.54162" lon="1.4408">
        <ele>185</ele>
        <time>2026-09-03T07:57:48Z</time>
      </trkpt>
      <trkpt lat="43.5415" lon="1.4407">
        <ele>186</ele>
        <time>2026-09-03T07:57:53Z</time>
      </trkpt>
      <trkpt lat="43.54149" lon="1.44058">
        <ele>186</ele>
        <time>2026-09-03T07:57:58Z</time>
      </trkpt>
      <trkpt lat="43.5415" lon="1.44052">
        <ele>187</ele>
        <time>2026-09-03T07:58:04Z</time>
      </trkpt>
      <trkpt lat="43.54148" lon="1.44057">
        <ele>187</ele>
        <time>2026-09-03T07:58:13Z</time>
      </trkpt>
      <trkpt lat="43.54136" lon="1.44059">
        <ele>188</ele>
        <time>2026-09-03T07:58:18Z</time>
      </trkpt>
      <trkpt lat="43.54125" lon="1.44055">
        <ele>188</ele>
        <time>2026-09-03T07:58:23Z</time>
      </trkpt>
      <trkpt lat="43.54113" lon="1.44055">
        <ele>188</ele>
        <time>2026-09-03T07:58:28Z</time>
      </trkpt>
      <trkpt lat="43.54103" lon="1.44057">
        <ele>189</ele>
        <time>2026-09-03T07:58:33Z</time>
      </trkpt>
      <trkpt lat="43.54092" lon="1.44059">
        <ele>190</ele>
        <time>2026-09-03T07:58:38Z</time>
      </trkpt>
      <trkpt lat="43.54083" lon="1.44062">
        <ele>191</ele>
        <time>2026-09-03T07:58:43Z</time>
      </trkpt>
      <trkpt lat="43.54073" lon="1.44065">
        <ele>192</ele>
        <time>2026-09-03T07:58:48Z</time>
      </trkpt>
      <trkpt lat="43.54059" lon="1.44067">
        <ele>193</ele>
        <time>2026-09-03T07:58:53Z</time>
      </trkpt>
      <trkpt lat="43.54051" lon="1.44075">
        <ele>194</ele>
        <time>2026-09-03T07:58:58Z</time>
      </trkpt>
      <trkpt lat="43.54043" lon="1.44081">
        <ele>195</ele>
        <time>2026-09-03T07:59:03Z</time>
      </trkpt>
      <trkpt lat="43.54041" lon="1.44091">
        <ele>195</ele>
        <time>2026-09-03T07:59:08Z</time>
      </trkpt>
      <trkpt lat="43.54037" lon="1.44101">
        <ele>198</ele>
        <time>2026-09-03T07:59:13Z</time>
      </trkpt>
      <trkpt lat="43.54031" lon="1.441">
        <ele>201</ele>
        <time>2026-09-03T07:59:19Z</time>
      </trkpt>
      <trkpt lat="43.54022" lon="1.44103">
        <ele>203</ele>
        <time>2026-09-03T07:59:24Z</time>
      </trkpt>
      <trkpt lat="43.54018" lon="1.44108">
        <ele>204</ele>
        <time>2026-09-03T07:59:30Z</time>
      </trkpt>
      <trkpt lat="43.54006" lon="1.44118">
        <ele>205</ele>
        <time>2026-09-03T07:59:35Z</time>
      </trkpt>
      <trkpt lat="43.53995" lon="1.44132">
        <ele>203</ele>
        <time>2026-09-03T07:59:40Z</time>
      </trkpt>
      <trkpt lat="43.53983" lon="1.44143">
        <ele>202</ele>
        <time>2026-09-03T07:59:45Z</time>
      </trkpt>
      <trkpt lat="43.53969" lon="1.44155">
        <ele>201</ele>
        <time>2026-09-03T07:59:50Z</time>
      </trkpt>
      <trkpt lat="43.53961" lon="1.44167">
        <ele>201</ele>
        <time>2026-09-03T07:59:55Z</time>
      </trkpt>
      <trkpt lat="43.53951" lon="1.44179">
        <ele>200</ele>
        <time>2026-09-03T08:00:00Z</time>
      </trkpt>
      <trkpt lat="43.53939" lon="1.44186">
        <ele>200</ele>
        <time>2026-09-03T08:00:05Z</time>
      </trkpt>
      <trkpt lat="43.53928" lon="1.4419">
        <ele>199</ele>
        <time>2026-09-03T08:00:10Z</time>
      </trkpt>
      <trkpt lat="43.53914" lon="1.44191">
        <ele>198</ele>
        <time>2026-09-03T08:00:15Z</time>
      </trkpt>
      <trkpt lat="43.53905" lon="1.442">
        <ele>197</ele>
        <time>2026-09-03T08:00:20Z</time>
      </trkpt>
      <trkpt lat="43.53895" lon="1.44207">
        <ele>197</ele>
        <time>2026-09-03T08:00:25Z</time>
      </trkpt>
      <trkpt lat="43.53883" lon="1.44218">
        <ele>196</ele>
        <time>2026-09-03T08:00:30Z</time>
      </trkpt>
      <trkpt lat="43.53877" lon="1.44227">
        <ele>195</ele>
        <time>2026-09-03T08:00:35Z</time>
      </trkpt>
      <trkpt lat="43.53875" lon="1.44229">
        <ele>192</ele>
        <time>2026-09-03T08:00:50Z</time>
      </trkpt>
      <trkpt lat="43.53864" lon="1.44208">
        <ele>188</ele>
        <time>2026-09-03T08:00:54Z</time>
      </trkpt>
      <trkpt lat="43.53873" lon="1.44229">
        <ele>178</ele>
        <time>2026-09-03T08:00:58Z</time>
      </trkpt>
      <trkpt lat="43.53875" lon="1.4423">
        <ele>168</ele>
        <time>2026-09-03T08:01:23Z</time>
      </trkpt>
      <trkpt lat="43.5388" lon="1.44209">
        <ele>176</ele>
        <time>2026-09-03T08:01:26Z</time>
      </trkpt>
      <trkpt lat="43.5388" lon="1.44232">
        <ele>180</ele>
        <time>2026-09-03T08:01:31Z</time>
      </trkpt>
      <trkpt lat="43.53879" lon="1.44238">
        <ele>185</ele>
        <time>2026-09-03T08:01:49Z</time>
      </trkpt>
      <trkpt lat="43.53877" lon="1.4424">
        <ele>196</ele>
        <time>2026-09-03T08:02:12Z</time>
      </trkpt>
      <trkpt lat="43.5389" lon="1.44238">
        <ele>207</ele>
        <time>2026-09-03T08:02:15Z</time>
      </trkpt>
      <trkpt lat="43.53892" lon="1.44225">
        <ele>204</ele>
        <time>2026-09-03T08:02:20Z</time>
      </trkpt>
      <trkpt lat="43.53885" lon="1.44228">
        <ele>206</ele>
        <time>2026-09-03T08:02:29Z</time>
      </trkpt>
      <trkpt lat="43.53879" lon="1.4423">
        <ele>207</ele>
        <time>2026-09-03T08:02:34Z</time>
      </trkpt>
      <trkpt lat="43.53879" lon="1.4423">
        <ele>210</ele>
        <time>2026-09-03T08:03:01Z</time>
      </trkpt>
      <trkpt lat="43.53885" lon="1.44241">
        <ele>216</ele>
        <time>2026-09-03T08:03:04Z</time>
      </trkpt>
      <trkpt lat="43.53885" lon="1.44221">
        <ele>217</ele>
        <time>2026-09-03T08:03:08Z</time>
      </trkpt>
      <trkpt lat="43.53841" lon="1.44257">
        <ele>156</ele>
        <time>2026-09-03T08:08:48Z</time>
      </trkpt>
      <trkpt lat="43.53832" lon="1.44262">
        <ele>160</ele>
        <time>2026-09-03T08:08:53Z</time>
      </trkpt>
      <trkpt lat="43.53823" lon="1.44272">
        <ele>164</ele>
        <time>2026-09-03T08:08:58Z</time>
      </trkpt>
      <trkpt lat="43.53811" lon="1.44283">
        <ele>166</ele>
        <time>2026-09-03T08:09:03Z</time>
      </trkpt>
      <trkpt lat="43.53799" lon="1.44293">
        <ele>169</ele>
        <time>2026-09-03T08:09:08Z</time>
      </trkpt>
      <trkpt lat="43.53795" lon="1.4431">
        <ele>171</ele>
        <time>2026-09-03T08:09:13Z</time>
      </trkpt>
      <trkpt lat="43.53785" lon="1.44322">
        <ele>174</ele>
        <time>2026-09-03T08:09:18Z</time>
      </trkpt>
      <trkpt lat="43.53773" lon="1.44331">
        <ele>176</ele>
        <time>2026-09-03T08:09:23Z</time>
      </trkpt>
      <trkpt lat="43.53759" lon="1.44339">
        <ele>178</ele>
        <time>2026-09-03T08:09:28Z</time>
      </trkpt>
      <trkpt lat="43.53743" lon="1.44342">
        <ele>181</ele>
        <time>2026-09-03T08:09:33Z</time>
      </trkpt>
      <trkpt lat="43.53727" lon="1.44347">
        <ele>183</ele>
        <time>2026-09-03T08:09:38Z</time>
      </trkpt>
      <trkpt lat="43.53719" lon="1.44344">
        <ele>185</ele>
        <time>2026-09-03T08:09:43Z</time>
      </trkpt>
      <trkpt lat="43.53715" lon="1.44348">
        <ele>186</ele>
        <time>2026-09-03T08:09:49Z</time>
      </trkpt>
      <trkpt lat="43.53709" lon="1.44357">
        <ele>188</ele>
        <time>2026-09-03T08:09:54Z</time>
      </trkpt>
      <trkpt lat="43.53697" lon="1.44371">
        <ele>189</ele>
        <time>2026-09-03T08:09:59Z</time>
      </trkpt>
      <trkpt lat="43.53682" lon="1.44383">
        <ele>190</ele>
        <time>2026-09-03T08:10:04Z</time>
      </trkpt>
      <trkpt lat="43.53676" lon="1.44392">
        <ele>191</ele>
        <time>2026-09-03T08:10:09Z</time>
      </trkpt>
      <trkpt lat="43.53662" lon="1.44404">
        <ele>192</ele>
        <time>2026-09-03T08:10:14Z</time>
      </trkpt>
      <trkpt lat="43.5365" lon="1.44419">
        <ele>192</ele>
        <time>2026-09-03T08:10:19Z</time>
      </trkpt>
      <trkpt lat="43.53638" lon="1.44433">
        <ele>193</ele>
        <time>2026-09-03T08:10:24Z</time>
      </trkpt>
      <trkpt lat="43.53626" lon="1.44444">
        <ele>194</ele>
        <time>2026-09-03T08:10:29Z</time>
      </trkpt>
      <trkpt lat="43.53618" lon="1.44455">
        <ele>195</ele>
        <time>2026-09-03T08:10:34Z</time>
      </trkpt>
      <trkpt lat="43.53608" lon="1.44466">
        <ele>197</ele>
        <time>2026-09-03T08:10:39Z</time>
      </trkpt>
      <trkpt lat="43.53613" lon="1.44466">
        <ele>197</ele>
        <time>2026-09-03T08:10:47Z</time>
      </trkpt>
      <trkpt lat="43.53614" lon="1.44473">
        <ele>198</ele>
        <time>2026-09-03T08:10:53Z</time>
      </trkpt>
      <trkpt lat="43.53606" lon="1.44483">
        <ele>198</ele>
        <time>2026-09-03T08:10:58Z</time>
      </trkpt>
      <trkpt lat="43.53594" lon="1.44486">
        <ele>198</ele>
        <time>2026-09-03T08:11:03Z</time>
      </trkpt>
      <trkpt lat="43.53577" lon="1.44497">
        <ele>198</ele>
        <time>2026-09-03T08:11:08Z</time>
      </trkpt>
      <trkpt lat="43.53567" lon="1.44509">
        <ele>198</ele>
        <time>2026-09-03T08:11:13Z</time>
      </trkpt>
      <trkpt lat="43.53556" lon="1.44514">
        <ele>199</ele>
        <time>2026-09-03T08:11:18Z</time>
      </trkpt>
      <trkpt lat="43.53542" lon="1.4452">
        <ele>199</ele>
        <time>2026-09-03T08:11:23Z</time>
      </trkpt>
      <trkpt lat="43.53526" lon="1.44529">
        <ele>199</ele>
        <time>2026-09-03T08:11:28Z</time>
      </trkpt>
      <trkpt lat="43.53514" lon="1.44528">
        <ele>199</ele>
        <time>2026-09-03T08:11:33Z</time>
      </trkpt>
      <trkpt lat="43.53502" lon="1.44526">
        <ele>200</ele>
        <time>2026-09-03T08:11:38Z</time>
      </trkpt>
      <trkpt lat="43.53493" lon="1.4453">
        <ele>200</ele>
        <time>2026-09-03T08:11:43Z</time>
      </trkpt>
      <trkpt lat="43.53484" lon="1.44533">
        <ele>201</ele>
        <time>2026-09-03T08:11:48Z</time>
      </trkpt>
      <trkpt lat="43.53472" lon="1.44538">
        <ele>201</ele>
        <time>2026-09-03T08:11:53Z</time>
      </trkpt>
      <trkpt lat="43.5346" lon="1.44539">
        <ele>201</ele>
        <time>2026-09-03T08:11:58Z</time>
      </trkpt>
      <trkpt lat="43.5345" lon="1.4454">
        <ele>201</ele>
        <time>2026-09-03T08:12:03Z</time>
      </trkpt>
      <trkpt lat="43.53443" lon="1.44541">
        <ele>201</ele>
        <time>2026-09-03T08:12:08Z</time>
      </trkpt>
      <trkpt lat="43.53433" lon="1.44547">
        <ele>202</ele>
        <time>2026-09-03T08:12:13Z</time>
      </trkpt>
      <trkpt lat="43.53423" lon="1.44548">
        <ele>203</ele>
        <time>2026-09-03T08:12:18Z</time>
      </trkpt>
      <trkpt lat="43.53414" lon="1.44548">
        <ele>204</ele>
        <time>2026-09-03T08:12:23Z</time>
      </trkpt>
      <trkpt lat="43.53407" lon="1.44552">
        <ele>206</ele>
        <time>2026-09-03T08:12:28Z</time>
      </trkpt>
      <trkpt lat="43.53396" lon="1.44558">
        <ele>207</ele>
        <time>2026-09-03T08:12:33Z</time>
      </trkpt>
      <trkpt lat="43.53382" lon="1.44563">
        <ele>209</ele>
        <time>2026-09-03T08:12:38Z</time>
      </trkpt>
      <trkpt lat="43.53368" lon="1.44564">
        <ele>210</ele>
        <time>2026-09-03T08:12:43Z</time>
      </trkpt>
      <trkpt lat="43.53358" lon="1.44568">
        <ele>212</ele>
        <time>2026-09-03T08:12:48Z</time>
      </trkpt>
      <trkpt lat="43.53355" lon="1.44562">
        <ele>213</ele>
        <time>2026-09-03T08:13:04Z</time>
      </trkpt>
      <trkpt lat="43.53355" lon="1.44555">
        <ele>215</ele>
        <time>2026-09-03T08:13:10Z</time>
      </trkpt>
      <trkpt lat="43.53353" lon="1.44548">
        <ele>216</ele>
        <time>2026-09-03T08:13:17Z</time>
      </trkpt>
      <trkpt lat="43.53348" lon="1.44541">
        <ele>217</ele>
        <time>2026-09-03T08:13:22Z</time>
      </trkpt>
      <trkpt lat="43.53338" lon="1.44537">
        <ele>218</ele>
        <time>2026-09-03T08:13:27Z</time>
      </trkpt>
      <trkpt lat="43.53328" lon="1.44535">
        <ele>218</ele>
        <time>2026-09-03T08:13:32Z</time>
      </trkpt>
      <trkpt lat="43.53317" lon="1.44531">
        <ele>218</ele>
        <time>2026-09-03T08:13:37Z</time>
      </trkpt>
      <trkpt lat="43.53307" lon="1.44526">
        <ele>219</ele>
        <time>2026-09-03T08:13:42Z</time>
      </trkpt>
      <trkpt lat="43.53298" lon="1.44522">
        <ele>221</ele>
        <time>2026-09-03T08:13:47Z</time>
      </trkpt>
      <trkpt lat="43.53293" lon="1.44516">
        <ele>223</ele>
        <time>2026-09-03T08:13:52Z</time>
      </trkpt>
      <trkpt lat="43.53285" lon="1.44514">
        <ele>225</ele>
        <time>2026-09-03T08:13:57Z</time>
      </trkpt>
      <trkpt lat="43.53281" lon="1.44506">
        <ele>227</ele>
        <time>2026-09-03T08:14:02Z</time>
      </trkpt>
      <trkpt lat="43.53276" lon="1.44501">
        <ele>229</ele>
        <time>2026-09-03T08:14:07Z</time>
      </trkpt>
      <trkpt lat="43.5327" lon="1.44492">
        <ele>231</ele>
        <time>2026-09-03T08:14:12Z</time>
      </trkpt>
      <trkpt lat="43.53263" lon="1.44485">
        <ele>232</ele>
        <time>2026-09-03T08:14:17Z</time>
      </trkpt>
      <trkpt lat="43.53256" lon="1.44477">
        <ele>233</ele>
        <time>2026-09-03T08:14:22Z</time>
      </trkpt>
      <trkpt lat="43.53249" lon="1.44474">
        <ele>234</ele>
        <time>2026-09-03T08:14:27Z</time>
      </trkpt>
      <trkpt lat="43.53244" lon="1.44465">
        <ele>235</ele>
        <time>2026-09-03T08:14:32Z</time>
      </trkpt>
      <trkpt lat="43.53236" lon="1.44461">
        <ele>236</ele>
        <time>2026-09-03T08:14:37Z</time>
      </trkpt>
      <trkpt lat="43.53228" lon="1.44459">
        <ele>237</ele>
        <time>2026-09-03T08:14:42Z</time>
      </trkpt>
      <trkpt lat="43.5322" lon="1.44453">
        <ele>238</ele>
        <time>2026-09-03T08:14:47Z</time>
      </trkpt>
      <trkpt lat="43.53212" lon="1.44446">
        <ele>239</ele>
        <time>2026-09-03T08:14:52Z</time>
      </trkpt>
      <trkpt lat="43.53202" lon="1.44439">
        <ele>240</ele>
        <time>2026-09-03T08:14:57Z</time>
      </trkpt>
      <trkpt lat="43.53201" lon="1.44429">
        <ele>240</ele>
        <time>2026-09-03T08:15:02Z</time>
      </trkpt>
      <trkpt lat="43.53198" lon="1.4442">
        <ele>241</ele>
        <time>2026-09-03T08:15:07Z</time>
      </trkpt>
      <trkpt lat="43.53198" lon="1.44412">
        <ele>242</ele>
        <time>2026-09-03T08:15:12Z</time>
      </trkpt>
      <trkpt lat="43.53197" lon="1.44404">
        <ele>242</ele>
        <time>2026-09-03T08:15:17Z</time>
      </trkpt>
      <trkpt lat="43.53193" lon="1.44396">
        <ele>243</ele>
        <time>2026-09-03T08:15:22Z</time>
      </trkpt>
      <trkpt lat="43.53188" lon="1.44385">
        <ele>243</ele>
        <time>2026-09-03T08:15:27Z</time>
      </trkpt>
      <trkpt lat="43.53184" lon="1.44375">
        <ele>243</ele>
        <time>2026-09-03T08:15:32Z</time>
      </trkpt>
      <trkpt lat="43.53181" lon="1.44366">
        <ele>243</ele>
        <time>2026-09-03T08:15:37Z</time>
      </trkpt>
      <trkpt lat="43.53176" lon="1.44362">
        <ele>245</ele>
        <time>2026-09-03T08:15:42Z</time>
      </trkpt>
      <trkpt lat="43.53165" lon="1.44359">
        <ele>248</ele>
        <time>2026-09-03T08:15:47Z</time>
      </trkpt>
      <trkpt lat="43.53159" lon="1.4435">
        <ele>251</ele>
        <time>2026-09-03T08:15:52Z</time>
      </trkpt>
      <trkpt lat="43.53153" lon="1.44334">
        <ele>254</ele>
        <time>2026-09-03T08:15:57Z</time>
      </trkpt>
      <trkpt lat="43.53151" lon="1.44323">
        <ele>256</ele>
        <time>2026-09-03T08:16:02Z</time>
      </trkpt>
      <trkpt lat="43.53143" lon="1.44319">
        <ele>257</ele>
        <time>2026-09-03T08:16:07Z</time>
      </trkpt>
      <trkpt lat="43.53136" lon="1.4432">
        <ele>258</ele>
        <time>2026-09-03T08:16:12Z</time>
      </trkpt>
      <trkpt lat="43.53129" lon="1.44324">
        <ele>259</ele>
        <time>2026-09-03T08:16:17Z</time>
      </trkpt>
      <trkpt lat="43.5312" lon="1.44324">
        <ele>260</ele>
        <time>2026-09-03T08:16:22Z</time>
      </trkpt>
      <trkpt lat="43.53114" lon="1.44325">
        <ele>261</ele>
        <time>2026-09-03T08:16:27Z</time>
      </trkpt>
      <trkpt lat="43.53108" lon="1.44327">
        <ele>263</ele>
        <time>2026-09-03T08:16:32Z</time>
      </trkpt>
      <trkpt lat="43.53103" lon="1.44325">
        <ele>264</ele>
        <time>2026-09-03T08:16:37Z</time>
      </trkpt>
      <trkpt lat="43.53097" lon="1.44325">
        <ele>266</ele>
        <time>2026-09-03T08:16:42Z</time>
      </trkpt>
      <trkpt lat="43.53089" lon="1.44324">
        <ele>267</ele>
        <time>2026-09-03T08:16:47Z</time>
      </trkpt>
      <trkpt lat="43.53082" lon="1.4432">
        <ele>268</ele>
        <time>2026-09-03T08:16:52Z</time>
      </trkpt>
      <trkpt lat="43.53074" lon="1.4432">
        <ele>268</ele>
        <time>2026-09-03T08:16:57Z</time>
      </trkpt>
      <trkpt lat="43.53067" lon="1.44321">
        <ele>268</ele>
        <time>2026-09-03T08:17:02Z</time>
      </trkpt>
      <trkpt lat="43.53059" lon="1.44317">
        <ele>269</ele>
        <time>2026-09-03T08:17:07Z</time>
      </trkpt>
      <trkpt lat="43.53053" lon="1.44318">
        <ele>269</ele>
        <time>2026-09-03T08:17:12Z</time>
      </trkpt>
      <trkpt lat="43.5304" lon="1.44335">
        <ele>269</ele>
        <time>2026-09-03T08:17:17Z</time>
      </trkpt>
      <trkpt lat="43.53027" lon="1.44362">
        <ele>271</ele>
        <time>2026-09-03T08:17:22Z</time>
      </trkpt>
      <trkpt lat="43.53023" lon="1.44383">
        <ele>272</ele>
        <time>2026-09-03T08:17:27Z</time>
      </trkpt>
      <trkpt lat="43.53024" lon="1.44406">
        <ele>274</ele>
        <time>2026-09-03T08:17:32Z</time>
      </trkpt>
      <trkpt lat="43.53026" lon="1.44432">
        <ele>274</ele>
        <time>2026-09-03T08:17:37Z</time>
      </trkpt>
      <trkpt lat="43.53025" lon="1.44456">
        <ele>275</ele>
        <time>2026-09-03T08:17:42Z</time>
      </trkpt>
      <trkpt lat="43.53021" lon="1.44476">
        <ele>274</ele>
        <time>2026-09-03T08:17:47Z</time>
      </trkpt>
      <trkpt lat="43.53015" lon="1.44493">
        <ele>272</ele>
        <time>2026-09-03T08:17:52Z</time>
      </trkpt>
      <trkpt lat="43.53009" lon="1.44504">
        <ele>271</ele>
        <time>2026-09-03T08:17:57Z</time>
      </trkpt>
      <trkpt lat="43.53003" lon="1.4452">
        <ele>271</ele>
        <time>2026-09-03T08:18:02Z</time>
      </trkpt>
      <trkpt lat="43.52995" lon="1.44533">
        <ele>270</ele>
        <time>2026-09-03T08:18:07Z</time>
      </trkpt>
      <trkpt lat="43.52986" lon="1.44543">
        <ele>269</ele>
        <time>2026-09-03T08:18:12Z</time>
      </trkpt>
      <trkpt lat="43.52976" lon="1.44553">
        <ele>269</ele>
        <time>2026-09-03T08:18:17Z</time>
      </trkpt>
      <trkpt lat="43.52967" lon="1.4456">
        <ele>268</ele>
        <time>2026-09-03T08:18:22Z</time>
      </trkpt>
      <trkpt lat="43.52958" lon="1.4457">
        <ele>268</ele>
        <time>2026-09-03T08:18:27Z</time>
      </trkpt>
      <trkpt lat="43.52948" lon="1.44576">
        <ele>267</ele>
        <time>2026-09-03T08:18:32Z</time>
      </trkpt>
      <trkpt lat="43.52938" lon="1.44582">
        <ele>266</ele>
        <time>2026-09-03T08:18:37Z</time>
      </trkpt>
      <trkpt lat="43.52929" lon="1.44587">
        <ele>266</ele>
        <time>2026-09-03T08:18:42Z</time>
      </trkpt>
      <trkpt lat="43.52919" lon="1.44591">
        <ele>266</ele>
        <time>2026-09-03T08:18:47Z</time>
      </trkpt>
      <trkpt lat="43.52911" lon="1.44594">
        <ele>266</ele>
        <time>2026-09-03T08:18:52Z</time>
      </trkpt>
      <trkpt lat="43.52901" lon="1.44592">
        <ele>268</ele>
        <time>2026-09-03T08:18:57Z</time>
      </trkpt>
      <trkpt lat="43.52889" lon="1.44588">
        <ele>270</ele>
        <time>2026-09-03T08:19:02Z</time>
      </trkpt>
      <trkpt lat="43.52881" lon="1.44583">
        <ele>272</ele>
        <time>2026-09-03T08:19:07Z</time>
      </trkpt>
      <trkpt lat="43.52874" lon="1.44583">
        <ele>273</ele>
        <time>2026-09-03T08:19:12Z</time>
      </trkpt>
      <trkpt lat="43.52868" lon="1.4458">
        <ele>275</ele>
        <time>2026-09-03T08:19:17Z</time>
      </trkpt>
      <trkpt lat="43.52862" lon="1.44578">
        <ele>276</ele>
        <time>2026-09-03T08:19:22Z</time>
      </trkpt>
      <trkpt lat="43.52856" lon="1.44576">
        <ele>277</ele>
        <time>2026-09-03T08:19:27Z</time>
      </trkpt>
      <trkpt lat="43.52849" lon="1.44576">
        <ele>278</ele>
        <time>2026-09-03T08:19:32Z</time>
      </trkpt>
      <trkpt lat="43.52842" lon="1.44575">
        <ele>278</ele>
        <time>2026-09-03T08:19:37Z</time>
      </trkpt>
      <trkpt lat="43.52834" lon="1.44573">
        <ele>278</ele>
        <time>2026-09-03T08:19:42Z</time>
      </trkpt>
      <trkpt lat="43.52828" lon="1.44572">
        <ele>278</ele>
        <time>2026-09-03T08:19:47Z</time>
      </trkpt>
      <trkpt lat="43.52821" lon="1.4457">
        <ele>278</ele>
        <time>2026-09-03T08:19:52Z</time>
      </trkpt>
      <trkpt lat="43.52814" lon="1.44568">
        <ele>279</ele>
        <time>2026-09-03T08:19:57Z</time>
      </trkpt>
      <trkpt lat="43.52807" lon="1.44566">
        <ele>280</ele>
        <time>2026-09-03T08:20:02Z</time>
      </trkpt>
      <trkpt lat="43.528" lon="1.44564">
        <ele>281</ele>
        <time>2026-09-03T08:20:07Z</time>
      </trkpt>
      <trkpt lat="43.52795" lon="1.44561">
        <ele>282</ele>
        <time>2026-09-03T08:20:12Z</time>
      </trkpt>
      <trkpt lat="43.5279" lon="1.44559">
        <ele>284</ele>
        <time>2026-09-03T08:20:17Z</time>
      </trkpt>
      <trkpt lat="43.52785" lon="1.44556">
        <ele>285</ele>
        <time>2026-09-03T08:20:22Z</time>
      </trkpt>
      <trkpt lat="43.52781" lon="1.44552">
        <ele>285</ele>
        <time>2026-09-03T08:20:27Z</time>
      </trkpt>
      <trkpt lat="43.52776" lon="1.44547">
        <ele>285</ele>
        <time>2026-09-03T08:20:32Z</time>
      </trkpt>
      <trkpt lat="43.52771" lon="1.44545">
        <ele>285</ele>
        <time>2026-09-03T08:20:37Z</time>
      </trkpt>
      <trkpt lat="43.52767" lon="1.4454">
        <ele>285</ele>
        <time>2026-09-03T08:20:42Z</time>
      </trkpt>
      <trkpt lat="43.52764" lon="1.44531">
        <ele>285</ele>
        <time>2026-09-03T08:20:47Z</time>
      </trkpt>
      <trkpt lat="43.52759" lon="1.44525">
        <ele>285</ele>
        <time>2026-09-03T08:20:52Z</time>
      </trkpt>
      <trkpt lat="43.52753" lon="1.44523">
        <ele>287</ele>
        <time>2026-09-03T08:20:57Z</time>
      </trkpt>
      <trkpt lat="43.52743" lon="1.4452">
        <ele>288</ele>
        <time>2026-09-03T08:21:02Z</time>
      </trkpt>
      <trkpt lat="43.52735" lon="1.44516">
        <ele>290</ele>
        <time>2026-09-03T08:21:07Z</time>
      </trkpt>
      <trkpt lat="43.52726" lon="1.44511">
        <ele>293</ele>
        <time>2026-09-03T08:21:12Z</time>
      </trkpt>
      <trkpt lat="43.52718" lon="1.44512">
        <ele>295</ele>
        <time>2026-09-03T08:21:17Z</time>
      </trkpt>
      <trkpt lat="43.52706" lon="1.44519">
        <ele>297</ele>
        <time>2026-09-03T08:21:22Z</time>
      </trkpt>
      <trkpt lat="43.52694" lon="1.44532">
        <ele>299</ele>
        <time>2026-09-03T08:21:27Z</time>
      </trkpt>
      <trkpt lat="43.52683" lon="1.44549">
        <ele>301</ele>
        <time>2026-09-03T08:21:32Z</time>
      </trkpt>
      <trkpt lat="43.5267" lon="1.44566">
        <ele>303</ele>
        <time>2026-09-03T08:21:37Z</time>
      </trkpt>
      <trkpt lat="43.52655" lon="1.44582">
        <ele>305</ele>
        <time>2026-09-03T08:21:42Z</time>
      </trkpt>
      <trkpt lat="43.52634" lon="1.44587">
        <ele>306</ele>
        <time>2026-09-03T08:21:47Z</time>
      </trkpt>
      <trkpt lat="43.52609" lon="1.44574">
        <ele>307</ele>
        <time>2026-09-03T08:21:52Z</time>
      </trkpt>
      <trkpt lat="43.52613" lon="1.44584">
        <ele>307</ele>
        <time>2026-09-03T08:21:57Z</time>
      </trkpt>
      <trkpt lat="43.52628" lon="1.44586">
        <ele>307</ele>
        <time>2026-09-03T08:22:02Z</time>
      </trkpt>
      <trkpt lat="43.52636" lon="1.44603">
        <ele>306</ele>
        <time>2026-09-03T08:22:07Z</time>
      </trkpt>
      <trkpt lat="43.5263" lon="1.44622">
        <ele>305</ele>
        <time>2026-09-03T08:22:12Z</time>
      </trkpt>
      <trkpt lat="43.52633" lon="1.4464">
        <ele>304</ele>
        <time>2026-09-03T08:22:17Z</time>
      </trkpt>
      <trkpt lat="43.52638" lon="1.44648">
        <ele>303</ele>
        <time>2026-09-03T08:22:22Z</time>
      </trkpt>
      <trkpt lat="43.52638" lon="1.44648">
        <ele>302</ele>
        <time>2026-09-03T08:22:40Z</time>
      </trkpt>
      <trkpt lat="43.52641" lon="1.44634">
        <ele>301</ele>
        <time>2026-09-03T08:22:42Z</time>
      </trkpt>
      <trkpt lat="43.52631" lon="1.4465">
        <ele>299</ele>
        <time>2026-09-03T08:22:47Z</time>
      </trkpt>
      <trkpt lat="43.52634" lon="1.44658">
        <ele>297</ele>
        <time>2026-09-03T08:23:03Z</time>
      </trkpt>
      <trkpt lat="43.52641" lon="1.44676">
        <ele>295</ele>
        <time>2026-09-03T08:23:08Z</time>
      </trkpt>
      <trkpt lat="43.52642" lon="1.44708">
        <ele>294</ele>
        <time>2026-09-03T08:23:13Z</time>
      </trkpt>
      <trkpt lat="43.52638" lon="1.44751">
        <ele>293</ele>
        <time>2026-09-03T08:23:18Z</time>
      </trkpt>
      <trkpt lat="43.52653" lon="1.44806">
        <ele>293</ele>
        <time>2026-09-03T08:23:23Z</time>
      </trkpt>
      <trkpt lat="43.52668" lon="1.44854">
        <ele>292</ele>
        <time>2026-09-03T08:23:28Z</time>
      </trkpt>
      <trkpt lat="43.5268" lon="1.44894">
        <ele>291</ele>
        <time>2026-09-03T08:23:33Z</time>
      </trkpt>
      <trkpt lat="43.52693" lon="1.4493">
        <ele>289</ele>
        <time>2026-09-03T08:23:38Z</time>
      </trkpt>
      <trkpt lat="43.52705" lon="1.44971">
        <ele>286</ele>
        <time>2026-09-03T08:23:43Z</time>
      </trkpt>
      <trkpt lat="43.52719" lon="1.45004">
        <ele>282</ele>
        <time>2026-09-03T08:23:48Z</time>
      </trkpt>
      <trkpt lat="43.52726" lon="1.45034">
        <ele>278</ele>
        <time>2026-09-03T08:23:53Z</time>
      </trkpt>
      <trkpt lat="43.52714" lon="1.45043">
        <ele>275</ele>
        <time>2026-09-03T08:23:58Z</time>
      </trkpt>
      <trkpt lat="43.52704" lon="1.45042">
        <ele>272</ele>
        <time>2026-09-03T08:24:03Z</time>
      </trkpt>
      <trkpt lat="43.52694" lon="1.4504">
        <ele>270</ele>
        <time>2026-09-03T08:24:08Z</time>
      </trkpt>
      <trkpt lat="43.52684" lon="1.45045">
        <ele>269</ele>
        <time>2026-09-03T08:24:13Z</time>
      </trkpt>
      <trkpt lat="43.52679" lon="1.4505">
        <ele>268</ele>
        <time>2026-09-03T08:24:35Z</time>
      </trkpt>
      <trkpt lat="43.52671" lon="1.45051">
        <ele>267</ele>
        <time>2026-09-03T08:24:40Z</time>
      </trkpt>
      <trkpt lat="43.52663" lon="1.45055">
        <ele>267</ele>
        <time>2026-09-03T08:24:45Z</time>
      </trkpt>
      <trkpt lat="43.52655" lon="1.45058">
        <ele>267</ele>
        <time>2026-09-03T08:24:50Z</time>
      </trkpt>
      <trkpt lat="43.52641" lon="1.45066">
        <ele>268</ele>
        <time>2026-09-03T08:24:55Z</time>
      </trkpt>
      <trkpt lat="43.52631" lon="1.45072">
        <ele>269</ele>
        <time>2026-09-03T08:25:00Z</time>
      </trkpt>
      <trkpt lat="43.52622" lon="1.45078">
        <ele>271</ele>
        <time>2026-09-03T08:25:05Z</time>
      </trkpt>
      <trkpt lat="43.52618" lon="1.45084">
        <ele>271</ele>
        <time>2026-09-03T08:25:10Z</time>
      </trkpt>
      <trkpt lat="43.52608" lon="1.45096">
        <ele>272</ele>
        <time>2026-09-03T08:25:15Z</time>
      </trkpt>
      <trkpt lat="43.52595" lon="1.45112">
        <ele>270</ele>
        <time>2026-09-03T08:25:20Z</time>
      </trkpt>
      <trkpt lat="43.52581" lon="1.45123">
        <ele>268</ele>
        <time>2026-09-03T08:25:25Z</time>
      </trkpt>
      <trkpt lat="43.52569" lon="1.45136">
        <ele>266</ele>
        <time>2026-09-03T08:25:30Z</time>
      </trkpt>
      <trkpt lat="43.52557" lon="1.45147">
        <ele>265</ele>
        <time>2026-09-03T08:25:35Z</time>
      </trkpt>
      <trkpt lat="43.52548" lon="1.45159">
        <ele>263</ele>
        <time>2026-09-03T08:25:40Z</time>
      </trkpt>
      <trkpt lat="43.52539" lon="1.45171">
        <ele>261</ele>
        <time>2026-09-03T08:25:45Z</time>
      </trkpt>
      <trkpt lat="43.52531" lon="1.45182">
        <ele>260</ele>
        <time>2026-09-03T08:25:50Z</time>
      </trkpt>
      <trkpt lat="43.5252" lon="1.45197">
        <ele>259</ele>
        <time>2026-09-03T08:25:55Z</time>
      </trkpt>
      <trkpt lat="43.52502" lon="1.45202">
        <ele>258</ele>
        <time>2026-09-03T08:26:00Z</time>
      </trkpt>
      <trkpt lat="43.52494" lon="1.45202">
        <ele>257</ele>
        <time>2026-09-03T08:26:05Z</time>
      </trkpt>
      <trkpt lat="43.52487" lon="1.45205">
        <ele>256</ele>
        <time>2026-09-03T08:26:10Z</time>
      </trkpt>
      <trkpt lat="43.52476" lon="1.45207">
        <ele>254</ele>
        <time>2026-09-03T08:26:15Z</time>
      </trkpt>
      <trkpt lat="43.52465" lon="1.45212">
        <ele>254</ele>
        <time>2026-09-03T08:26:20Z</time>
      </trkpt>
      <trkpt lat="43.52454" lon="1.45212">
        <ele>254</ele>
        <time>2026-09-03T08:26:25Z</time>
      </trkpt>
      <trkpt lat="43.52442" lon="1.45214">
        <ele>255</ele>
        <time>2026-09-03T08:26:30Z</time>
      </trkpt>
      <trkpt lat="43.5243" lon="1.45216">
        <ele>255</ele>
        <time>2026-09-03T08:26:35Z</time>
      </trkpt>
      <trkpt lat="43.52418" lon="1.45212">
        <ele>256</ele>
        <time>2026-09-03T08:26:40Z</time>
      </trkpt>
      <trkpt lat="43.52409" lon="1.45212">
        <ele>257</ele>
        <time>2026-09-03T08:26:45Z</time>
      </trkpt>
      <trkpt lat="43.52401" lon="1.45215">
        <ele>257</ele>
        <time>2026-09-03T08:26:50Z</time>
      </trkpt>
      <trkpt lat="43.52392" lon="1.45223">
        <ele>258</ele>
        <time>2026-09-03T08:26:55Z</time>
      </trkpt>
      <trkpt lat="43.52385" lon="1.45222">
        <ele>259</ele>
        <time>2026-09-03T08:27:00Z</time>
      </trkpt>
      <trkpt lat="43.52383" lon="1.45221">
        <ele>259</ele>
        <time>2026-09-03T08:27:16Z</time>
      </trkpt>
      <trkpt lat="43.52381" lon="1.45222">
        <ele>261</ele>
        <time>2026-09-03T08:27:19Z</time>
      </trkpt>
      <trkpt lat="43.52377" lon="1.45222">
        <ele>263</ele>
        <time>2026-09-03T08:27:33Z</time>
      </trkpt>
      <trkpt lat="43.52387" lon="1.45232">
        <ele>270</ele>
        <time>2026-09-03T08:27:35Z</time>
      </trkpt>
      <trkpt lat="43.52375" lon="1.45224">
        <ele>272</ele>
        <time>2026-09-03T08:27:40Z</time>
      </trkpt>
      <trkpt lat="43.52375" lon="1.45224">
        <ele>274</ele>
        <time>2026-09-03T08:28:06Z</time>
      </trkpt>
      <trkpt lat="43.52413" lon="1.45243">
        <ele>269</ele>
        <time>2026-09-03T08:28:09Z</time>
      </trkpt>
      <trkpt lat="43.52386" lon="1.45224">
        <ele>271</ele>
        <time>2026-09-03T08:28:13Z</time>
      </trkpt>
      <trkpt lat="43.52384" lon="1.45223">
        <ele>267</ele>
        <time>2026-09-03T08:28:38Z</time>
      </trkpt>
      <trkpt lat="43.52376" lon="1.45219">
        <ele>264</ele>
        <time>2026-09-03T08:28:42Z</time>
      </trkpt>
      <trkpt lat="43.52373" lon="1.45228">
        <ele>260</ele>
        <time>2026-09-03T08:28:46Z</time>
      </trkpt>
      <trkpt lat="43.52377" lon="1.45222">
        <ele>263</ele>
        <time>2026-09-03T08:29:00Z</time>
      </trkpt>
      <trkpt lat="43.52372" lon="1.45223">
        <ele>259</ele>
        <time>2026-09-03T08:29:25Z</time>
      </trkpt>
      <trkpt lat="43.5237" lon="1.45228">
        <ele>261</ele>
        <time>2026-09-03T08:29:52Z</time>
      </trkpt>
      <trkpt lat="43.5237" lon="1.45228">
        <ele>263</ele>
        <time>2026-09-03T08:30:18Z</time>
      </trkpt>
      <trkpt lat="43.52377" lon="1.45223">
        <ele>268</ele>
        <time>2026-09-03T08:30:21Z</time>
      </trkpt>
      <trkpt lat="43.52373" lon="1.45226">
        <ele>268</ele>
        <time>2026-09-03T08:30:51Z</time>
      </trkpt>
      <trkpt lat="43.52367" lon="1.45243">
        <ele>273</ele>
        <time>2026-09-03T08:30:55Z</time>
      </trkpt>
      <trkpt lat="43.5237" lon="1.45218">
        <ele>274</ele>
        <time>2026-09-03T08:30:59Z</time>
      </trkpt>
      <trkpt lat="43.5237" lon="1.45218">
        <ele>275</ele>
        <time>2026-09-03T08:31:24Z</time>
      </trkpt>
      <trkpt lat="43.5238" lon="1.45208">
        <ele>275</ele>
        <time>2026-09-03T08:31:26Z</time>
      </trkpt>
      <trkpt lat="43.52364" lon="1.45224">
        <ele>276</ele>
        <time>2026-09-03T08:31:31Z</time>
      </trkpt>
      <trkpt lat="43.52364" lon="1.45224">
        <ele>270</ele>
        <time>2026-09-03T08:31:57Z</time>
      </trkpt>
      <trkpt lat="43.52371" lon="1.45221">
        <ele>270</ele>
        <time>2026-09-03T08:31:59Z</time>
      </trkpt>
      <trkpt lat="43.5237" lon="1.45212">
        <ele>269</ele>
        <time>2026-09-03T08:32:03Z</time>
      </trkpt>
      <trkpt lat="43.52366" lon="1.45214">
        <ele>264</ele>
        <time>2026-09-03T08:32:30Z</time>
      </trkpt>
      <trkpt lat="43.52372" lon="1.45223">
        <ele>261</ele>
        <time>2026-09-03T08:32:33Z</time>
      </trkpt>
      <trkpt lat="43.52359" lon="1.4522">
        <ele>256</ele>
        <time>2026-09-03T08:32:37Z</time>
      </trkpt>
      <trkpt lat="43.52361" lon="1.4522">
        <ele>251</ele>
        <time>2026-09-03T08:33:03Z</time>
      </trkpt>
      <trkpt lat="43.52387" lon="1.45204">
        <ele>252</ele>
        <time>2026-09-03T08:33:06Z</time>
      </trkpt>
      <trkpt lat="43.5238" lon="1.45211">
        <ele>254</ele>
        <time>2026-09-03T08:33:11Z</time>
      </trkpt>
      <trkpt lat="43.52321" lon="1.45205">
        <ele>272</ele>
        <time>2026-09-03T08:40:17Z</time>
      </trkpt>
      <trkpt lat="43.5231" lon="1.45205">
        <ele>270</ele>
        <time>2026-09-03T08:40:22Z</time>
      </trkpt>
      <trkpt lat="43.52302" lon="1.45217">
        <ele>270</ele>
        <time>2026-09-03T08:40:27Z</time>
      </trkpt>
      <trkpt lat="43.5229" lon="1.45221">
        <ele>270</ele>
        <time>2026-09-03T08:40:32Z</time>
      </trkpt>
      <trkpt lat="43.52279" lon="1.4523">
        <ele>270</ele>
        <time>2026-09-03T08:40:37Z</time>
      </trkpt>
      <trkpt lat="43.52268" lon="1.45235">
        <ele>269</ele>
        <time>2026-09-03T08:40:42Z</time>
      </trkpt>
      <trkpt lat="43.52258" lon="1.45242">
        <ele>269</ele>
        <time>2026-09-03T08:40:47Z</time>
      </trkpt>
      <trkpt lat="43.52248" lon="1.45248">
        <ele>268</ele>
        <time>2026-09-03T08:40:52Z</time>
      </trkpt>
      <trkpt lat="43.52238" lon="1.45254">
        <ele>268</ele>
        <time>2026-09-03T08:40:57Z</time>
      </trkpt>
      <trkpt lat="43.52225" lon="1.45262">
        <ele>267</ele>
        <time>2026-09-03T08:41:02Z</time>
      </trkpt>
      <trkpt lat="43.52216" lon="1.45272">
        <ele>267</ele>
        <time>2026-09-03T08:41:07Z</time>
      </trkpt>
      <trkpt lat="43.52206" lon="1.45274">
        <ele>267</ele>
        <time>2026-09-03T08:41:12Z</time>
      </trkpt>
      <trkpt lat="43.52194" lon="1.45285">
        <ele>267</ele>
        <time>2026-09-03T08:41:17Z</time>
      </trkpt>
      <trkpt lat="43.52185" lon="1.45292">
        <ele>267</ele>
        <time>2026-09-03T08:41:22Z</time>
      </trkpt>
      <trkpt lat="43.52181" lon="1.45295">
        <ele>267</ele>
        <time>2026-09-03T08:41:29Z</time>
      </trkpt>
      <trkpt lat="43.52177" lon="1.45302">
        <ele>268</ele>
        <time>2026-09-03T08:41:34Z</time>
      </trkpt>
      <trkpt lat="43.52173" lon="1.45314">
        <ele>268</ele>
        <time>2026-09-03T08:41:39Z</time>
      </trkpt>
      <trkpt lat="43.52172" lon="1.45326">
        <ele>269</ele>
        <time>2026-09-03T08:41:44Z</time>
      </trkpt>
      <trkpt lat="43.52171" lon="1.45339">
        <ele>269</ele>
        <time>2026-09-03T08:41:49Z</time>
      </trkpt>
      <trkpt lat="43.52174" lon="1.45348">
        <ele>269</ele>
        <time>2026-09-03T08:41:54Z</time>
      </trkpt>
      <trkpt lat="43.52167" lon="1.45356">
        <ele>268</ele>
        <time>2026-09-03T08:41:59Z</time>
      </trkpt>
      <trkpt lat="43.52161" lon="1.45363">
        <ele>268</ele>
        <time>2026-09-03T08:42:04Z</time>
      </trkpt>
      <trkpt lat="43.5215" lon="1.4537">
        <ele>268</ele>
        <time>2026-09-03T08:42:09Z</time>
      </trkpt>
      <trkpt lat="43.52146" lon="1.45382">
        <ele>269</ele>
        <time>2026-09-03T08:42:14Z</time>
      </trkpt>
      <trkpt lat="43.52139" lon="1.4539">
        <ele>269</ele>
        <time>2026-09-03T08:42:19Z</time>
      </trkpt>
      <trkpt lat="43.52126" lon="1.45402">
        <ele>269</ele>
        <time>2026-09-03T08:42:24Z</time>
      </trkpt>
      <trkpt lat="43.52113" lon="1.45414">
        <ele>269</ele>
        <time>2026-09-03T08:42:29Z</time>
      </trkpt>
      <trkpt lat="43.52105" lon="1.45421">
        <ele>269</ele>
        <time>2026-09-03T08:42:34Z</time>
      </trkpt>
      <trkpt lat="43.52094" lon="1.45431">
        <ele>269</ele>
        <time>2026-09-03T08:42:39Z</time>
      </trkpt>
      <trkpt lat="43.52082" lon="1.4544">
        <ele>269</ele>
        <time>2026-09-03T08:42:44Z</time>
      </trkpt>
      <trkpt lat="43.52066" lon="1.45447">
        <ele>269</ele>
        <time>2026-09-03T08:42:49Z</time>
      </trkpt>
      <trkpt lat="43.52047" lon="1.45441">
        <ele>269</ele>
        <time>2026-09-03T08:42:54Z</time>
      </trkpt>
      <trkpt lat="43.52033" lon="1.45432">
        <ele>269</ele>
        <time>2026-09-03T08:42:59Z</time>
      </trkpt>
      <trkpt lat="43.52018" lon="1.45428">
        <ele>268</ele>
        <time>2026-09-03T08:43:04Z</time>
      </trkpt>
      <trkpt lat="43.5201" lon="1.45421">
        <ele>269</ele>
        <time>2026-09-03T08:43:09Z</time>
      </trkpt>
      <trkpt lat="43.52002" lon="1.45412">
        <ele>269</ele>
        <time>2026-09-03T08:43:14Z</time>
      </trkpt>
      <trkpt lat="43.51997" lon="1.45402">
        <ele>270</ele>
        <time>2026-09-03T08:43:19Z</time>
      </trkpt>
      <trkpt lat="43.52004" lon="1.45395">
        <ele>271</ele>
        <time>2026-09-03T08:43:24Z</time>
      </trkpt>
      <trkpt lat="43.52008" lon="1.45386">
        <ele>272</ele>
        <time>2026-09-03T08:43:29Z</time>
      </trkpt>
      <trkpt lat="43.52016" lon="1.45379">
        <ele>273</ele>
        <time>2026-09-03T08:43:34Z</time>
      </trkpt>
      <trkpt lat="43.5202" lon="1.4537">
        <ele>273</ele>
        <time>2026-09-03T08:43:39Z</time>
      </trkpt>
      <trkpt lat="43.52021" lon="1.45363">
        <ele>273</ele>
        <time>2026-09-03T08:43:44Z</time>
      </trkpt>
      <trkpt lat="43.52025" lon="1.45353">
        <ele>273</ele>
        <time>2026-09-03T08:43:49Z</time>
      </trkpt>
      <trkpt lat="43.52027" lon="1.45345">
        <ele>274</ele>
        <time>2026-09-03T08:43:54Z</time>
      </trkpt>
      <trkpt lat="43.52028" lon="1.45334">
        <ele>274</ele>
        <time>2026-09-03T08:43:59Z</time>
      </trkpt>
      <trkpt lat="43.52033" lon="1.45322">
        <ele>275</ele>
        <time>2026-09-03T08:44:04Z</time>
      </trkpt>
      <trkpt lat="43.52037" lon="1.45311">
        <ele>275</ele>
        <time>2026-09-03T08:44:09Z</time>
      </trkpt>
      <trkpt lat="43.52036" lon="1.45304">
        <ele>276</ele>
        <time>2026-09-03T08:44:15Z</time>
      </trkpt>
      <trkpt lat="43.52036" lon="1.45298">
        <ele>277</ele>
        <time>2026-09-03T08:44:20Z</time>
      </trkpt>
      <trkpt lat="43.52037" lon="1.45288">
        <ele>278</ele>
        <time>2026-09-03T08:44:25Z</time>
      </trkpt>
      <trkpt lat="43.52037" lon="1.4528">
        <ele>279</ele>
        <time>2026-09-03T08:44:30Z</time>
      </trkpt>
      <trkpt lat="43.52035" lon="1.45273">
        <ele>281</ele>
        <time>2026-09-03T08:44:36Z</time>
      </trkpt>
      <trkpt lat="43.52032" lon="1.45266">
        <ele>283</ele>
        <time>2026-09-03T08:44:41Z</time>
      </trkpt>
      <trkpt lat="43.52029" lon="1.45258">
        <ele>284</ele>
        <time>2026-09-03T08:44:46Z</time>
      </trkpt>
      <trkpt lat="43.52029" lon="1.4525">
        <ele>286</ele>
        <time>2026-09-03T08:44:51Z</time>
      </trkpt>
      <trkpt lat="43.52031" lon="1.45239">
        <ele>288</ele>
        <time>2026-09-03T08:44:56Z</time>
      </trkpt>
      <trkpt lat="43.52028" lon="1.45232">
        <ele>288</ele>
        <time>2026-09-03T08:45:01Z</time>
      </trkpt>
      <trkpt lat="43.52024" lon="1.45228">
        <ele>289</ele>
        <time>2026-09-03T08:45:06Z</time>
      </trkpt>
      <trkpt lat="43.52022" lon="1.4522">
        <ele>290</ele>
        <time>2026-09-03T08:45:11Z</time>
      </trkpt>
      <trkpt lat="43.52021" lon="1.45214">
        <ele>291</ele>
        <time>2026-09-03T08:45:16Z</time>
      </trkpt>
      <trkpt lat="43.52017" lon="1.45209">
        <ele>292</ele>
        <time>2026-09-03T08:45:21Z</time>
      </trkpt>
      <trkpt lat="43.52013" lon="1.45202">
        <ele>294</ele>
        <time>2026-09-03T08:45:26Z</time>
      </trkpt>
      <trkpt lat="43.52006" lon="1.45194">
        <ele>296</ele>
        <time>2026-09-03T08:45:31Z</time>
      </trkpt>
      <trkpt lat="43.52" lon="1.45196">
        <ele>297</ele>
        <time>2026-09-03T08:45:36Z</time>
      </trkpt>
      <trkpt lat="43.51994" lon="1.45202">
        <ele>298</ele>
        <time>2026-09-03T08:45:41Z</time>
      </trkpt>
      <trkpt lat="43.51984" lon="1.45207">
        <ele>300</ele>
        <time>2026-09-03T08:45:46Z</time>
      </trkpt>
      <trkpt lat="43.51975" lon="1.45208">
        <ele>302</ele>
        <time>2026-09-03T08:45:51Z</time>
      </trkpt>
      <trkpt lat="43.51965" lon="1.45211">
        <ele>304</ele>
        <time>2026-09-03T08:45:56Z</time>
      </trkpt>
      <trkpt lat="43.51954" lon="1.45215">
        <ele>307</ele>
        <time>2026-09-03T08:46:01Z</time>
      </trkpt>
      <trkpt lat="43.51942" lon="1.45221">
        <ele>309</ele>
        <time>2026-09-03T08:46:06Z</time>
      </trkpt>
      <trkpt lat="43.51931" lon="1.45225">
        <ele>310</ele>
        <time>2026-09-03T08:46:11Z</time>
      </trkpt>
      <trkpt lat="43.51918" lon="1.4523">
        <ele>311</ele>
        <time>2026-09-03T08:46:16Z</time>
      </trkpt>
      <trkpt lat="43.51908" lon="1.45236">
        <ele>312</ele>
        <time>2026-09-03T08:46:21Z</time>
      </trkpt>
      <trkpt lat="43.51905" lon="1.45239">
        <ele>311</ele>
        <time>2026-09-03T08:46:41Z</time>
      </trkpt>
      <trkpt lat="43.51902" lon="1.45237">
        <ele>311</ele>
        <time>2026-09-03T08:46:44Z</time>
      </trkpt>
      <trkpt lat="43.51898" lon="1.45241">
        <ele>306</ele>
        <time>2026-09-03T08:46:50Z</time>
      </trkpt>
      <trkpt lat="43.51898" lon="1.45241">
        <ele>301</ele>
        <time>2026-09-03T08:47:11Z</time>
      </trkpt>
      <trkpt lat="43.51909" lon="1.45241">
        <ele>299</ele>
        <time>2026-09-03T08:47:13Z</time>
      </trkpt>
      <trkpt lat="43.51889" lon="1.45258">
        <ele>297</ele>
        <time>2026-09-03T08:47:17Z</time>
      </trkpt>
      <trkpt lat="43.51894" lon="1.45253">
        <ele>296</ele>
        <time>2026-09-03T08:47:39Z</time>
      </trkpt>
      <trkpt lat="43.51896" lon="1.4525">
        <ele>299</ele>
        <time>2026-09-03T08:47:56Z</time>
      </trkpt>
      <trkpt lat="43.51889" lon="1.45247">
        <ele>304</ele>
        <time>2026-09-03T08:47:58Z</time>
      </trkpt>
      <trkpt lat="43.51899" lon="1.45235">
        <ele>306</ele>
        <time>2026-09-03T08:48:02Z</time>
      </trkpt>
      <trkpt lat="43.51904" lon="1.45234">
        <ele>306</ele>
        <time>2026-09-03T08:48:16Z</time>
      </trkpt>
      <trkpt lat="43.51915" lon="1.45225">
        <ele>307</ele>
        <time>2026-09-03T08:48:21Z</time>
      </trkpt>
      <trkpt lat="43.51922" lon="1.45221">
        <ele>307</ele>
        <time>2026-09-03T08:48:26Z</time>
      </trkpt>
      <trkpt lat="43.51921" lon="1.45227">
        <ele>306</ele>
        <time>2026-09-03T08:48:35Z</time>
      </trkpt>
      <trkpt lat="43.51908" lon="1.45235">
        <ele>305</ele>
        <time>2026-09-03T08:48:40Z</time>
      </trkpt>
      <trkpt lat="43.51893" lon="1.45245">
        <ele>305</ele>
        <time>2026-09-03T08:48:45Z</time>
      </trkpt>
      <trkpt lat="43.51879" lon="1.45254">
        <ele>305</ele>
        <time>2026-09-03T08:48:50Z</time>
      </trkpt>
      <trkpt lat="43.51857" lon="1.45267">
        <ele>306</ele>
        <time>2026-09-03T08:48:55Z</time>
      </trkpt>
      <trkpt lat="43.5184" lon="1.45277">
        <ele>306</ele>
        <time>2026-09-03T08:49:00Z</time>
      </trkpt>
      <trkpt lat="43.51825" lon="1.45295">
        <ele>307</ele>
        <time>2026-09-03T08:49:05Z</time>
      </trkpt>
      <trkpt lat="43.51808" lon="1.45309">
        <ele>308</ele>
        <time>2026-09-03T08:49:10Z</time>
      </trkpt>
      <trkpt lat="43.51792" lon="1.45324">
        <ele>310</ele>
        <time>2026-09-03T08:49:15Z</time>
      </trkpt>
      <trkpt lat="43.51778" lon="1.45336">
        <ele>311</ele>
        <time>2026-09-03T08:49:20Z</time>
      </trkpt>
      <trkpt lat="43.51769" lon="1.45334">
        <ele>312</ele>
        <time>2026-09-03T08:49:25Z</time>
      </trkpt>
      <trkpt lat="43.51756" lon="1.45314">
        <ele>314</ele>
        <time>2026-09-03T08:49:30Z</time>
      </trkpt>
      <trkpt lat="43.51738" lon="1.45298">
        <ele>315</ele>
        <time>2026-09-03T08:49:35Z</time>
      </trkpt>
      <trkpt lat="43.51711" lon="1.45277">
        <ele>316</ele>
        <time>2026-09-03T08:49:40Z</time>
      </trkpt>
      <trkpt lat="43.51671" lon="1.45248">
        <ele>316</ele>
        <time>2026-09-03T08:49:45Z</time>
      </trkpt>
      <trkpt lat="43.51643" lon="1.45267">
        <ele>315</ele>
        <time>2026-09-03T08:49:50Z</time>
      </trkpt>
      <trkpt lat="43.5163" lon="1.45299">
        <ele>313</ele>
        <time>2026-09-03T08:49:55Z</time>
      </trkpt>
      <trkpt lat="43.5162" lon="1.45322">
        <ele>311</ele>
        <time>2026-09-03T08:50:00Z</time>
      </trkpt>
      <trkpt lat="43.51611" lon="1.45345">
        <ele>309</ele>
        <time>2026-09-03T08:50:05Z</time>
      </trkpt>
      <trkpt lat="43.51603" lon="1.45368">
        <ele>307</ele>
        <time>2026-09-03T08:50:10Z</time>
      </trkpt>
      <trkpt lat="43.51596" lon="1.4539">
        <ele>307</ele>
        <time>2026-09-03T08:50:15Z</time>
      </trkpt>
      <trkpt lat="43.51587" lon="1.45411">
        <ele>307</ele>
        <time>2026-09-03T08:50:20Z</time>
      </trkpt>
      <trkpt lat="43.51579" lon="1.45435">
        <ele>307</ele>
        <time>2026-09-03T08:50:25Z</time>
      </trkpt>
      <trkpt lat="43.51569" lon="1.45456">
        <ele>308</ele>
        <time>2026-09-03T08:50:30Z</time>
      </trkpt>
      <trkpt lat="43.51562" lon="1.45463">
        <ele>308</ele>
        <time>2026-09-03T08:50:35Z</time>
      </trkpt>
      <trkpt lat="43.51532" lon="1.45455">
        <ele>309</ele>
        <time>2026-09-03T08:50:40Z</time>
      </trkpt>
      <trkpt lat="43.51508" lon="1.45422">
        <ele>308</ele>
        <time>2026-09-03T08:50:45Z</time>
      </trkpt>
      <trkpt lat="43.51482" lon="1.45425">
        <ele>307</ele>
        <time>2026-09-03T08:50:50Z</time>
      </trkpt>
      <trkpt lat="43.51455" lon="1.45434">
        <ele>306</ele>
        <time>2026-09-03T08:50:55Z</time>
      </trkpt>
      <trkpt lat="43.51428" lon="1.45441">
        <ele>305</ele>
        <time>2026-09-03T08:51:00Z</time>
      </trkpt>
      <trkpt lat="43.51418" lon="1.45424">
        <ele>303</ele>
        <time>2026-09-03T08:51:05Z</time>
      </trkpt>
      <trkpt lat="43.51416" lon="1.45395">
        <ele>302</ele>
        <time>2026-09-03T08:51:10Z</time>
      </trkpt>
      <trkpt lat="43.51413" lon="1.45364">
        <ele>300</ele>
        <time>2026-09-03T08:51:15Z</time>
      </trkpt>
      <trkpt lat="43.51408" lon="1.45328">
        <ele>298</ele>
        <time>2026-09-03T08:51:20Z</time>
      </trkpt>
      <trkpt lat="43.51402" lon="1.4529">
        <ele>295</ele>
        <time>2026-09-03T08:51:25Z</time>
      </trkpt>
      <trkpt lat="43.51394" lon="1.45251">
        <ele>292</ele>
        <time>2026-09-03T08:51:30Z</time>
      </trkpt>
      <trkpt lat="43.51386" lon="1.4522">
        <ele>288</ele>
        <time>2026-09-03T08:51:35Z</time>
      </trkpt>
      <trkpt lat="43.5138" lon="1.45197">
        <ele>285</ele>
        <time>2026-09-03T08:51:40Z</time>
      </trkpt>
      <trkpt lat="43.51375" lon="1.4519">
        <ele>282</ele>
        <time>2026-09-03T08:51:45Z</time>
      </trkpt>
      <trkpt lat="43.51347" lon="1.45193">
        <ele>280</ele>
        <time>2026-09-03T08:51:50Z</time>
      </trkpt>
      <trkpt lat="43.51335" lon="1.45192">
        <ele>278</ele>
        <time>2026-09-03T08:51:55Z</time>
      </trkpt>
      <trkpt lat="43.51322" lon="1.45189">
        <ele>277</ele>
        <time>2026-09-03T08:52:00Z</time>
      </trkpt>
      <trkpt lat="43.51314" lon="1.45179">
        <ele>276</ele>
        <time>2026-09-03T08:52:05Z</time>
      </trkpt>
      <trkpt lat="43.51314" lon="1.45168">
        <ele>274</ele>
        <time>2026-09-03T08:52:10Z</time>
      </trkpt>
      <trkpt lat="43.51307" lon="1.45162">
        <ele>271</ele>
        <time>2026-09-03T08:52:15Z</time>
      </trkpt>
      <trkpt lat="43.513" lon="1.45175">
        <ele>269</ele>
        <time>2026-09-03T08:52:20Z</time>
      </trkpt>
      <trkpt lat="43.51289" lon="1.45185">
        <ele>267</ele>
        <time>2026-09-03T08:52:25Z</time>
      </trkpt>
      <trkpt lat="43.51279" lon="1.45168">
        <ele>265</ele>
        <time>2026-09-03T08:52:30Z</time>
      </trkpt>
      <trkpt lat="43.51281" lon="1.45143">
        <ele>263</ele>
        <time>2026-09-03T08:52:35Z</time>
      </trkpt>
      <trkpt lat="43.51288" lon="1.45117">
        <ele>261</ele>
        <time>2026-09-03T08:52:40Z</time>
      </trkpt>
      <trkpt lat="43.51284" lon="1.45081">
        <ele>258</ele>
        <time>2026-09-03T08:52:45Z</time>
      </trkpt>
      <trkpt lat="43.51295" lon="1.45047">
        <ele>256</ele>
        <time>2026-09-03T08:52:50Z</time>
      </trkpt>
      <trkpt lat="43.51301" lon="1.4503">
        <ele>254</ele>
        <time>2026-09-03T08:52:55Z</time>
      </trkpt>
      <trkpt lat="43.51304" lon="1.45024">
        <ele>253</ele>
        <time>2026-09-03T08:53:02Z</time>
      </trkpt>
      <trkpt lat="43.51302" lon="1.45011">
        <ele>251</ele>
        <time>2026-09-03T08:53:07Z</time>
      </trkpt>
      <trkpt lat="43.51302" lon="1.44993">
        <ele>250</ele>
        <time>2026-09-03T08:53:12Z</time>
      </trkpt>
      <trkpt lat="43.51302" lon="1.44979">
        <ele>249</ele>
        <time>2026-09-03T08:53:17Z</time>
      </trkpt>
      <trkpt lat="43.51308" lon="1.44944">
        <ele>248</ele>
        <time>2026-09-03T08:53:22Z</time>
      </trkpt>
      <trkpt lat="43.51315" lon="1.44911">
        <ele>248</ele>
        <time>2026-09-03T08:53:27Z</time>
      </trkpt>
      <trkpt lat="43.51323" lon="1.44873">
        <ele>247</ele>
        <time>2026-09-03T08:53:32Z</time>
      </trkpt>
      <trkpt lat="43.51328" lon="1.44839">
        <ele>246</ele>
        <time>2026-09-03T08:53:37Z</time>
      </trkpt>
      <trkpt lat="43.51334" lon="1.44798">
        <ele>246</ele>
        <time>2026-09-03T08:53:42Z</time>
      </trkpt>
      <trkpt lat="43.51349" lon="1.44757">
        <ele>245</ele>
        <time>2026-09-03T08:53:47Z</time>
      </trkpt>
      <trkpt lat="43.51361" lon="1.44712">
        <ele>244</ele>
        <time>2026-09-03T08:53:52Z</time>
      </trkpt>
      <trkpt lat="43.51362" lon="1.4467">
        <ele>243</ele>
        <time>2026-09-03T08:53:57Z</time>
      </trkpt>
      <trkpt lat="43.5137" lon="1.44627">
        <ele>242</ele>
        <time>2026-09-03T08:54:02Z</time>
      </trkpt>
      <trkpt lat="43.51375" lon="1.44579">
        <ele>242</ele>
        <time>2026-09-03T08:54:07Z</time>
      </trkpt>
      <trkpt lat="43.51378" lon="1.44543">
        <ele>242</ele>
        <time>2026-09-03T08:54:12Z</time>
      </trkpt>
      <trkpt lat="43.51377" lon="1.44515">
        <ele>241</ele>
        <time>2026-09-03T08:54:17Z</time>
      </trkpt>
      <trkpt lat="43.51376" lon="1.44497">
        <ele>240</ele>
        <time>2026-09-03T08:54:22Z</time>
      </trkpt>
      <trkpt lat="43.51382" lon="1.44466">
        <ele>239</ele>
        <time>2026-09-03T08:54:27Z</time>
      </trkpt>
      <trkpt lat="43.51386" lon="1.44426">
        <ele>238</ele>
        <time>2026-09-03T08:54:32Z</time>
      </trkpt>
      <trkpt lat="43.51381" lon="1.44396">
        <ele>236</ele>
        <time>2026-09-03T08:54:36Z</time>
      </trkpt>
      <trkpt lat="43.51389" lon="1.44372">
        <ele>234</ele>
        <time>2026-09-03T08:54:41Z</time>
      </trkpt>
      <trkpt lat="43.51409" lon="1.44348">
        <ele>233</ele>
        <time>2026-09-03T08:54:46Z</time>
      </trkpt>
      <trkpt lat="43.51421" lon="1.44311">
        <ele>232</ele>
        <time>2026-09-03T08:54:52Z</time>
      </trkpt>
      <trkpt lat="43.51428" lon="1.44276">
        <ele>230</ele>
        <time>2026-09-03T08:54:57Z</time>
      </trkpt>
      <trkpt lat="43.51435" lon="1.44255">
        <ele>230</ele>
        <time>2026-09-03T08:55:01Z</time>
      </trkpt>
      <trkpt lat="43.51444" lon="1.44222">
        <ele>229</ele>
        <time>2026-09-03T08:55:06Z</time>
      </trkpt>
      <trkpt lat="43.51461" lon="1.4418">
        <ele>229</ele>
        <time>2026-09-03T08:55:12Z</time>
      </trkpt>
      <trkpt lat="43.51473" lon="1.44147">
        <ele>228</ele>
        <time>2026-09-03T08:55:16Z</time>
      </trkpt>
      <trkpt lat="43.51486" lon="1.44114">
        <ele>228</ele>
        <time>2026-09-03T08:55:21Z</time>
      </trkpt>
      <trkpt lat="43.51494" lon="1.44077">
        <ele>227</ele>
        <time>2026-09-03T08:55:27Z</time>
      </trkpt>
      <trkpt lat="43.51506" lon="1.44053">
        <ele>227</ele>
        <time>2026-09-03T08:55:31Z</time>
      </trkpt>
      <trkpt lat="43.51521" lon="1.44031">
        <ele>226</ele>
        <time>2026-09-03T08:55:37Z</time>
      </trkpt>
      <trkpt lat="43.51529" lon="1.43995">
        <ele>226</ele>
        <time>2026-09-03T08:55:42Z</time>
      </trkpt>
      <trkpt lat="43.51534" lon="1.43956">
        <ele>226</ele>
        <time>2026-09-03T08:55:47Z</time>
      </trkpt>
      <trkpt lat="43.51543" lon="1.43923">
        <ele>225</ele>
        <time>2026-09-03T08:55:52Z</time>
      </trkpt>
      <trkpt lat="43.51551" lon="1.43892">
        <ele>225</ele>
        <time>2026-09-03T08:55:57Z</time>
      </trkpt>
      <trkpt lat="43.51561" lon="1.43879">
        <ele>225</ele>
        <time>2026-09-03T08:56:01Z</time>
      </trkpt>
      <trkpt lat="43.51572" lon="1.43853">
        <ele>224</ele>
        <time>2026-09-03T08:56:06Z</time>
      </trkpt>
      <trkpt lat="43.51586" lon="1.43813">
        <ele>223</ele>
        <time>2026-09-03T08:56:11Z</time>
      </trkpt>
      <trkpt lat="43.516" lon="1.43786">
        <ele>223</ele>
        <time>2026-09-03T08:56:16Z</time>
      </trkpt>
      <trkpt lat="43.51611" lon="1.43771">
        <ele>223</ele>
        <time>2026-09-03T08:56:21Z</time>
      </trkpt>
      <trkpt lat="43.51621" lon="1.43732">
        <ele>222</ele>
        <time>2026-09-03T08:56:27Z</time>
      </trkpt>
      <trkpt lat="43.51623" lon="1.43704">
        <ele>222</ele>
        <time>2026-09-03T08:56:31Z</time>
      </trkpt>
      <trkpt lat="43.51629" lon="1.43668">
        <ele>222</ele>
        <time>2026-09-03T08:56:36Z</time>
      </trkpt>
      <trkpt lat="43.51633" lon="1.43626">
        <ele>222</ele>
        <time>2026-09-03T08:56:41Z</time>
      </trkpt>
      <trkpt lat="43.5164" lon="1.43588">
        <ele>222</ele>
        <time>2026-09-03T08:56:46Z</time>
      </trkpt>
      <trkpt lat="43.51651" lon="1.43555">
        <ele>221</ele>
        <time>2026-09-03T08:56:51Z</time>
      </trkpt>
      <trkpt lat="43.51664" lon="1.43523">
        <ele>221</ele>
        <time>2026-09-03T08:56:56Z</time>
      </trkpt>
      <trkpt lat="43.51666" lon="1.435">
        <ele>220</ele>
        <time>2026-09-03T08:57:01Z</time>
      </trkpt>
      <trkpt lat="43.51661" lon="1.43468">
        <ele>220</ele>
        <time>2026-09-03T08:57:06Z</time>
      </trkpt>
      <trkpt lat="43.51662" lon="1.43433">
        <ele>219</ele>
        <time>2026-09-03T08:57:11Z</time>
      </trkpt>
      <trkpt lat="43.51663" lon="1.43415">
        <ele>219</ele>
        <time>2026-09-03T08:57:16Z</time>
      </trkpt>
      <trkpt lat="43.51668" lon="1.43402">
        <ele>219</ele>
        <time>2026-09-03T08:57:21Z</time>
      </trkpt>
      <trkpt lat="43.51672" lon="1.43371">
        <ele>218</ele>
        <time>2026-09-03T08:57:26Z</time>
      </trkpt>
      <trkpt lat="43.5168" lon="1.43343">
        <ele>218</ele>
        <time>2026-09-03T08:57:31Z</time>
      </trkpt>
      <trkpt lat="43.5169" lon="1.43326">
        <ele>218</ele>
        <time>2026-09-03T08:57:36Z</time>
      </trkpt>
      <trkpt lat="43.51699" lon="1.43302">
        <ele>218</ele>
        <time>2026-09-03T08:57:41Z</time>
      </trkpt>
      <trkpt lat="43.51705" lon="1.43279">
        <ele>218</ele>
        <time>2026-09-03T08:57:46Z</time>
      </trkpt>
      <trkpt lat="43.51709" lon="1.43251">
        <ele>219</ele>
        <time>2026-09-03T08:57:51Z</time>
      </trkpt>
      <trkpt lat="43.51709" lon="1.43217">
        <ele>218</ele>
        <time>2026-09-03T08:57:56Z</time>
      </trkpt>
      <trkpt lat="43.51712" lon="1.43186">
        <ele>218</ele>
        <time>2026-09-03T08:58:01Z</time>
      </trkpt>
      <trkpt lat="43.51715" lon="1.43157">
        <ele>217</ele>
        <time>2026-09-03T08:58:06Z</time>
      </trkpt>
      <trkpt lat="43.51717" lon="1.43124">
        <ele>216</ele>
        <time>2026-09-03T08:58:11Z</time>
      </trkpt>
      <trkpt lat="43.51724" lon="1.43076">
        <ele>216</ele>
        <time>2026-09-03T08:58:16Z</time>
      </trkpt>
      <trkpt lat="43.51732" lon="1.43035">
        <ele>216</ele>
        <time>2026-09-03T08:58:21Z</time>
      </trkpt>
      <trkpt lat="43.51736" lon="1.42996">
        <ele>215</ele>
        <time>2026-09-03T08:58:26Z</time>
      </trkpt>
      <trkpt lat="43.51745" lon="1.42978">
        <ele>215</ele>
        <time>2026-09-03T08:58:31Z</time>
      </trkpt>
      <trkpt lat="43.5175" lon="1.4295">
        <ele>214</ele>
        <time>2026-09-03T08:58:36Z</time>
      </trkpt>
      <trkpt lat="43.51754" lon="1.42914">
        <ele>213</ele>
        <time>2026-09-03T08:58:41Z</time>
      </trkpt>
      <trkpt lat="43.51762" lon="1.42871">
        <ele>212</ele>
        <time>2026-09-03T08:58:46Z</time>
      </trkpt>
      <trkpt lat="43.51767" lon="1.42826">
        <ele>211</ele>
        <time>2026-09-03T08:58:51Z</time>
      </trkpt>
      <trkpt lat="43.51767" lon="1.42785">
        <ele>209</ele>
        <time>2026-09-03T08:58:56Z</time>
      </trkpt>
      <trkpt lat="43.51772" lon="1.42743">
        <ele>208</ele>
        <time>2026-09-03T08:59:01Z</time>
      </trkpt>
      <trkpt lat="43.51775" lon="1.42704">
        <ele>207</ele>
        <time>2026-09-03T08:59:06Z</time>
      </trkpt>
      <trkpt lat="43.51775" lon="1.42664">
        <ele>205</ele>
        <time>2026-09-03T08:59:11Z</time>
      </trkpt>
      <trkpt lat="43.51778" lon="1.42627">
        <ele>204</ele>
        <time>2026-09-03T08:59:16Z</time>
      </trkpt>
      <trkpt lat="43.51783" lon="1.42595">
        <ele>202</ele>
        <time>2026-09-03T08:59:21Z</time>
      </trkpt>
      <trkpt lat="43.5179" lon="1.42556">
        <ele>201</ele>
        <time>2026-09-03T08:59:26Z</time>
      </trkpt>
      <trkpt lat="43.51786" lon="1.42525">
        <ele>200</ele>
        <time>2026-09-03T08:59:31Z</time>
      </trkpt>
      <trkpt lat="43.5178" lon="1.42514">
        <ele>200</ele>
        <time>2026-09-03T08:59:36Z</time>
      </trkpt>
      <trkpt lat="43.51774" lon="1.42527">
        <ele>200</ele>
        <time>2026-09-03T08:59:41Z</time>
      </trkpt>
      <trkpt lat="43.51769" lon="1.42539">
        <ele>200</ele>
        <time>2026-09-03T08:59:46Z</time>
      </trkpt>
      <trkpt lat="43.51767" lon="1.4255">
        <ele>200</ele>
        <time>2026-09-03T08:59:51Z</time>
      </trkpt>
      <trkpt lat="43.51761" lon="1.42563">
        <ele>201</ele>
        <time>2026-09-03T08:59:56Z</time>
      </trkpt>
      <trkpt lat="43.51756" lon="1.42574">
        <ele>202</ele>
        <time>2026-09-03T09:00:01Z</time>
      </trkpt>
      <trkpt lat="43.51753" lon="1.42584">
        <ele>203</ele>
        <time>2026-09-03T09:00:06Z</time>
      </trkpt>
      <trkpt lat="43.51748" lon="1.426">
        <ele>204</ele>
        <time>2026-09-03T09:00:11Z</time>
      </trkpt>
      <trkpt lat="43.51743" lon="1.42613">
        <ele>206</ele>
        <time>2026-09-03T09:00:16Z</time>
      </trkpt>
      <trkpt lat="43.51738" lon="1.42625">
        <ele>207</ele>
        <time>2026-09-03T09:00:21Z</time>
      </trkpt>
      <trkpt lat="43.51737" lon="1.42637">
        <ele>208</ele>
        <time>2026-09-03T09:00:26Z</time>
      </trkpt>
      <trkpt lat="43.51734" lon="1.42651">
        <ele>209</ele>
        <time>2026-09-03T09:00:31Z</time>
      </trkpt>
      <trkpt lat="43.51733" lon="1.4266">
        <ele>210</ele>
        <time>2026-09-03T09:00:36Z</time>
      </trkpt>
      <trkpt lat="43.51731" lon="1.42671">
        <ele>211</ele>
        <time>2026-09-03T09:00:41Z</time>
      </trkpt>
      <trkpt lat="43.51728" lon="1.42683">
        <ele>212</ele>
        <time>2026-09-03T09:00:46Z</time>
      </trkpt>
      <trkpt lat="43.51725" lon="1.42694">
        <ele>213</ele>
        <time>2026-09-03T09:00:51Z</time>
      </trkpt>
      <trkpt lat="43.51722" lon="1.42704">
        <ele>214</ele>
        <time>2026-09-03T09:00:56Z</time>
      </trkpt>
      <trkpt lat="43.5172" lon="1.42715">
        <ele>216</ele>
        <time>2026-09-03T09:01:01Z</time>
      </trkpt>
      <trkpt lat="43.51719" lon="1.42729">
        <ele>218</ele>
        <time>2026-09-03T09:01:06Z</time>
      </trkpt>
      <trkpt lat="43.51718" lon="1.42742">
        <ele>219</ele>
        <time>2026-09-03T09:01:11Z</time>
      </trkpt>
      <trkpt lat="43.51715" lon="1.42755">
        <ele>221</ele>
        <time>2026-09-03T09:01:16Z</time>
      </trkpt>
      <trkpt lat="43.5171" lon="1.42766">
        <ele>222</ele>
        <time>2026-09-03T09:01:21Z</time>
      </trkpt>
      <trkpt lat="43.51705" lon="1.42776">
        <ele>223</ele>
        <time>2026-09-03T09:01:26Z</time>
      </trkpt>
      <trkpt lat="43.51698" lon="1.42786">
        <ele>224</ele>
        <time>2026-09-03T09:01:31Z</time>
      </trkpt>
      <trkpt lat="43.51693" lon="1.42798">
        <ele>225</ele>
        <time>2026-09-03T09:01:36Z</time>
      </trkpt>
      <trkpt lat="43.51688" lon="1.42805">
        <ele>226</ele>
        <time>2026-09-03T09:01:41Z</time>
      </trkpt>
      <trkpt lat="43.51681" lon="1.42814">
        <ele>227</ele>
        <time>2026-09-03T09:01:46Z</time>
      </trkpt>
      <trkpt lat="43.51674" lon="1.42824">
        <ele>228</ele>
        <time>2026-09-03T09:01:51Z</time>
      </trkpt>
      <trkpt lat="43.51668" lon="1.42835">
        <ele>229</ele>
        <time>2026-09-03T09:01:56Z</time>
      </trkpt>
      <trkpt lat="43.51663" lon="1.42847">
        <ele>229</ele>
        <time>2026-09-03T09:02:01Z</time>
      </trkpt>
      <trkpt lat="43.51655" lon="1.42861">
        <ele>229</ele>
        <time>2026-09-03T09:02:06Z</time>
      </trkpt>
      <trkpt lat="43.51647" lon="1.42871">
        <ele>230</ele>
        <time>2026-09-03T09:02:11Z</time>
      </trkpt>
      <trkpt lat="43.51638" lon="1.42881">
        <ele>231</ele>
        <time>2026-09-03T09:02:16Z</time>
      </trkpt>
      <trkpt lat="43.5163" lon="1.42894">
        <ele>232</ele>
        <time>2026-09-03T09:02:21Z</time>
      </trkpt>
      <trkpt lat="43.51623" lon="1.42906">
        <ele>233</ele>
        <time>2026-09-03T09:02:26Z</time>
      </trkpt>
      <trkpt lat="43.51616" lon="1.42915">
        <ele>234</ele>
        <time>2026-09-03T09:02:31Z</time>
      </trkpt>
      <trkpt lat="43.5161" lon="1.42921">
        <ele>236</ele>
        <time>2026-09-03T09:02:36Z</time>
      </trkpt>
      <trkpt lat="43.51604" lon="1.4293">
        <ele>237</ele>
        <time>2026-09-03T09:02:41Z</time>
      </trkpt>
      <trkpt lat="43.51598" lon="1.42939">
        <ele>239</ele>
        <time>2026-09-03T09:02:46Z</time>
      </trkpt>
      <trkpt lat="43.5159" lon="1.42945">
        <ele>241</ele>
        <time>2026-09-03T09:02:51Z</time>
      </trkpt>
      <trkpt lat="43.51581" lon="1.42951">
        <ele>243</ele>
        <time>2026-09-03T09:02:56Z</time>
      </trkpt>
      <trkpt lat="43.51575" lon="1.42959">
        <ele>244</ele>
        <time>2026-09-03T09:03:01Z</time>
      </trkpt>
      <trkpt lat="43.51566" lon="1.42967">
        <ele>244</ele>
        <time>2026-09-03T09:03:06Z</time>
      </trkpt>
      <trkpt lat="43.51556" lon="1.42975">
        <ele>244</ele>
        <time>2026-09-03T09:03:11Z</time>
      </trkpt>
      <trkpt lat="43.5155" lon="1.4298">
        <ele>245</ele>
        <time>2026-09-03T09:03:16Z</time>
      </trkpt>
      <trkpt lat="43.51545" lon="1.42987">
        <ele>245</ele>
        <time>2026-09-03T09:03:21Z</time>
      </trkpt>
      <trkpt lat="43.51538" lon="1.42991">
        <ele>246</ele>
        <time>2026-09-03T09:03:26Z</time>
      </trkpt>
      <trkpt lat="43.51532" lon="1.42995">
        <ele>248</ele>
        <time>2026-09-03T09:03:31Z</time>
      </trkpt>
      <trkpt lat="43.51526" lon="1.43001">
        <ele>250</ele>
        <time>2026-09-03T09:03:36Z</time>
      </trkpt>
      <trkpt lat="43.51519" lon="1.43009">
        <ele>251</ele>
        <time>2026-09-03T09:03:41Z</time>
      </trkpt>
      <trkpt lat="43.51511" lon="1.43019">
        <ele>252</ele>
        <time>2026-09-03T09:03:46Z</time>
      </trkpt>
      <trkpt lat="43.51505" lon="1.43024">
        <ele>253</ele>
        <time>2026-09-03T09:03:51Z</time>
      </trkpt>
      <trkpt lat="43.51499" lon="1.43027">
        <ele>253</ele>
        <time>2026-09-03T09:03:56Z</time>
      </trkpt>
      <trkpt lat="43.51494" lon="1.43032">
        <ele>254</ele>
        <time>2026-09-03T09:04:01Z</time>
      </trkpt>
      <trkpt lat="43.51488" lon="1.43036">
        <ele>254</ele>
        <time>2026-09-03T09:04:06Z</time>
      </trkpt>
      <trkpt lat="43.51481" lon="1.43047">
        <ele>255</ele>
        <time>2026-09-03T09:04:11Z</time>
      </trkpt>
      <trkpt lat="43.51476" lon="1.43054">
        <ele>255</ele>
        <time>2026-09-03T09:04:16Z</time>
      </trkpt>
      <trkpt lat="43.51468" lon="1.43064">
        <ele>256</ele>
        <time>2026-09-03T09:04:21Z</time>
      </trkpt>
      <trkpt lat="43.5146" lon="1.43075">
        <ele>257</ele>
        <time>2026-09-03T09:04:26Z</time>
      </trkpt>
      <trkpt lat="43.51454" lon="1.43083">
        <ele>258</ele>
        <time>2026-09-03T09:04:31Z</time>
      </trkpt>
      <trkpt lat="43.51447" lon="1.43091">
        <ele>260</ele>
        <time>2026-09-03T09:04:36Z</time>
      </trkpt>
      <trkpt lat="43.51439" lon="1.43098">
        <ele>261</ele>
        <time>2026-09-03T09:04:41Z</time>
      </trkpt>
      <trkpt lat="43.51435" lon="1.43105">
        <ele>263</ele>
        <time>2026-09-03T09:04:46Z</time>
      </trkpt>
      <trkpt lat="43.51429" lon="1.43112">
        <ele>264</ele>
        <time>2026-09-03T09:04:51Z</time>
      </trkpt>
      <trkpt lat="43.51425" lon="1.43121">
        <ele>266</ele>
        <time>2026-09-03T09:04:56Z</time>
      </trkpt>
      <trkpt lat="43.51418" lon="1.43126">
        <ele>267</ele>
        <time>2026-09-03T09:05:01Z</time>
      </trkpt>
      <trkpt lat="43.5141" lon="1.43132">
        <ele>268</ele>
        <time>2026-09-03T09:05:06Z</time>
      </trkpt>
      <trkpt lat="43.51407" lon="1.43136">
        <ele>269</ele>
        <time>2026-09-03T09:05:11Z</time>
      </trkpt>
      <trkpt lat="43.51401" lon="1.43142">
        <ele>270</ele>
        <time>2026-09-03T09:05:16Z</time>
      </trkpt>
      <trkpt lat="43.51395" lon="1.4315">
        <ele>270</ele>
        <time>2026-09-03T09:05:21Z</time>
      </trkpt>
      <trkpt lat="43.51389" lon="1.43158">
        <ele>270</ele>
        <time>2026-09-03T09:05:26Z</time>
      </trkpt>
      <trkpt lat="43.51382" lon="1.43166">
        <ele>271</ele>
        <time>2026-09-03T09:05:31Z</time>
      </trkpt>
      <trkpt lat="43.51376" lon="1.43172">
        <ele>271</ele>
        <time>2026-09-03T09:05:36Z</time>
      </trkpt>
      <trkpt lat="43.5137" lon="1.43179">
        <ele>272</ele>
        <time>2026-09-03T09:05:41Z</time>
      </trkpt>
      <trkpt lat="43.51363" lon="1.43186">
        <ele>273</ele>
        <time>2026-09-03T09:05:46Z</time>
      </trkpt>
      <trkpt lat="43.51357" lon="1.43193">
        <ele>274</ele>
        <time>2026-09-03T09:05:51Z</time>
      </trkpt>
      <trkpt lat="43.5135" lon="1.43196">
        <ele>276</ele>
        <time>2026-09-03T09:05:56Z</time>
      </trkpt>
      <trkpt lat="43.51341" lon="1.43199">
        <ele>277</ele>
        <time>2026-09-03T09:06:01Z</time>
      </trkpt>
      <trkpt lat="43.51332" lon="1.43205">
        <ele>278</ele>
        <time>2026-09-03T09:06:06Z</time>
      </trkpt>
      <trkpt lat="43.51328" lon="1.43211">
        <ele>279</ele>
        <time>2026-09-03T09:06:11Z</time>
      </trkpt>
      <trkpt lat="43.51322" lon="1.43216">
        <ele>280</ele>
        <time>2026-09-03T09:06:16Z</time>
      </trkpt>
      <trkpt lat="43.51317" lon="1.43226">
        <ele>281</ele>
        <time>2026-09-03T09:06:21Z</time>
      </trkpt>
      <trkpt lat="43.5131" lon="1.43241">
        <ele>282</ele>
        <time>2026-09-03T09:06:26Z</time>
      </trkpt>
      <trkpt lat="43.51307" lon="1.43253">
        <ele>283</ele>
        <time>2026-09-03T09:06:31Z</time>
      </trkpt>
      <trkpt lat="43.51302" lon="1.43263">
        <ele>284</ele>
        <time>2026-09-03T09:06:36Z</time>
      </trkpt>
      <trkpt lat="43.51299" lon="1.43275">
        <ele>286</ele>
        <time>2026-09-03T09:06:41Z</time>
      </trkpt>
      <trkpt lat="43.51295" lon="1.4329">
        <ele>287</ele>
        <time>2026-09-03T09:06:46Z</time>
      </trkpt>
      <trkpt lat="43.51291" lon="1.43302">
        <ele>289</ele>
        <time>2026-09-03T09:06:51Z</time>
      </trkpt>
      <trkpt lat="43.51287" lon="1.43311">
        <ele>289</ele>
        <time>2026-09-03T09:06:56Z</time>
      </trkpt>
      <trkpt lat="43.51286" lon="1.43324">
        <ele>289</ele>
        <time>2026-09-03T09:07:01Z</time>
      </trkpt>
      <trkpt lat="43.51283" lon="1.43337">
        <ele>289</ele>
        <time>2026-09-03T09:07:06Z</time>
      </trkpt>
      <trkpt lat="43.51278" lon="1.43351">
        <ele>289</ele>
        <time>2026-09-03T09:07:11Z</time>
      </trkpt>
      <trkpt lat="43.51275" lon="1.43364">
        <ele>290</ele>
        <time>2026-09-03T09:07:16Z</time>
      </trkpt>
      <trkpt lat="43.51271" lon="1.43377">
        <ele>291</ele>
        <time>2026-09-03T09:07:21Z</time>
      </trkpt>
      <trkpt lat="43.51266" lon="1.43388">
        <ele>292</ele>
        <time>2026-09-03T09:07:26Z</time>
      </trkpt>
      <trkpt lat="43.51257" lon="1.4339">
        <ele>293</ele>
        <time>2026-09-03T09:07:31Z</time>
      </trkpt>
      <trkpt lat="43.51246" lon="1.43384">
        <ele>293</ele>
        <time>2026-09-03T09:07:36Z</time>
      </trkpt>
      <trkpt lat="43.51228" lon="1.43379">
        <ele>292</ele>
        <time>2026-09-03T09:07:41Z</time>
      </trkpt>
      <trkpt lat="43.51204" lon="1.43374">
        <ele>292</ele>
        <time>2026-09-03T09:07:46Z</time>
      </trkpt>
      <trkpt lat="43.51192" lon="1.43371">
        <ele>290</ele>
        <time>2026-09-03T09:07:51Z</time>
      </trkpt>
      <trkpt lat="43.51198" lon="1.43368">
        <ele>290</ele>
        <time>2026-09-03T09:07:56Z</time>
      </trkpt>
      <trkpt lat="43.51195" lon="1.43363">
        <ele>289</ele>
        <time>2026-09-03T09:08:01Z</time>
      </trkpt>
      <trkpt lat="43.51179" lon="1.43359">
        <ele>288</ele>
        <time>2026-09-03T09:08:06Z</time>
      </trkpt>
      <trkpt lat="43.51162" lon="1.43321">
        <ele>286</ele>
        <time>2026-09-03T09:08:11Z</time>
      </trkpt>
      <trkpt lat="43.51157" lon="1.43272">
        <ele>285</ele>
        <time>2026-09-03T09:08:16Z</time>
      </trkpt>
      <trkpt lat="43.51125" lon="1.4329">
        <ele>282</ele>
        <time>2026-09-03T09:08:21Z</time>
      </trkpt>
      <trkpt lat="43.51093" lon="1.43325">
        <ele>280</ele>
        <time>2026-09-03T09:08:26Z</time>
      </trkpt>
      <trkpt lat="43.51059" lon="1.43361">
        <ele>277</ele>
        <time>2026-09-03T09:08:31Z</time>
      </trkpt>
      <trkpt lat="43.51023" lon="1.43396">
        <ele>274</ele>
        <time>2026-09-03T09:08:36Z</time>
      </trkpt>
      <trkpt lat="43.50993" lon="1.43394">
        <ele>271</ele>
        <time>2026-09-03T09:08:41Z</time>
      </trkpt>
      <trkpt lat="43.50985" lon="1.43402">
        <ele>269</ele>
        <time>2026-09-03T09:08:46Z</time>
      </trkpt>
      <trkpt lat="43.5098" lon="1.43421">
        <ele>267</ele>
        <time>2026-09-03T09:08:51Z</time>
      </trkpt>
      <trkpt lat="43.50977" lon="1.43441">
        <ele>266</ele>
        <time>2026-09-03T09:08:56Z</time>
      </trkpt>
      <trkpt lat="43.50975" lon="1.43456">
        <ele>266</ele>
        <time>2026-09-03T09:09:01Z</time>
      </trkpt>
      <trkpt lat="43.50974" lon="1.43471">
        <ele>266</ele>
        <time>2026-09-03T09:09:06Z</time>
      </trkpt>
      <trkpt lat="43.50972" lon="1.43485">
        <ele>265</ele>
        <time>2026-09-03T09:09:11Z</time>
      </trkpt>
      <trkpt lat="43.50971" lon="1.43499">
        <ele>266</ele>
        <time>2026-09-03T09:09:16Z</time>
      </trkpt>
      <trkpt lat="43.50969" lon="1.43513">
        <ele>265</ele>
        <time>2026-09-03T09:09:21Z</time>
      </trkpt>
      <trkpt lat="43.50958" lon="1.43516">
        <ele>265</ele>
        <time>2026-09-03T09:09:26Z</time>
      </trkpt>
      <trkpt lat="43.5094" lon="1.43504">
        <ele>265</ele>
        <time>2026-09-03T09:09:31Z</time>
      </trkpt>
      <trkpt lat="43.50917" lon="1.43497">
        <ele>265</ele>
        <time>2026-09-03T09:09:36Z</time>
      </trkpt>
      <trkpt lat="43.50897" lon="1.43487">
        <ele>266</ele>
        <time>2026-09-03T09:09:41Z</time>
      </trkpt>
      <trkpt lat="43.5088" lon="1.43478">
        <ele>267</ele>
        <time>2026-09-03T09:09:46Z</time>
      </trkpt>
      <trkpt lat="43.5086" lon="1.43469">
        <ele>268</ele>
        <time>2026-09-03T09:09:51Z</time>
      </trkpt>
      <trkpt lat="43.50849" lon="1.43461">
        <ele>269</ele>
        <time>2026-09-03T09:09:56Z</time>
      </trkpt>
      <trkpt lat="43.50837" lon="1.43454">
        <ele>270</ele>
        <time>2026-09-03T09:10:01Z</time>
      </trkpt>
      <trkpt lat="43.50827" lon="1.4345">
        <ele>271</ele>
        <time>2026-09-03T09:10:06Z</time>
      </trkpt>
      <trkpt lat="43.50815" lon="1.43443">
        <ele>272</ele>
        <time>2026-09-03T09:10:11Z</time>
      </trkpt>
      <trkpt lat="43.50802" lon="1.43435">
        <ele>273</ele>
        <time>2026-09-03T09:10:16Z</time>
      </trkpt>
      <trkpt lat="43.50797" lon="1.43423">
        <ele>274</ele>
        <time>2026-09-03T09:10:21Z</time>
      </trkpt>
      <trkpt lat="43.50794" lon="1.4341">
        <ele>275</ele>
        <time>2026-09-03T09:10:26Z</time>
      </trkpt>
      <trkpt lat="43.50785" lon="1.43402">
        <ele>277</ele>
        <time>2026-09-03T09:10:31Z</time>
      </trkpt>
      <trkpt lat="43.50775" lon="1.43399">
        <ele>278</ele>
        <time>2026-09-03T09:10:36Z</time>
      </trkpt>
      <trkpt lat="43.50764" lon="1.43398">
        <ele>279</ele>
        <time>2026-09-03T09:10:41Z</time>
      </trkpt>
      <trkpt lat="43.50753" lon="1.43397">
        <ele>280</ele>
        <time>2026-09-03T09:10:46Z</time>
      </trkpt>
      <trkpt lat="43.5074" lon="1.43393">
        <ele>282</ele>
        <time>2026-09-03T09:10:51Z</time>
      </trkpt>
      <trkpt lat="43.50729" lon="1.43389">
        <ele>282</ele>
        <time>2026-09-03T09:10:56Z</time>
      </trkpt>
      <trkpt lat="43.50718" lon="1.43385">
        <ele>283</ele>
        <time>2026-09-03T09:11:01Z</time>
      </trkpt>
      <trkpt lat="43.50705" lon="1.4338">
        <ele>283</ele>
        <time>2026-09-03T09:11:06Z</time>
      </trkpt>
      <trkpt lat="43.50691" lon="1.43373">
        <ele>284</ele>
        <time>2026-09-03T09:11:11Z</time>
      </trkpt>
      <trkpt lat="43.50674" lon="1.4337">
        <ele>285</ele>
        <time>2026-09-03T09:11:16Z</time>
      </trkpt>
      <trkpt lat="43.50658" lon="1.43387">
        <ele>286</ele>
        <time>2026-09-03T09:11:21Z</time>
      </trkpt>
      <trkpt lat="43.50649" lon="1.43415">
        <ele>286</ele>
        <time>2026-09-03T09:11:26Z</time>
      </trkpt>
      <trkpt lat="43.50639" lon="1.43442">
        <ele>285</ele>
        <time>2026-09-03T09:11:31Z</time>
      </trkpt>
      <trkpt lat="43.5063" lon="1.4347">
        <ele>284</ele>
        <time>2026-09-03T09:11:36Z</time>
      </trkpt>
      <trkpt lat="43.50621" lon="1.43499">
        <ele>282</ele>
        <time>2026-09-03T09:11:41Z</time>
      </trkpt>
      <trkpt lat="43.506" lon="1.43525">
        <ele>281</ele>
        <time>2026-09-03T09:11:46Z</time>
      </trkpt>
      <trkpt lat="43.50576" lon="1.43536">
        <ele>281</ele>
        <time>2026-09-03T09:11:51Z</time>
      </trkpt>
      <trkpt lat="43.50554" lon="1.4355">
        <ele>281</ele>
        <time>2026-09-03T09:11:56Z</time>
      </trkpt>
      <trkpt lat="43.50535" lon="1.43569">
        <ele>280</ele>
        <time>2026-09-03T09:12:01Z</time>
      </trkpt>
      <trkpt lat="43.50504" lon="1.43551">
        <ele>281</ele>
        <time>2026-09-03T09:12:06Z</time>
      </trkpt>
      <trkpt lat="43.50467" lon="1.4352">
        <ele>280</ele>
        <time>2026-09-03T09:12:11Z</time>
      </trkpt>
      <trkpt lat="43.50428" lon="1.43493">
        <ele>279</ele>
        <time>2026-09-03T09:12:16Z</time>
      </trkpt>
      <trkpt lat="43.50401" lon="1.43503">
        <ele>277</ele>
        <time>2026-09-03T09:12:21Z</time>
      </trkpt>
      <trkpt lat="43.50362" lon="1.43523">
        <ele>273</ele>
        <time>2026-09-03T09:12:26Z</time>
      </trkpt>
      <trkpt lat="43.50317" lon="1.43536">
        <ele>266</ele>
        <time>2026-09-03T09:12:31Z</time>
      </trkpt>
      <trkpt lat="43.50273" lon="1.43526">
        <ele>257</ele>
        <time>2026-09-03T09:12:36Z</time>
      </trkpt>
      <trkpt lat="43.50256" lon="1.43524">
        <ele>249</ele>
        <time>2026-09-03T09:12:41Z</time>
      </trkpt>
      <trkpt lat="43.50254" lon="1.43556">
        <ele>240</ele>
        <time>2026-09-03T09:12:46Z</time>
      </trkpt>
      <trkpt lat="43.50246" lon="1.43569">
        <ele>234</ele>
        <time>2026-09-03T09:12:51Z</time>
      </trkpt>
      <trkpt lat="43.50233" lon="1.43576">
        <ele>230</ele>
        <time>2026-09-03T09:12:56Z</time>
      </trkpt>
      <trkpt lat="43.50213" lon="1.43589">
        <ele>227</ele>
        <time>2026-09-03T09:13:01Z</time>
      </trkpt>
      <trkpt lat="43.50205" lon="1.43621">
        <ele>224</ele>
        <time>2026-09-03T09:13:06Z</time>
      </trkpt>
      <trkpt lat="43.50199" lon="1.43655">
        <ele>222</ele>
        <time>2026-09-03T09:13:11Z</time>
      </trkpt>
      <trkpt lat="43.50191" lon="1.43694">
        <ele>220</ele>
        <time>2026-09-03T09:13:16Z</time>
      </trkpt>
      <trkpt lat="43.50184" lon="1.4373">
        <ele>219</ele>
        <time>2026-09-03T09:13:21Z</time>
      </trkpt>
      <trkpt lat="43.50179" lon="1.43768">
        <ele>218</ele>
        <time>2026-09-03T09:13:26Z</time>
      </trkpt>
      <trkpt lat="43.50174" lon="1.43805">
        <ele>218</ele>
        <time>2026-09-03T09:13:31Z</time>
      </trkpt>
      <trkpt lat="43.50169" lon="1.43846">
        <ele>218</ele>
        <time>2026-09-03T09:13:36Z</time>
      </trkpt>
      <trkpt lat="43.50164" lon="1.43887">
        <ele>218</ele>
        <time>2026-09-03T09:13:41Z</time>
      </trkpt>
      <trkpt lat="43.50161" lon="1.43929">
        <ele>217</ele>
        <time>2026-09-03T09:13:46Z</time>
      </trkpt>
      <trkpt lat="43.50158" lon="1.43968">
        <ele>217</ele>
        <time>2026-09-03T09:13:51Z</time>
      </trkpt>
      <trkpt lat="43.50155" lon="1.44005">
        <ele>217</ele>
        <time>2026-09-03T09:13:56Z</time>
      </trkpt>
      <trkpt lat="43.50157" lon="1.44038">
        <ele>217</ele>
        <time>2026-09-03T09:14:01Z</time>
      </trkpt>
      <trkpt lat="43.50153" lon="1.44069">
        <ele>217</ele>
        <time>2026-09-03T09:14:06Z</time>
      </trkpt>
      <trkpt lat="43.50149" lon="1.44101">
        <ele>218</ele>
        <time>2026-09-03T09:14:11Z</time>
      </trkpt>
      <trkpt lat="43.50145" lon="1.44136">
        <ele>218</ele>
        <time>2026-09-03T09:14:16Z</time>
      </trkpt>
      <trkpt lat="43.50143" lon="1.44168">
        <ele>218</ele>
        <time>2026-09-03T09:14:21Z</time>
      </trkpt>
      <trkpt lat="43.50143" lon="1.442">
        <ele>218</ele>
        <time>2026-09-03T09:14:26Z</time>
      </trkpt>
      <trkpt lat="43.50146" lon="1.4423">
        <ele>219</ele>
        <time>2026-09-03T09:14:31Z</time>
      </trkpt>
      <trkpt lat="43.50145" lon="1.44262">
        <ele>219</ele>
        <time>2026-09-03T09:14:36Z</time>
      </trkpt>
      <trkpt lat="43.50145" lon="1.44293">
        <ele>220</ele>
        <time>2026-09-03T09:14:41Z</time>
      </trkpt>
      <trkpt lat="43.50144" lon="1.44322">
        <ele>221</ele>
        <time>2026-09-03T09:14:46Z</time>
      </trkpt>
      <trkpt lat="43.50144" lon="1.44349">
        <ele>222</ele>
        <time>2026-09-03T09:14:51Z</time>
      </trkpt>
      <trkpt lat="43.50144" lon="1.44378">
        <ele>222</ele>
        <time>2026-09-03T09:14:56Z</time>
      </trkpt>
      <trkpt lat="43.50142" lon="1.44409">
        <ele>222</ele>
        <time>2026-09-03T09:15:01Z</time>
      </trkpt>
      <trkpt lat="43.50137" lon="1.44444">
        <ele>222</ele>
        <time>2026-09-03T09:15:06Z</time>
      </trkpt>
      <trkpt lat="43.50133" lon="1.44477">
        <ele>222</ele>
        <time>2026-09-03T09:15:11Z</time>
      </trkpt>
      <trkpt lat="43.50129" lon="1.44509">
        <ele>221</ele>
        <time>2026-09-03T09:15:16Z</time>
      </trkpt>
      <trkpt lat="43.50125" lon="1.44543">
        <ele>221</ele>
        <time>2026-09-03T09:15:21Z</time>
      </trkpt>
      <trkpt lat="43.50123" lon="1.4458">
        <ele>221</ele>
        <time>2026-09-03T09:15:26Z</time>
      </trkpt>
      <trkpt lat="43.50118" lon="1.44617">
        <ele>220</ele>
        <time>2026-09-03T09:15:31Z</time>
      </trkpt>
      <trkpt lat="43.50112" lon="1.44653">
        <ele>219</ele>
        <time>2026-09-03T09:15:36Z</time>
      </trkpt>
      <trkpt lat="43.50108" lon="1.4469">
        <ele>219</ele>
        <time>2026-09-03T09:15:41Z</time>
      </trkpt>
      <trkpt lat="43.50102" lon="1.44728">
        <ele>218</ele>
        <time>2026-09-03T09:15:46Z</time>
      </trkpt>
      <trkpt lat="43.50099" lon="1.44763">
        <ele>218</ele>
        <time>2026-09-03T09:15:51Z</time>
      </trkpt>
      <trkpt lat="43.50094" lon="1.44799">
        <ele>218</ele>
        <time>2026-09-03T09:15:56Z</time>
      </trkpt>
      <trkpt lat="43.50089" lon="1.44833">
        <ele>219</ele>
        <time>2026-09-03T09:16:01Z</time>
      </trkpt>
      <trkpt lat="43.50086" lon="1.44867">
        <ele>220</ele>
        <time>2026-09-03T09:16:06Z</time>
      </trkpt>
      <trkpt lat="43.50084" lon="1.44904">
        <ele>221</ele>
        <time>2026-09-03T09:16:11Z</time>
      </trkpt>
      <trkpt lat="43.50083" lon="1.44941">
        <ele>222</ele>
        <time>2026-09-03T09:16:16Z</time>
      </trkpt>
      <trkpt lat="43.50088" lon="1.44975">
        <ele>223</ele>
        <time>2026-09-03T09:16:21Z</time>
      </trkpt>
      <trkpt lat="43.50089" lon="1.45011">
        <ele>224</ele>
        <time>2026-09-03T09:16:26Z</time>
      </trkpt>
      <trkpt lat="43.50092" lon="1.45049">
        <ele>223</ele>
        <time>2026-09-03T09:16:31Z</time>
      </trkpt>
      <trkpt lat="43.50093" lon="1.45082">
        <ele>223</ele>
        <time>2026-09-03T09:16:36Z</time>
      </trkpt>
      <trkpt lat="43.50096" lon="1.45115">
        <ele>223</ele>
        <time>2026-09-03T09:16:41Z</time>
      </trkpt>
      <trkpt lat="43.50098" lon="1.45145">
        <ele>224</ele>
        <time>2026-09-03T09:16:46Z</time>
      </trkpt>
      <trkpt lat="43.50101" lon="1.45174">
        <ele>224</ele>
        <time>2026-09-03T09:16:51Z</time>
      </trkpt>
      <trkpt lat="43.50105" lon="1.45205">
        <ele>225</ele>
        <time>2026-09-03T09:16:56Z</time>
      </trkpt>
      <trkpt lat="43.50102" lon="1.45237">
        <ele>226</ele>
        <time>2026-09-03T09:17:01Z</time>
      </trkpt>
      <trkpt lat="43.50093" lon="1.45272">
        <ele>227</ele>
        <time>2026-09-03T09:17:06Z</time>
      </trkpt>
      <trkpt lat="43.50081" lon="1.45303">
        <ele>227</ele>
        <time>2026-09-03T09:17:11Z</time>
      </trkpt>
      <trkpt lat="43.50071" lon="1.45334">
        <ele>228</ele>
        <time>2026-09-03T09:17:16Z</time>
      </trkpt>
      <trkpt lat="43.50061" lon="1.45363">
        <ele>228</ele>
        <time>2026-09-03T09:17:21Z</time>
      </trkpt>
      <trkpt lat="43.50052" lon="1.45396">
        <ele>228</ele>
        <time>2026-09-03T09:17:26Z</time>
      </trkpt>
      <trkpt lat="43.50042" lon="1.45426">
        <ele>228</ele>
        <time>2026-09-03T09:17:31Z</time>
      </trkpt>
      <trkpt lat="43.50032" lon="1.45459">
        <ele>227</ele>
        <time>2026-09-03T09:17:36Z</time>
      </trkpt>
      <trkpt lat="43.50023" lon="1.45488">
        <ele>227</ele>
        <time>2026-09-03T09:17:41Z</time>
      </trkpt>
      <trkpt lat="43.50013" lon="1.45515">
        <ele>227</ele>
        <time>2026-09-03T09:17:46Z</time>
      </trkpt>
      <trkpt lat="43.50007" lon="1.45531">
        <ele>227</ele>
        <time>2026-09-03T09:17:51Z</time>
      </trkpt>
      <trkpt lat="43.49978" lon="1.4555">
        <ele>227</ele>
        <time>2026-09-03T09:17:56Z</time>
      </trkpt>
      <trkpt lat="43.49949" lon="1.45564">
        <ele>228</ele>
        <time>2026-09-03T09:18:01Z</time>
      </trkpt>
      <trkpt lat="43.49948" lon="1.45602">
        <ele>229</ele>
        <time>2026-09-03T09:18:06Z</time>
      </trkpt>
      <trkpt lat="43.49955" lon="1.45638">
        <ele>230</ele>
        <time>2026-09-03T09:18:11Z</time>
      </trkpt>
      <trkpt lat="43.49962" lon="1.45674">
        <ele>231</ele>
        <time>2026-09-03T09:18:16Z</time>
      </trkpt>
      <trkpt lat="43.49965" lon="1.4571">
        <ele>231</ele>
        <time>2026-09-03T09:18:21Z</time>
      </trkpt>
      <trkpt lat="43.49971" lon="1.45744">
        <ele>231</ele>
        <time>2026-09-03T09:18:26Z</time>
      </trkpt>
      <trkpt lat="43.49975" lon="1.45776">
        <ele>230</ele>
        <time>2026-09-03T09:18:31Z</time>
      </trkpt>
      <trkpt lat="43.49981" lon="1.45807">
        <ele>229</ele>
        <time>2026-09-03T09:18:36Z</time>
      </trkpt>
      <trkpt lat="43.49988" lon="1.4582">
        <ele>229</ele>
        <time>2026-09-03T09:18:41Z</time>
      </trkpt>
      <trkpt lat="43.49993" lon="1.45835">
        <ele>228</ele>
        <time>2026-09-03T09:18:46Z</time>
      </trkpt>
      <trkpt lat="43.50001" lon="1.45857">
        <ele>228</ele>
        <time>2026-09-03T09:18:51Z</time>
      </trkpt>
      <trkpt lat="43.50011" lon="1.45871">
        <ele>229</ele>
        <time>2026-09-03T09:18:56Z</time>
      </trkpt>
      <trkpt lat="43.50023" lon="1.45874">
        <ele>230</ele>
        <time>2026-09-03T09:19:01Z</time>
      </trkpt>
      <trkpt lat="43.50036" lon="1.45872">
        <ele>231</ele>
        <time>2026-09-03T09:19:06Z</time>
      </trkpt>
      <trkpt lat="43.5005" lon="1.45868">
        <ele>232</ele>
        <time>2026-09-03T09:19:11Z</time>
      </trkpt>
      <trkpt lat="43.50064" lon="1.45866">
        <ele>234</ele>
        <time>2026-09-03T09:19:16Z</time>
      </trkpt>
      <trkpt lat="43.50086" lon="1.45861">
        <ele>236</ele>
        <time>2026-09-03T09:19:21Z</time>
      </trkpt>
      <trkpt lat="43.50109" lon="1.45852">
        <ele>237</ele>
        <time>2026-09-03T09:19:26Z</time>
      </trkpt>
      <trkpt lat="43.50127" lon="1.45849">
        <ele>238</ele>
        <time>2026-09-03T09:19:31Z</time>
      </trkpt>
      <trkpt lat="43.50142" lon="1.45853">
        <ele>238</ele>
        <time>2026-09-03T09:19:36Z</time>
      </trkpt>
      <trkpt lat="43.50155" lon="1.45859">
        <ele>238</ele>
        <time>2026-09-03T09:19:41Z</time>
      </trkpt>
      <trkpt lat="43.50156" lon="1.45858">
        <ele>238</ele>
        <time>2026-09-03T09:20:03Z</time>
      </trkpt>
      <trkpt lat="43.50148" lon="1.45868">
        <ele>244</ele>
        <time>2026-09-03T09:20:06Z</time>
      </trkpt>
      <trkpt lat="43.50154" lon="1.45872">
        <ele>249</ele>
        <time>2026-09-03T09:20:11Z</time>
      </trkpt>
      <trkpt lat="43.50156" lon="1.45867">
        <ele>253</ele>
        <time>2026-09-03T09:20:36Z</time>
      </trkpt>
      <trkpt lat="43.50153" lon="1.45858">
        <ele>251</ele>
        <time>2026-09-03T09:20:39Z</time>
      </trkpt>
      <trkpt lat="43.5016" lon="1.45857">
        <ele>249</ele>
        <time>2026-09-03T09:20:44Z</time>
      </trkpt>
      <trkpt lat="43.50158" lon="1.45863">
        <ele>242</ele>
        <time>2026-09-03T09:21:08Z</time>
      </trkpt>
      <trkpt lat="43.50158" lon="1.45863">
        <ele>238</ele>
        <time>2026-09-03T09:21:25Z</time>
      </trkpt>
      <trkpt lat="43.50164" lon="1.45876">
        <ele>240</ele>
        <time>2026-09-03T09:21:29Z</time>
      </trkpt>
      <trkpt lat="43.50167" lon="1.45864">
        <ele>244</ele>
        <time>2026-09-03T09:21:33Z</time>
      </trkpt>
      <trkpt lat="43.50167" lon="1.45864">
        <ele>248</ele>
        <time>2026-09-03T09:21:58Z</time>
      </trkpt>
      <trkpt lat="43.50164" lon="1.45861">
        <ele>246</ele>
        <time>2026-09-03T09:22:01Z</time>
      </trkpt>
      <trkpt lat="43.50163" lon="1.45868">
        <ele>246</ele>
        <time>2026-09-03T09:22:05Z</time>
      </trkpt>
      <trkpt lat="43.50172" lon="1.45863">
        <ele>253</ele>
        <time>2026-09-03T09:23:33Z</time>
      </trkpt>
      <trkpt lat="43.50183" lon="1.45873">
        <ele>253</ele>
        <time>2026-09-03T09:23:38Z</time>
      </trkpt>
      <trkpt lat="43.50198" lon="1.45884">
        <ele>253</ele>
        <time>2026-09-03T09:23:43Z</time>
      </trkpt>
      <trkpt lat="43.50213" lon="1.45895">
        <ele>251</ele>
        <time>2026-09-03T09:23:48Z</time>
      </trkpt>
      <trkpt lat="43.50228" lon="1.45908">
        <ele>251</ele>
        <time>2026-09-03T09:23:53Z</time>
      </trkpt>
      <trkpt lat="43.50245" lon="1.45919">
        <ele>251</ele>
        <time>2026-09-03T09:23:58Z</time>
      </trkpt>
      <trkpt lat="43.50261" lon="1.45933">
        <ele>250</ele>
        <time>2026-09-03T09:24:03Z</time>
      </trkpt>
      <trkpt lat="43.50275" lon="1.45944">
        <ele>250</ele>
        <time>2026-09-03T09:24:08Z</time>
      </trkpt>
      <trkpt lat="43.50285" lon="1.45961">
        <ele>249</ele>
        <time>2026-09-03T09:24:13Z</time>
      </trkpt>
      <trkpt lat="43.50291" lon="1.45982">
        <ele>248</ele>
        <time>2026-09-03T09:24:18Z</time>
      </trkpt>
      <trkpt lat="43.50296" lon="1.46003">
        <ele>248</ele>
        <time>2026-09-03T09:24:23Z</time>
      </trkpt>
      <trkpt lat="43.50298" lon="1.46022">
        <ele>247</ele>
        <time>2026-09-03T09:24:28Z</time>
      </trkpt>
      <trkpt lat="43.50304" lon="1.46041">
        <ele>246</ele>
        <time>2026-09-03T09:24:33Z</time>
      </trkpt>
      <trkpt lat="43.50307" lon="1.46055">
        <ele>246</ele>
        <time>2026-09-03T09:24:38Z</time>
      </trkpt>
      <trkpt lat="43.50308" lon="1.46068">
        <ele>246</ele>
        <time>2026-09-03T09:24:43Z</time>
      </trkpt>
      <trkpt lat="43.50312" lon="1.46084">
        <ele>246</ele>
        <time>2026-09-03T09:24:48Z</time>
      </trkpt>
      <trkpt lat="43.50314" lon="1.46095">
        <ele>247</ele>
        <time>2026-09-03T09:24:53Z</time>
      </trkpt>
      <trkpt lat="43.50313" lon="1.46111">
        <ele>247</ele>
        <time>2026-09-03T09:24:58Z</time>
      </trkpt>
      <trkpt lat="43.5031" lon="1.46123">
        <ele>246</ele>
        <time>2026-09-03T09:25:03Z</time>
      </trkpt>
      <trkpt lat="43.5031" lon="1.46132">
        <ele>246</ele>
        <time>2026-09-03T09:25:08Z</time>
      </trkpt>
      <trkpt lat="43.50304" lon="1.46137">
        <ele>246</ele>
        <time>2026-09-03T09:25:13Z</time>
      </trkpt>
      <trkpt lat="43.50301" lon="1.46143">
        <ele>246</ele>
        <time>2026-09-03T09:25:18Z</time>
      </trkpt>
      <trkpt lat="43.50299" lon="1.46149">
        <ele>247</ele>
        <time>2026-09-03T09:25:27Z</time>
      </trkpt>
      <trkpt lat="43.50297" lon="1.46155">
        <ele>248</ele>
        <time>2026-09-03T09:25:37Z</time>
      </trkpt>
      <trkpt lat="43.50296" lon="1.46155">
        <ele>248</ele>
        <time>2026-09-03T09:26:05Z</time>
      </trkpt>
      <trkpt lat="43.50288" lon="1.46167">
        <ele>250</ele>
        <time>2026-09-03T09:26:08Z</time>
      </trkpt>
      <trkpt lat="43.50295" lon="1.46159">
        <ele>251</ele>
        <time>2026-09-03T09:26:12Z</time>
      </trkpt>
      <trkpt lat="43.50295" lon="1.46158">
        <ele>251</ele>
        <time>2026-09-03T09:26:37Z</time>
      </trkpt>
      <trkpt lat="43.5029" lon="1.46172">
        <ele>255</ele>
        <time>2026-09-03T09:26:40Z</time>
      </trkpt>
      <trkpt lat="43.50283" lon="1.46177">
        <ele>258</ele>
        <time>2026-09-03T09:26:45Z</time>
      </trkpt>
      <trkpt lat="43.50285" lon="1.4617">
        <ele>259</ele>
        <time>2026-09-03T09:27:01Z</time>
      </trkpt>
      <trkpt lat="43.50287" lon="1.46165">
        <ele>259</ele>
        <time>2026-09-03T09:27:10Z</time>
      </trkpt>
      <trkpt lat="43.50287" lon="1.46164">
        <ele>259</ele>
        <time>2026-09-03T09:27:27Z</time>
      </trkpt>
      <trkpt lat="43.5029" lon="1.46145">
        <ele>258</ele>
        <time>2026-09-03T09:27:30Z</time>
      </trkpt>
      <trkpt lat="43.50298" lon="1.46136">
        <ele>257</ele>
        <time>2026-09-03T09:27:34Z</time>
      </trkpt>
      <trkpt lat="43.50291" lon="1.46176">
        <ele>248</ele>
        <time>2026-09-03T09:28:38Z</time>
      </trkpt>
      <trkpt lat="43.50286" lon="1.46143">
        <ele>245</ele>
        <time>2026-09-03T09:28:42Z</time>
      </trkpt>
      <trkpt lat="43.50286" lon="1.46142">
        <ele>250</ele>
        <time>2026-09-03T09:29:08Z</time>
      </trkpt>
      <trkpt lat="43.50298" lon="1.46168">
        <ele>258</ele>
        <time>2026-09-03T09:29:11Z</time>
      </trkpt>
      <trkpt lat="43.50288" lon="1.46174">
        <ele>268</ele>
        <time>2026-09-03T09:29:15Z</time>
      </trkpt>
      <trkpt lat="43.5029" lon="1.46168">
        <ele>267</ele>
        <time>2026-09-03T09:29:34Z</time>
      </trkpt>
      <trkpt lat="43.50293" lon="1.46162">
        <ele>272</ele>
        <time>2026-09-03T09:29:51Z</time>
      </trkpt>
      <trkpt lat="43.50293" lon="1.4616">
        <ele>278</ele>
        <time>2026-09-03T09:30:14Z</time>
      </trkpt>
      <trkpt lat="43.50284" lon="1.4616">
        <ele>275</ele>
        <time>2026-09-03T09:30:17Z</time>
      </trkpt>
      <trkpt lat="43.50288" lon="1.46163">
        <ele>269</ele>
        <time>2026-09-03T09:30:45Z</time>
      </trkpt>
      <trkpt lat="43.50288" lon="1.46163">
        <ele>264</ele>
        <time>2026-09-03T09:31:02Z</time>
      </trkpt>
      <trkpt lat="43.50284" lon="1.46164">
        <ele>267</ele>
        <time>2026-09-03T09:31:05Z</time>
      </trkpt>
      <trkpt lat="43.50293" lon="1.46172">
        <ele>268</ele>
        <time>2026-09-03T09:31:10Z</time>
      </trkpt>
      <trkpt lat="43.50294" lon="1.46165">
        <ele>266</ele>
        <time>2026-09-03T09:31:18Z</time>
      </trkpt>
      <trkpt lat="43.50288" lon="1.4617">
        <ele>267</ele>
        <time>2026-09-03T09:31:23Z</time>
      </trkpt>
      <trkpt lat="43.50282" lon="1.46178">
        <ele>268</ele>
        <time>2026-09-03T09:31:28Z</time>
      </trkpt>
      <trkpt lat="43.50276" lon="1.46181">
        <ele>263</ele>
        <time>2026-09-03T09:31:33Z</time>
      </trkpt>
      <trkpt lat="43.50272" lon="1.46189">
        <ele>260</ele>
        <time>2026-09-03T09:31:38Z</time>
      </trkpt>
      <trkpt lat="43.50299" lon="1.46205">
        <ele>262</ele>
        <time>2026-09-03T09:31:58Z</time>
      </trkpt>
      <trkpt lat="43.50304" lon="1.46215">
        <ele>261</ele>
        <time>2026-09-03T09:32:03Z</time>
      </trkpt>
      <trkpt lat="43.50309" lon="1.46223">
        <ele>260</ele>
        <time>2026-09-03T09:32:08Z</time>
      </trkpt>
      <trkpt lat="43.50312" lon="1.46234">
        <ele>260</ele>
        <time>2026-09-03T09:32:13Z</time>
      </trkpt>
      <trkpt lat="43.50317" lon="1.46245">
        <ele>259</ele>
        <time>2026-09-03T09:32:18Z</time>
      </trkpt>
      <trkpt lat="43.50322" lon="1.46255">
        <ele>260</ele>
        <time>2026-09-03T09:32:23Z</time>
      </trkpt>
      <trkpt lat="43.50325" lon="1.46268">
        <ele>260</ele>
        <time>2026-09-03T09:32:28Z</time>
      </trkpt>
      <trkpt lat="43.50326" lon="1.46279">
        <ele>260</ele>
        <time>2026-09-03T09:32:33Z</time>
      </trkpt>
      <trkpt lat="43.50327" lon="1.46289">
        <ele>260</ele>
        <time>2026-09-03T09:32:38Z</time>
      </trkpt>
      <trkpt lat="43.50328" lon="1.46301">
        <ele>260</ele>
        <time>2026-09-03T09:32:43Z</time>
      </trkpt>
      <trkpt lat="43.50331" lon="1.46317">
        <ele>260</ele>
        <time>2026-09-03T09:32:48Z</time>
      </trkpt>
      <trkpt lat="43.50333" lon="1.46333">
        <ele>259</ele>
        <time>2026-09-03T09:32:53Z</time>
      </trkpt>
      <trkpt lat="43.50334" lon="1.4635">
        <ele>257</ele>
        <time>2026-09-03T09:32:58Z</time>
      </trkpt>
      <trkpt lat="43.50337" lon="1.46367">
        <ele>256</ele>
        <time>2026-09-03T09:33:03Z</time>
      </trkpt>
      <trkpt lat="43.50339" lon="1.46382">
        <ele>255</ele>
        <time>2026-09-03T09:33:08Z</time>
      </trkpt>
      <trkpt lat="43.50342" lon="1.46394">
        <ele>255</ele>
        <time>2026-09-03T09:33:13Z</time>
      </trkpt>
      <trkpt lat="43.5035" lon="1.46405">
        <ele>256</ele>
        <time>2026-09-03T09:33:18Z</time>
      </trkpt>
      <trkpt lat="43.50358" lon="1.46431">
        <ele>257</ele>
        <time>2026-09-03T09:33:23Z</time>
      </trkpt>
      <trkpt lat="43.50366" lon="1.4645">
        <ele>259</ele>
        <time>2026-09-03T09:33:28Z</time>
      </trkpt>
      <trkpt lat="43.50379" lon="1.46455">
        <ele>260</ele>
        <time>2026-09-03T09:33:33Z</time>
      </trkpt>
      <trkpt lat="43.50381" lon="1.46466">
        <ele>261</ele>
        <time>2026-09-03T09:33:38Z</time>
      </trkpt>
      <trkpt lat="43.50383" lon="1.46481">
        <ele>261</ele>
        <time>2026-09-03T09:33:43Z</time>
      </trkpt>
      <trkpt lat="43.5038" lon="1.46497">
        <ele>261</ele>
        <time>2026-09-03T09:33:48Z</time>
      </trkpt>
      <trkpt lat="43.50383" lon="1.46512">
        <ele>260</ele>
        <time>2026-09-03T09:33:53Z</time>
      </trkpt>
      <trkpt lat="43.50378" lon="1.46526">
        <ele>259</ele>
        <time>2026-09-03T09:33:58Z</time>
      </trkpt>
      <trkpt lat="43.50382" lon="1.46532">
        <ele>257</ele>
        <time>2026-09-03T09:34:03Z</time>
      </trkpt>
      <trkpt lat="43.50384" lon="1.46544">
        <ele>256</ele>
        <time>2026-09-03T09:34:08Z</time>
      </trkpt>
      <trkpt lat="43.50381" lon="1.46558">
        <ele>255</ele>
        <time>2026-09-03T09:34:13Z</time>
      </trkpt>
      <trkpt lat="43.5038" lon="1.46568">
        <ele>255</ele>
        <time>2026-09-03T09:34:18Z</time>
      </trkpt>
      <trkpt lat="43.50386" lon="1.46574">
        <ele>254</ele>
        <time>2026-09-03T09:34:23Z</time>
      </trkpt>
      <trkpt lat="43.50392" lon="1.46579">
        <ele>255</ele>
        <time>2026-09-03T09:34:28Z</time>
      </trkpt>
      <trkpt lat="43.504" lon="1.46585">
        <ele>255</ele>
        <time>2026-09-03T09:34:33Z</time>
      </trkpt>
      <trkpt lat="43.50401" lon="1.46598">
        <ele>256</ele>
        <time>2026-09-03T09:34:38Z</time>
      </trkpt>
      <trkpt lat="43.50398" lon="1.46603">
        <ele>256</ele>
        <time>2026-09-03T09:34:43Z</time>
      </trkpt>
      <trkpt lat="43.50395" lon="1.4661">
        <ele>257</ele>
        <time>2026-09-03T09:34:48Z</time>
      </trkpt>
      <trkpt lat="43.50395" lon="1.46617">
        <ele>257</ele>
        <time>2026-09-03T09:34:53Z</time>
      </trkpt>
      <trkpt lat="43.50397" lon="1.46625">
        <ele>257</ele>
        <time>2026-09-03T09:34:58Z</time>
      </trkpt>
      <trkpt lat="43.50397" lon="1.46638">
        <ele>258</ele>
        <time>2026-09-03T09:35:03Z</time>
      </trkpt>
      <trkpt lat="43.50396" lon="1.46656">
        <ele>258</ele>
        <time>2026-09-03T09:35:08Z</time>
      </trkpt>
      <trkpt lat="43.50392" lon="1.46665">
        <ele>259</ele>
        <time>2026-09-03T09:35:13Z</time>
      </trkpt>
      <trkpt lat="43.50391" lon="1.46678">
        <ele>259</ele>
        <time>2026-09-03T09:35:18Z</time>
      </trkpt>
      <trkpt lat="43.50388" lon="1.46687">
        <ele>259</ele>
        <time>2026-09-03T09:35:23Z</time>
      </trkpt>
      <trkpt lat="43.50382" lon="1.46693">
        <ele>259</ele>
        <time>2026-09-03T09:35:28Z</time>
      </trkpt>
      <trkpt lat="43.50381" lon="1.46704">
        <ele>260</ele>
        <time>2026-09-03T09:35:33Z</time>
      </trkpt>
      <trkpt lat="43.50375" lon="1.4671">
        <ele>260</ele>
        <time>2026-09-03T09:35:38Z</time>
      </trkpt>
      <trkpt lat="43.50368" lon="1.4672">
        <ele>260</ele>
        <time>2026-09-03T09:35:43Z</time>
      </trkpt>
      <trkpt lat="43.50359" lon="1.46728">
        <ele>260</ele>
        <time>2026-09-03T09:35:48Z</time>
      </trkpt>
      <trkpt lat="43.50355" lon="1.46738">
        <ele>260</ele>
        <time>2026-09-03T09:35:53Z</time>
      </trkpt>
      <trkpt lat="43.50353" lon="1.46748">
        <ele>259</ele>
        <time>2026-09-03T09:35:58Z</time>
      </trkpt>
      <trkpt lat="43.50349" lon="1.46753">
        <ele>261</ele>
        <time>2026-09-03T09:36:09Z</time>
      </trkpt>
      <trkpt lat="43.50339" lon="1.46769">
        <ele>269</ele>
        <time>2026-09-03T09:36:14Z</time>
      </trkpt>
      <trkpt lat="43.50345" lon="1.46755">
        <ele>273</ele>
        <time>2026-09-03T09:36:26Z</time>
      </trkpt>
      <trkpt lat="43.50339" lon="1.46763">
        <ele>277</ele>
        <time>2026-09-03T09:36:31Z</time>
      </trkpt>
      <trkpt lat="43.50334" lon="1.46761">
        <ele>282</ele>
        <time>2026-09-03T09:36:39Z</time>
      </trkpt>
      <trkpt lat="43.50323" lon="1.46762">
        <ele>283</ele>
        <time>2026-09-03T09:36:44Z</time>
      </trkpt>
      <trkpt lat="43.50316" lon="1.46768">
        <ele>279</ele>
        <time>2026-09-03T09:36:49Z</time>
      </trkpt>
      <trkpt lat="43.50311" lon="1.46779">
        <ele>279</ele>
        <time>2026-09-03T09:36:54Z</time>
      </trkpt>
      <trkpt lat="43.50303" lon="1.46783">
        <ele>279</ele>
        <time>2026-09-03T09:36:59Z</time>
      </trkpt>
      <trkpt lat="43.50296" lon="1.46782">
        <ele>279</ele>
        <time>2026-09-03T09:37:04Z</time>
      </trkpt>
      <trkpt lat="43.50292" lon="1.46787">
        <ele>279</ele>
        <time>2026-09-03T09:37:11Z</time>
      </trkpt>
      <trkpt lat="43.50288" lon="1.46794">
        <ele>279</ele>
        <time>2026-09-03T09:37:16Z</time>
      </trkpt>
      <trkpt lat="43.50279" lon="1.46797">
        <ele>279</ele>
        <time>2026-09-03T09:37:21Z</time>
      </trkpt>
      <trkpt lat="43.50271" lon="1.46796">
        <ele>279</ele>
        <time>2026-09-03T09:37:26Z</time>
      </trkpt>
      <trkpt lat="43.50264" lon="1.46795">
        <ele>280</ele>
        <time>2026-09-03T09:37:31Z</time>
      </trkpt>
      <trkpt lat="43.50257" lon="1.46785">
        <ele>280</ele>
        <time>2026-09-03T09:37:36Z</time>
      </trkpt>
      <trkpt lat="43.50248" lon="1.46773">
        <ele>281</ele>
        <time>2026-09-03T09:37:41Z</time>
      </trkpt>
      <trkpt lat="43.50242" lon="1.46764">
        <ele>283</ele>
        <time>2026-09-03T09:37:46Z</time>
      </trkpt>
      <trkpt lat="43.50237" lon="1.46755">
        <ele>283</ele>
        <time>2026-09-03T09:37:51Z</time>
      </trkpt>
      <trkpt lat="43.50228" lon="1.46758">
        <ele>284</ele>
        <time>2026-09-03T09:37:56Z</time>
      </trkpt>
      <trkpt lat="43.5022" lon="1.46762">
        <ele>285</ele>
        <time>2026-09-03T09:38:01Z</time>
      </trkpt>
      <trkpt lat="43.50211" lon="1.46759">
        <ele>285</ele>
        <time>2026-09-03T09:38:06Z</time>
      </trkpt>
      <trkpt lat="43.50201" lon="1.46756">
        <ele>286</ele>
        <time>2026-09-03T09:38:11Z</time>
      </trkpt>
      <trkpt lat="43.50197" lon="1.46742">
        <ele>287</ele>
        <time>2026-09-03T09:38:16Z</time>
      </trkpt>
      <trkpt lat="43.50188" lon="1.46736">
        <ele>288</ele>
        <time>2026-09-03T09:38:21Z</time>
      </trkpt>
      <trkpt lat="43.50182" lon="1.46728">
        <ele>289</ele>
        <time>2026-09-03T09:38:26Z</time>
      </trkpt>
      <trkpt lat="43.50179" lon="1.4672">
        <ele>289</ele>
        <time>2026-09-03T09:38:31Z</time>
      </trkpt>
      <trkpt lat="43.50181" lon="1.4671">
        <ele>289</ele>
        <time>2026-09-03T09:38:36Z</time>
      </trkpt>
      <trkpt lat="43.50177" lon="1.46703">
        <ele>289</ele>
        <time>2026-09-03T09:38:41Z</time>
      </trkpt>
      <trkpt lat="43.50172" lon="1.46701">
        <ele>289</ele>
        <time>2026-09-03T09:38:46Z</time>
      </trkpt>
      <trkpt lat="43.50164" lon="1.46697">
        <ele>289</ele>
        <time>2026-09-03T09:38:51Z</time>
      </trkpt>
      <trkpt lat="43.50158" lon="1.46693">
        <ele>290</ele>
        <time>2026-09-03T09:38:56Z</time>
      </trkpt>
      <trkpt lat="43.50151" lon="1.46691">
        <ele>290</ele>
        <time>2026-09-03T09:39:01Z</time>
      </trkpt>
      <trkpt lat="43.50146" lon="1.46694">
        <ele>290</ele>
        <time>2026-09-03T09:39:06Z</time>
      </trkpt>
      <trkpt lat="43.50141" lon="1.46694">
        <ele>290</ele>
        <time>2026-09-03T09:39:13Z</time>
      </trkpt>
      <trkpt lat="43.50131" lon="1.46691">
        <ele>290</ele>
        <time>2026-09-03T09:39:18Z</time>
      </trkpt>
      <trkpt lat="43.50125" lon="1.46704">
        <ele>291</ele>
        <time>2026-09-03T09:39:23Z</time>
      </trkpt>
      <trkpt lat="43.50119" lon="1.4672">
        <ele>292</ele>
        <time>2026-09-03T09:39:28Z</time>
      </trkpt>
      <trkpt lat="43.50117" lon="1.46744">
        <ele>292</ele>
        <time>2026-09-03T09:39:33Z</time>
      </trkpt>
      <trkpt lat="43.50118" lon="1.46774">
        <ele>291</ele>
        <time>2026-09-03T09:39:38Z</time>
      </trkpt>
      <trkpt lat="43.50129" lon="1.46813">
        <ele>291</ele>
        <time>2026-09-03T09:39:43Z</time>
      </trkpt>
      <trkpt lat="43.50143" lon="1.46852">
        <ele>289</ele>
        <time>2026-09-03T09:39:48Z</time>
      </trkpt>
      <trkpt lat="43.50163" lon="1.46881">
        <ele>287</ele>
        <time>2026-09-03T09:39:53Z</time>
      </trkpt>
      <trkpt lat="43.50185" lon="1.46908">
        <ele>286</ele>
        <time>2026-09-03T09:39:58Z</time>
      </trkpt>
      <trkpt lat="43.50203" lon="1.46934">
        <ele>285</ele>
        <time>2026-09-03T09:40:03Z</time>
      </trkpt>
      <trkpt lat="43.50221" lon="1.46958">
        <ele>284</ele>
        <time>2026-09-03T09:40:08Z</time>
      </trkpt>
      <trkpt lat="43.50234" lon="1.46988">
        <ele>283</ele>
        <time>2026-09-03T09:40:13Z</time>
      </trkpt>
      <trkpt lat="43.50245" lon="1.47024">
        <ele>283</ele>
        <time>2026-09-03T09:40:18Z</time>
      </trkpt>
      <trkpt lat="43.50264" lon="1.47061">
        <ele>283</ele>
        <time>2026-09-03T09:40:23Z</time>
      </trkpt>
      <trkpt lat="43.50283" lon="1.47097">
        <ele>283</ele>
        <time>2026-09-03T09:40:28Z</time>
      </trkpt>
      <trkpt lat="43.50296" lon="1.47123">
        <ele>283</ele>
        <time>2026-09-03T09:40:33Z</time>
      </trkpt>
      <trkpt lat="43.50303" lon="1.47144">
        <ele>283</ele>
        <time>2026-09-03T09:40:38Z</time>
      </trkpt>
      <trkpt lat="43.50302" lon="1.47164">
        <ele>284</ele>
        <time>2026-09-03T09:40:43Z</time>
      </trkpt>
      <trkpt lat="43.50299" lon="1.47182">
        <ele>284</ele>
        <time>2026-09-03T09:40:48Z</time>
      </trkpt>
      <trkpt lat="43.50294" lon="1.47198">
        <ele>286</ele>
        <time>2026-09-03T09:40:53Z</time>
      </trkpt>
      <trkpt lat="43.5029" lon="1.47216">
        <ele>287</ele>
        <time>2026-09-03T09:40:58Z</time>
      </trkpt>
      <trkpt lat="43.50285" lon="1.47233">
        <ele>288</ele>
        <time>2026-09-03T09:41:03Z</time>
      </trkpt>
      <trkpt lat="43.5028" lon="1.47249">
        <ele>289</ele>
        <time>2026-09-03T09:41:08Z</time>
      </trkpt>
      <trkpt lat="43.50277" lon="1.47264">
        <ele>290</ele>
        <time>2026-09-03T09:41:13Z</time>
      </trkpt>
      <trkpt lat="43.50282" lon="1.47277">
        <ele>291</ele>
        <time>2026-09-03T09:41:18Z</time>
      </trkpt>
      <trkpt lat="43.5029" lon="1.47286">
        <ele>292</ele>
        <time>2026-09-03T09:41:23Z</time>
      </trkpt>
      <trkpt lat="43.50298" lon="1.47293">
        <ele>293</ele>
        <time>2026-09-03T09:41:28Z</time>
      </trkpt>
      <trkpt lat="43.50309" lon="1.47299">
        <ele>294</ele>
        <time>2026-09-03T09:41:33Z</time>
      </trkpt>
      <trkpt lat="43.50318" lon="1.47308">
        <ele>296</ele>
        <time>2026-09-03T09:41:38Z</time>
      </trkpt>
      <trkpt lat="43.50328" lon="1.47318">
        <ele>297</ele>
        <time>2026-09-03T09:41:43Z</time>
      </trkpt>
      <trkpt lat="43.50341" lon="1.47329">
        <ele>298</ele>
        <time>2026-09-03T09:41:48Z</time>
      </trkpt>
      <trkpt lat="43.50359" lon="1.47346">
        <ele>298</ele>
        <time>2026-09-03T09:41:53Z</time>
      </trkpt>
      <trkpt lat="43.50381" lon="1.47368">
        <ele>298</ele>
        <time>2026-09-03T09:41:58Z</time>
      </trkpt>
      <trkpt lat="43.504" lon="1.47385">
        <ele>298</ele>
        <time>2026-09-03T09:42:03Z</time>
      </trkpt>
      <trkpt lat="43.50414" lon="1.47401">
        <ele>297</ele>
        <time>2026-09-03T09:42:08Z</time>
      </trkpt>
      <trkpt lat="43.50427" lon="1.47413">
        <ele>297</ele>
        <time>2026-09-03T09:42:13Z</time>
      </trkpt>
      <trkpt lat="43.50437" lon="1.47423">
        <ele>298</ele>
        <time>2026-09-03T09:42:18Z</time>
      </trkpt>
      <trkpt lat="43.50448" lon="1.47432">
        <ele>299</ele>
        <time>2026-09-03T09:42:23Z</time>
      </trkpt>
      <trkpt lat="43.50457" lon="1.47439">
        <ele>300</ele>
        <time>2026-09-03T09:42:28Z</time>
      </trkpt>
      <trkpt lat="43.50465" lon="1.47446">
        <ele>302</ele>
        <time>2026-09-03T09:42:33Z</time>
      </trkpt>
      <trkpt lat="43.50476" lon="1.47453">
        <ele>304</ele>
        <time>2026-09-03T09:42:38Z</time>
      </trkpt>
      <trkpt lat="43.50485" lon="1.47466">
        <ele>306</ele>
        <time>2026-09-03T09:42:43Z</time>
      </trkpt>
      <trkpt lat="43.50483" lon="1.47485">
        <ele>307</ele>
        <time>2026-09-03T09:42:48Z</time>
      </trkpt>
      <trkpt lat="43.50482" lon="1.47504">
        <ele>307</ele>
        <time>2026-09-03T09:42:53Z</time>
      </trkpt>
      <trkpt lat="43.50481" lon="1.47521">
        <ele>308</ele>
        <time>2026-09-03T09:42:58Z</time>
      </trkpt>
      <trkpt lat="43.50479" lon="1.47534">
        <ele>308</ele>
        <time>2026-09-03T09:43:03Z</time>
      </trkpt>
      <trkpt lat="43.50471" lon="1.47551">
        <ele>308</ele>
        <time>2026-09-03T09:43:08Z</time>
      </trkpt>
      <trkpt lat="43.50465" lon="1.47565">
        <ele>309</ele>
        <time>2026-09-03T09:43:13Z</time>
      </trkpt>
      <trkpt lat="43.50456" lon="1.47582">
        <ele>309</ele>
        <time>2026-09-03T09:43:18Z</time>
      </trkpt>
      <trkpt lat="43.50446" lon="1.476">
        <ele>309</ele>
        <time>2026-09-03T09:43:23Z</time>
      </trkpt>
      <trkpt lat="43.50437" lon="1.47617">
        <ele>309</ele>
        <time>2026-09-03T09:43:28Z</time>
      </trkpt>
      <trkpt lat="43.5044" lon="1.47633">
        <ele>309</ele>
        <time>2026-09-03T09:43:33Z</time>
      </trkpt>
      <trkpt lat="43.50453" lon="1.4764">
        <ele>309</ele>
        <time>2026-09-03T09:43:38Z</time>
      </trkpt>
      <trkpt lat="43.50469" lon="1.47645">
        <ele>310</ele>
        <time>2026-09-03T09:43:43Z</time>
      </trkpt>
      <trkpt lat="43.50493" lon="1.47648">
        <ele>311</ele>
        <time>2026-09-03T09:43:48Z</time>
      </trkpt>
      <trkpt lat="43.50514" lon="1.47656">
        <ele>311</ele>
        <time>2026-09-03T09:43:53Z</time>
      </trkpt>
      <trkpt lat="43.50537" lon="1.47661">
        <ele>312</ele>
        <time>2026-09-03T09:43:58Z</time>
      </trkpt>
      <trkpt lat="43.5056" lon="1.47667">
        <ele>312</ele>
        <time>2026-09-03T09:44:03Z</time>
      </trkpt>
      <trkpt lat="43.50576" lon="1.4767">
        <ele>312</ele>
        <time>2026-09-03T09:44:08Z</time>
      </trkpt>
      <trkpt lat="43.50589" lon="1.47673">
        <ele>313</ele>
        <time>2026-09-03T09:44:13Z</time>
      </trkpt>
      <trkpt lat="43.50602" lon="1.47681">
        <ele>314</ele>
        <time>2026-09-03T09:44:18Z</time>
      </trkpt>
      <trkpt lat="43.50614" lon="1.47682">
        <ele>316</ele>
        <time>2026-09-03T09:44:23Z</time>
      </trkpt>
      <trkpt lat="43.50625" lon="1.47685">
        <ele>318</ele>
        <time>2026-09-03T09:44:28Z</time>
      </trkpt>
      <trkpt lat="43.50637" lon="1.47687">
        <ele>320</ele>
        <time>2026-09-03T09:44:33Z</time>
      </trkpt>
      <trkpt lat="43.50651" lon="1.47692">
        <ele>321</ele>
        <time>2026-09-03T09:44:38Z</time>
      </trkpt>
      <trkpt lat="43.50663" lon="1.47694">
        <ele>323</ele>
        <time>2026-09-03T09:44:43Z</time>
      </trkpt>
      <trkpt lat="43.50676" lon="1.47698">
        <ele>324</ele>
        <time>2026-09-03T09:44:48Z</time>
      </trkpt>
      <trkpt lat="43.50688" lon="1.47701">
        <ele>325</ele>
        <time>2026-09-03T09:44:53Z</time>
      </trkpt>
      <trkpt lat="43.507" lon="1.47703">
        <ele>326</ele>
        <time>2026-09-03T09:44:58Z</time>
      </trkpt>
      <trkpt lat="43.50713" lon="1.47706">
        <ele>327</ele>
        <time>2026-09-03T09:45:03Z</time>
      </trkpt>
      <trkpt lat="43.50727" lon="1.4771">
        <ele>328</ele>
        <time>2026-09-03T09:45:08Z</time>
      </trkpt>
      <trkpt lat="43.50727" lon="1.4773">
        <ele>329</ele>
        <time>2026-09-03T09:45:13Z</time>
      </trkpt>
      <trkpt lat="43.50712" lon="1.47747">
        <ele>330</ele>
        <time>2026-09-03T09:45:18Z</time>
      </trkpt>
      <trkpt lat="43.50691" lon="1.47769">
        <ele>330</ele>
        <time>2026-09-03T09:45:23Z</time>
      </trkpt>
      <trkpt lat="43.50666" lon="1.47796">
        <ele>330</ele>
        <time>2026-09-03T09:45:28Z</time>
      </trkpt>
      <trkpt lat="43.50643" lon="1.47823">
        <ele>330</ele>
        <time>2026-09-03T09:45:33Z</time>
      </trkpt>
      <trkpt lat="43.50618" lon="1.4785">
        <ele>329</ele>
        <time>2026-09-03T09:45:38Z</time>
      </trkpt>
      <trkpt lat="43.50591" lon="1.47879">
        <ele>329</ele>
        <time>2026-09-03T09:45:43Z</time>
      </trkpt>
      <trkpt lat="43.50566" lon="1.47906">
        <ele>329</ele>
        <time>2026-09-03T09:45:48Z</time>
      </trkpt>
      <trkpt lat="43.50541" lon="1.47933">
        <ele>329</ele>
        <time>2026-09-03T09:45:53Z</time>
      </trkpt>
      <trkpt lat="43.5052" lon="1.47953">
        <ele>329</ele>
        <time>2026-09-03T09:45:58Z</time>
      </trkpt>
      <trkpt lat="43.50502" lon="1.47977">
        <ele>329</ele>
        <time>2026-09-03T09:46:03Z</time>
      </trkpt>
      <trkpt lat="43.50488" lon="1.48">
        <ele>329</ele>
        <time>2026-09-03T09:46:08Z</time>
      </trkpt>
      <trkpt lat="43.50474" lon="1.48028">
        <ele>330</ele>
        <time>2026-09-03T09:46:13Z</time>
      </trkpt>
      <trkpt lat="43.50464" lon="1.48051">
        <ele>331</ele>
        <time>2026-09-03T09:46:18Z</time>
      </trkpt>
      <trkpt lat="43.50453" lon="1.48079">
        <ele>331</ele>
        <time>2026-09-03T09:46:23Z</time>
      </trkpt>
      <trkpt lat="43.50443" lon="1.48111">
        <ele>332</ele>
        <time>2026-09-03T09:46:28Z</time>
      </trkpt>
      <trkpt lat="43.50436" lon="1.48136">
        <ele>332</ele>
        <time>2026-09-03T09:46:33Z</time>
      </trkpt>
      <trkpt lat="43.50423" lon="1.48164">
        <ele>332</ele>
        <time>2026-09-03T09:46:38Z</time>
      </trkpt>
      <trkpt lat="43.5041" lon="1.48195">
        <ele>332</ele>
        <time>2026-09-03T09:46:43Z</time>
      </trkpt>
      <trkpt lat="43.50398" lon="1.48219">
        <ele>333</ele>
        <time>2026-09-03T09:46:48Z</time>
      </trkpt>
      <trkpt lat="43.50383" lon="1.48248">
        <ele>333</ele>
        <time>2026-09-03T09:46:53Z</time>
      </trkpt>
      <trkpt lat="43.50372" lon="1.4828">
        <ele>333</ele>
        <time>2026-09-03T09:46:58Z</time>
      </trkpt>
      <trkpt lat="43.50358" lon="1.48311">
        <ele>333</ele>
        <time>2026-09-03T09:47:03Z</time>
      </trkpt>
      <trkpt lat="43.50349" lon="1.48339">
        <ele>334</ele>
        <time>2026-09-03T09:47:08Z</time>
      </trkpt>
      <trkpt lat="43.50337" lon="1.48373">
        <ele>334</ele>
        <time>2026-09-03T09:47:13Z</time>
      </trkpt>
      <trkpt lat="43.50325" lon="1.48408">
        <ele>334</ele>
        <time>2026-09-03T09:47:18Z</time>
      </trkpt>
      <trkpt lat="43.50312" lon="1.48446">
        <ele>334</ele>
        <time>2026-09-03T09:47:23Z</time>
      </trkpt>
      <trkpt lat="43.50296" lon="1.48494">
        <ele>333</ele>
        <time>2026-09-03T09:47:28Z</time>
      </trkpt>
      <trkpt lat="43.50288" lon="1.48526">
        <ele>332</ele>
        <time>2026-09-03T09:47:33Z</time>
      </trkpt>
      <trkpt lat="43.50289" lon="1.48547">
        <ele>331</ele>
        <time>2026-09-03T09:47:38Z</time>
      </trkpt>
      <trkpt lat="43.5029" lon="1.4856">
        <ele>329</ele>
        <time>2026-09-03T09:47:43Z</time>
      </trkpt>
      <trkpt lat="43.50293" lon="1.48598">
        <ele>328</ele>
        <time>2026-09-03T09:47:48Z</time>
      </trkpt>
      <trkpt lat="43.50294" lon="1.48648">
        <ele>326</ele>
        <time>2026-09-03T09:47:53Z</time>
      </trkpt>
      <trkpt lat="43.50293" lon="1.48703">
        <ele>323</ele>
        <time>2026-09-03T09:47:58Z</time>
      </trkpt>
      <trkpt lat="43.50301" lon="1.48742">
        <ele>321</ele>
        <time>2026-09-03T09:48:03Z</time>
      </trkpt>
      <trkpt lat="43.50333" lon="1.48763">
        <ele>318</ele>
        <time>2026-09-03T09:48:08Z</time>
      </trkpt>
      <trkpt lat="43.50367" lon="1.48794">
        <ele>314</ele>
        <time>2026-09-03T09:48:13Z</time>
      </trkpt>
      <trkpt lat="43.50386" lon="1.48825">
        <ele>312</ele>
        <time>2026-09-03T09:48:18Z</time>
      </trkpt>
      <trkpt lat="43.50386" lon="1.48832">
        <ele>310</ele>
        <time>2026-09-03T09:48:23Z</time>
      </trkpt>
      <trkpt lat="43.50389" lon="1.48841">
        <ele>307</ele>
        <time>2026-09-03T09:48:30Z</time>
      </trkpt>
      <trkpt lat="43.50416" lon="1.48855">
        <ele>305</ele>
        <time>2026-09-03T09:48:35Z</time>
      </trkpt>
      <trkpt lat="43.50439" lon="1.48865">
        <ele>303</ele>
        <time>2026-09-03T09:48:40Z</time>
      </trkpt>
      <trkpt lat="43.50446" lon="1.48883">
        <ele>301</ele>
        <time>2026-09-03T09:48:45Z</time>
      </trkpt>
      <trkpt lat="43.50456" lon="1.48908">
        <ele>299</ele>
        <time>2026-09-03T09:48:50Z</time>
      </trkpt>
      <trkpt lat="43.50451" lon="1.48921">
        <ele>296</ele>
        <time>2026-09-03T09:48:55Z</time>
      </trkpt>
      <trkpt lat="43.50447" lon="1.48929">
        <ele>295</ele>
        <time>2026-09-03T09:49:00Z</time>
      </trkpt>
      <trkpt lat="43.50441" lon="1.48938">
        <ele>293</ele>
        <time>2026-09-03T09:49:05Z</time>
      </trkpt>
      <trkpt lat="43.50436" lon="1.48952">
        <ele>292</ele>
        <time>2026-09-03T09:49:10Z</time>
      </trkpt>
      <trkpt lat="43.5043" lon="1.48964">
        <ele>292</ele>
        <time>2026-09-03T09:49:15Z</time>
      </trkpt>
      <trkpt lat="43.50429" lon="1.48981">
        <ele>292</ele>
        <time>2026-09-03T09:49:20Z</time>
      </trkpt>
      <trkpt lat="43.50427" lon="1.48989">
        <ele>292</ele>
        <time>2026-09-03T09:49:25Z</time>
      </trkpt>
      <trkpt lat="43.50426" lon="1.48989">
        <ele>292</ele>
        <time>2026-09-03T09:49:47Z</time>
      </trkpt>
      <trkpt lat="43.50415" lon="1.48995">
        <ele>294</ele>
        <time>2026-09-03T09:49:50Z</time>
      </trkpt>
      <trkpt lat="43.50419" lon="1.48978">
        <ele>296</ele>
        <time>2026-09-03T09:49:55Z</time>
      </trkpt>
      <trkpt lat="43.50423" lon="1.48966">
        <ele>298</ele>
        <time>2026-09-03T09:50:00Z</time>
      </trkpt>
      <trkpt lat="43.50427" lon="1.48957">
        <ele>301</ele>
        <time>2026-09-03T09:50:05Z</time>
      </trkpt>
      <trkpt lat="43.50429" lon="1.48957">
        <ele>304</ele>
        <time>2026-09-03T09:50:32Z</time>
      </trkpt>
      <trkpt lat="43.50425" lon="1.48963">
        <ele>311</ele>
        <time>2026-09-03T09:50:35Z</time>
      </trkpt>
      <trkpt lat="43.50438" lon="1.48941">
        <ele>314</ele>
        <time>2026-09-03T09:50:40Z</time>
      </trkpt>
      <trkpt lat="43.50433" lon="1.48946">
        <ele>316</ele>
        <time>2026-09-03T09:50:50Z</time>
      </trkpt>
      <trkpt lat="43.50429" lon="1.4895">
        <ele>316</ele>
        <time>2026-09-03T09:51:03Z</time>
      </trkpt>
      <trkpt lat="43.50439" lon="1.48969">
        <ele>316</ele>
        <time>2026-09-03T09:51:08Z</time>
      </trkpt>
      <trkpt lat="43.50451" lon="1.48995">
        <ele>308</ele>
        <time>2026-09-03T09:51:13Z</time>
      </trkpt>
      <trkpt lat="43.50471" lon="1.49019">
        <ele>306</ele>
        <time>2026-09-03T09:51:18Z</time>
      </trkpt>
      <trkpt lat="43.50491" lon="1.49024">
        <ele>304</ele>
        <time>2026-09-03T09:51:23Z</time>
      </trkpt>
      <trkpt lat="43.50499" lon="1.49024">
        <ele>301</ele>
        <time>2026-09-03T09:51:31Z</time>
      </trkpt>
      <trkpt lat="43.50514" lon="1.49015">
        <ele>298</ele>
        <time>2026-09-03T09:51:36Z</time>
      </trkpt>
      <trkpt lat="43.5053" lon="1.49012">
        <ele>296</ele>
        <time>2026-09-03T09:51:41Z</time>
      </trkpt>
      <trkpt lat="43.50538" lon="1.49031">
        <ele>294</ele>
        <time>2026-09-03T09:51:46Z</time>
      </trkpt>
      <trkpt lat="43.50553" lon="1.49035">
        <ele>292</ele>
        <time>2026-09-03T09:51:51Z</time>
      </trkpt>
      <trkpt lat="43.50556" lon="1.49027">
        <ele>291</ele>
        <time>2026-09-03T09:51:58Z</time>
      </trkpt>
      <trkpt lat="43.50553" lon="1.49006">
        <ele>290</ele>
        <time>2026-09-03T09:52:03Z</time>
      </trkpt>
      <trkpt lat="43.50551" lon="1.49">
        <ele>290</ele>
        <time>2026-09-03T09:52:08Z</time>
      </trkpt>
      <trkpt lat="43.50551" lon="1.49005">
        <ele>289</ele>
        <time>2026-09-03T09:52:23Z</time>
      </trkpt>
      <trkpt lat="43.50578" lon="1.4901">
        <ele>287</ele>
        <time>2026-09-03T09:52:26Z</time>
      </trkpt>
      <trkpt lat="43.50571" lon="1.49024">
        <ele>284</ele>
        <time>2026-09-03T09:52:31Z</time>
      </trkpt>
      <trkpt lat="43.50568" lon="1.4903">
        <ele>283</ele>
        <time>2026-09-03T09:52:38Z</time>
      </trkpt>
      <trkpt lat="43.50562" lon="1.49036">
        <ele>282</ele>
        <time>2026-09-03T09:52:43Z</time>
      </trkpt>
      <trkpt lat="43.50564" lon="1.4903">
        <ele>281</ele>
        <time>2026-09-03T09:52:50Z</time>
      </trkpt>
      <trkpt lat="43.50568" lon="1.49034">
        <ele>280</ele>
        <time>2026-09-03T09:52:55Z</time>
      </trkpt>
      <trkpt lat="43.50581" lon="1.49036">
        <ele>282</ele>
        <time>2026-09-03T09:53:00Z</time>
      </trkpt>
      <trkpt lat="43.5059" lon="1.49057">
        <ele>280</ele>
        <time>2026-09-03T09:53:05Z</time>
      </trkpt>
      <trkpt lat="43.506" lon="1.49078">
        <ele>278</ele>
        <time>2026-09-03T09:53:10Z</time>
      </trkpt>
      <trkpt lat="43.50608" lon="1.49079">
        <ele>276</ele>
        <time>2026-09-03T09:53:15Z</time>
      </trkpt>
      <trkpt lat="43.50613" lon="1.49086">
        <ele>274</ele>
        <time>2026-09-03T09:53:30Z</time>
      </trkpt>
      <trkpt lat="43.5062" lon="1.49107">
        <ele>272</ele>
        <time>2026-09-03T09:53:35Z</time>
      </trkpt>
      <trkpt lat="43.50619" lon="1.49114">
        <ele>271</ele>
        <time>2026-09-03T09:53:40Z</time>
      </trkpt>
      <trkpt lat="43.50623" lon="1.49129">
        <ele>270</ele>
        <time>2026-09-03T09:53:45Z</time>
      </trkpt>
      <trkpt lat="43.5063" lon="1.49136">
        <ele>270</ele>
        <time>2026-09-03T09:53:50Z</time>
      </trkpt>
      <trkpt lat="43.50635" lon="1.49142">
        <ele>270</ele>
        <time>2026-09-03T09:53:55Z</time>
      </trkpt>
      <trkpt lat="43.50644" lon="1.4916">
        <ele>270</ele>
        <time>2026-09-03T09:54:00Z</time>
      </trkpt>
      <trkpt lat="43.50651" lon="1.49181">
        <ele>270</ele>
        <time>2026-09-03T09:54:05Z</time>
      </trkpt>
      <trkpt lat="43.50658" lon="1.49207">
        <ele>269</ele>
        <time>2026-09-03T09:54:10Z</time>
      </trkpt>
      <trkpt lat="43.50663" lon="1.49235">
        <ele>267</ele>
        <time>2026-09-03T09:54:15Z</time>
      </trkpt>
      <trkpt lat="43.50667" lon="1.4926">
        <ele>266</ele>
        <time>2026-09-03T09:54:20Z</time>
      </trkpt>
      <trkpt lat="43.50673" lon="1.49291">
        <ele>264</ele>
        <time>2026-09-03T09:54:25Z</time>
      </trkpt>
      <trkpt lat="43.50678" lon="1.49321">
        <ele>262</ele>
        <time>2026-09-03T09:54:30Z</time>
      </trkpt>
      <trkpt lat="43.50678" lon="1.49346">
        <ele>260</ele>
        <time>2026-09-03T09:54:35Z</time>
      </trkpt>
      <trkpt lat="43.50674" lon="1.49347">
        <ele>258</ele>
        <time>2026-09-03T09:55:00Z</time>
      </trkpt>
      <trkpt lat="43.50663" lon="1.49352">
        <ele>268</ele>
        <time>2026-09-03T09:55:03Z</time>
      </trkpt>
      <trkpt lat="43.50658" lon="1.49359">
        <ele>273</ele>
        <time>2026-09-03T09:55:08Z</time>
      </trkpt>
      <trkpt lat="43.50661" lon="1.49363">
        <ele>277</ele>
        <time>2026-09-03T09:55:21Z</time>
      </trkpt>
      <trkpt lat="43.50664" lon="1.49369">
        <ele>279</ele>
        <time>2026-09-03T09:55:26Z</time>
      </trkpt>
      <trkpt lat="43.50666" lon="1.49378">
        <ele>281</ele>
        <time>2026-09-03T09:55:31Z</time>
      </trkpt>
      <trkpt lat="43.50673" lon="1.49396">
        <ele>270</ele>
        <time>2026-09-03T09:55:36Z</time>
      </trkpt>
      <trkpt lat="43.50683" lon="1.49404">
        <ele>265</ele>
        <time>2026-09-03T09:55:41Z</time>
      </trkpt>
      <trkpt lat="43.50692" lon="1.49413">
        <ele>261</ele>
        <time>2026-09-03T09:55:46Z</time>
      </trkpt>
      <trkpt lat="43.50693" lon="1.49412">
        <ele>259</ele>
        <time>2026-09-03T09:56:06Z</time>
      </trkpt>
      <trkpt lat="43.50687" lon="1.49393">
        <ele>260</ele>
        <time>2026-09-03T09:56:09Z</time>
      </trkpt>
      <trkpt lat="43.50699" lon="1.49399">
        <ele>256</ele>
        <time>2026-09-03T09:56:14Z</time>
      </trkpt>
      <trkpt lat="43.50695" lon="1.49404">
        <ele>255</ele>
        <time>2026-09-03T09:56:24Z</time>
      </trkpt>
      <trkpt lat="43.507" lon="1.49412">
        <ele>254</ele>
        <time>2026-09-03T09:56:29Z</time>
      </trkpt>
      <trkpt lat="43.50716" lon="1.49425">
        <ele>254</ele>
        <time>2026-09-03T09:56:34Z</time>
      </trkpt>
      <trkpt lat="43.50736" lon="1.49435">
        <ele>250</ele>
        <time>2026-09-03T09:56:39Z</time>
      </trkpt>
      <trkpt lat="43.50766" lon="1.49448">
        <ele>253</ele>
        <time>2026-09-03T09:56:44Z</time>
      </trkpt>
      <trkpt lat="43.50802" lon="1.49454">
        <ele>252</ele>
        <time>2026-09-03T09:56:49Z</time>
      </trkpt>
      <trkpt lat="43.50835" lon="1.49453">
        <ele>251</ele>
        <time>2026-09-03T09:56:54Z</time>
      </trkpt>
      <trkpt lat="43.50863" lon="1.49449">
        <ele>251</ele>
        <time>2026-09-03T09:56:59Z</time>
      </trkpt>
      <trkpt lat="43.50881" lon="1.4944">
        <ele>251</ele>
        <time>2026-09-03T09:57:04Z</time>
      </trkpt>
      <trkpt lat="43.50895" lon="1.49433">
        <ele>252</ele>
        <time>2026-09-03T09:57:09Z</time>
      </trkpt>
      <trkpt lat="43.50906" lon="1.49429">
        <ele>254</ele>
        <time>2026-09-03T09:57:14Z</time>
      </trkpt>
      <trkpt lat="43.50916" lon="1.49425">
        <ele>255</ele>
        <time>2026-09-03T09:57:19Z</time>
      </trkpt>
      <trkpt lat="43.50925" lon="1.49422">
        <ele>255</ele>
        <time>2026-09-03T09:57:24Z</time>
      </trkpt>
      <trkpt lat="43.50936" lon="1.49419">
        <ele>256</ele>
        <time>2026-09-03T09:57:29Z</time>
      </trkpt>
      <trkpt lat="43.50949" lon="1.49418">
        <ele>256</ele>
        <time>2026-09-03T09:57:34Z</time>
      </trkpt>
      <trkpt lat="43.50954" lon="1.49418">
        <ele>256</ele>
        <time>2026-09-03T09:57:47Z</time>
      </trkpt>
      <trkpt lat="43.50959" lon="1.49418">
        <ele>256</ele>
        <time>2026-09-03T09:57:52Z</time>
      </trkpt>
      <trkpt lat="43.50968" lon="1.49422">
        <ele>257</ele>
        <time>2026-09-03T09:57:57Z</time>
      </trkpt>
      <trkpt lat="43.50981" lon="1.49428">
        <ele>257</ele>
        <time>2026-09-03T09:58:02Z</time>
      </trkpt>
      <trkpt lat="43.50991" lon="1.49434">
        <ele>257</ele>
        <time>2026-09-03T09:58:07Z</time>
      </trkpt>
      <trkpt lat="43.50993" lon="1.49435">
        <ele>256</ele>
        <time>2026-09-03T09:58:34Z</time>
      </trkpt>
      <trkpt lat="43.51" lon="1.49428">
        <ele>255</ele>
        <time>2026-09-03T09:58:37Z</time>
      </trkpt>
      <trkpt lat="43.51003" lon="1.49441">
        <ele>250</ele>
        <time>2026-09-03T09:58:42Z</time>
      </trkpt>
      <trkpt lat="43.51008" lon="1.49441">
        <ele>248</ele>
        <time>2026-09-03T09:59:07Z</time>
      </trkpt>
      <trkpt lat="43.51016" lon="1.49444">
        <ele>246</ele>
        <time>2026-09-03T09:59:12Z</time>
      </trkpt>
      <trkpt lat="43.5103" lon="1.49447">
        <ele>244</ele>
        <time>2026-09-03T09:59:17Z</time>
      </trkpt>
      <trkpt lat="43.51049" lon="1.49445">
        <ele>244</ele>
        <time>2026-09-03T09:59:22Z</time>
      </trkpt>
      <trkpt lat="43.51068" lon="1.49441">
        <ele>246</ele>
        <time>2026-09-03T09:59:27Z</time>
      </trkpt>
      <trkpt lat="43.51086" lon="1.49437">
        <ele>247</ele>
        <time>2026-09-03T09:59:32Z</time>
      </trkpt>
      <trkpt lat="43.51106" lon="1.49435">
        <ele>247</ele>
        <time>2026-09-03T09:59:37Z</time>
      </trkpt>
      <trkpt lat="43.51128" lon="1.49427">
        <ele>247</ele>
        <time>2026-09-03T09:59:42Z</time>
      </trkpt>
      <trkpt lat="43.51147" lon="1.49425">
        <ele>247</ele>
        <time>2026-09-03T09:59:47Z</time>
      </trkpt>
      <trkpt lat="43.51162" lon="1.49415">
        <ele>247</ele>
        <time>2026-09-03T09:59:52Z</time>
      </trkpt>
      <trkpt lat="43.51188" lon="1.49418">
        <ele>246</ele>
        <time>2026-09-03T09:59:57Z</time>
      </trkpt>
      <trkpt lat="43.51217" lon="1.49416">
        <ele>245</ele>
        <time>2026-09-03T10:00:02Z</time>
      </trkpt>
      <trkpt lat="43.51241" lon="1.49429">
        <ele>244</ele>
        <time>2026-09-03T10:00:07Z</time>
      </trkpt>
      <trkpt lat="43.51264" lon="1.4945">
        <ele>242</ele>
        <time>2026-09-03T10:00:12Z</time>
      </trkpt>
      <trkpt lat="43.51289" lon="1.49444">
        <ele>240</ele>
        <time>2026-09-03T10:00:17Z</time>
      </trkpt>
      <trkpt lat="43.51325" lon="1.49445">
        <ele>238</ele>
        <time>2026-09-03T10:00:22Z</time>
      </trkpt>
      <trkpt lat="43.5136" lon="1.49471">
        <ele>237</ele>
        <time>2026-09-03T10:00:27Z</time>
      </trkpt>
      <trkpt lat="43.51379" lon="1.49525">
        <ele>236</ele>
        <time>2026-09-03T10:00:32Z</time>
      </trkpt>
      <trkpt lat="43.51374" lon="1.49589">
        <ele>234</ele>
        <time>2026-09-03T10:00:37Z</time>
      </trkpt>
      <trkpt lat="43.51367" lon="1.49651">
        <ele>233</ele>
        <time>2026-09-03T10:00:42Z</time>
      </trkpt>
      <trkpt lat="43.51392" lon="1.49703">
        <ele>231</ele>
        <time>2026-09-03T10:00:47Z</time>
      </trkpt>
      <trkpt lat="43.51403" lon="1.4973">
        <ele>230</ele>
        <time>2026-09-03T10:00:52Z</time>
      </trkpt>
      <trkpt lat="43.51407" lon="1.49746">
        <ele>229</ele>
        <time>2026-09-03T10:00:57Z</time>
      </trkpt>
      <trkpt lat="43.51419" lon="1.49749">
        <ele>227</ele>
        <time>2026-09-03T10:01:02Z</time>
      </trkpt>
      <trkpt lat="43.51437" lon="1.49758">
        <ele>226</ele>
        <time>2026-09-03T10:01:07Z</time>
      </trkpt>
      <trkpt lat="43.51453" lon="1.49763">
        <ele>225</ele>
        <time>2026-09-03T10:01:12Z</time>
      </trkpt>
      <trkpt lat="43.51468" lon="1.49767">
        <ele>223</ele>
        <time>2026-09-03T10:01:17Z</time>
      </trkpt>
      <trkpt lat="43.51478" lon="1.4977">
        <ele>223</ele>
        <time>2026-09-03T10:01:22Z</time>
      </trkpt>
      <trkpt lat="43.51489" lon="1.49774">
        <ele>223</ele>
        <time>2026-09-03T10:01:27Z</time>
      </trkpt>
      <trkpt lat="43.51495" lon="1.49784">
        <ele>223</ele>
        <time>2026-09-03T10:01:32Z</time>
      </trkpt>
      <trkpt lat="43.51505" lon="1.49796">
        <ele>223</ele>
        <time>2026-09-03T10:01:37Z</time>
      </trkpt>
      <trkpt lat="43.51514" lon="1.49815">
        <ele>224</ele>
        <time>2026-09-03T10:01:42Z</time>
      </trkpt>
      <trkpt lat="43.51527" lon="1.49832">
        <ele>224</ele>
        <time>2026-09-03T10:01:47Z</time>
      </trkpt>
      <trkpt lat="43.51531" lon="1.49849">
        <ele>224</ele>
        <time>2026-09-03T10:01:52Z</time>
      </trkpt>
      <trkpt lat="43.51537" lon="1.49868">
        <ele>224</ele>
        <time>2026-09-03T10:01:57Z</time>
      </trkpt>
      <trkpt lat="43.51541" lon="1.49881">
        <ele>223</ele>
        <time>2026-09-03T10:02:02Z</time>
      </trkpt>
      <trkpt lat="43.51541" lon="1.49882">
        <ele>223</ele>
        <time>2026-09-03T10:02:22Z</time>
      </trkpt>
      <trkpt lat="43.51537" lon="1.49892">
        <ele>226</ele>
        <time>2026-09-03T10:02:26Z</time>
      </trkpt>
      <trkpt lat="43.51547" lon="1.49907">
        <ele>226</ele>
        <time>2026-09-03T10:02:30Z</time>
      </trkpt>
      <trkpt lat="43.51555" lon="1.49925">
        <ele>227</ele>
        <time>2026-09-03T10:02:35Z</time>
      </trkpt>
      <trkpt lat="43.51562" lon="1.49941">
        <ele>229</ele>
        <time>2026-09-03T10:02:40Z</time>
      </trkpt>
      <trkpt lat="43.51574" lon="1.49966">
        <ele>230</ele>
        <time>2026-09-03T10:02:45Z</time>
      </trkpt>
      <trkpt lat="43.5158" lon="1.49988">
        <ele>227</ele>
        <time>2026-09-03T10:02:50Z</time>
      </trkpt>
      <trkpt lat="43.51576" lon="1.50002">
        <ele>227</ele>
        <time>2026-09-03T10:02:55Z</time>
      </trkpt>
      <trkpt lat="43.51579" lon="1.50013">
        <ele>225</ele>
        <time>2026-09-03T10:03:00Z</time>
      </trkpt>
      <trkpt lat="43.51579" lon="1.5002">
        <ele>222</ele>
        <time>2026-09-03T10:03:05Z</time>
      </trkpt>
      <trkpt lat="43.51583" lon="1.50027">
        <ele>221</ele>
        <time>2026-09-03T10:03:10Z</time>
      </trkpt>
      <trkpt lat="43.5159" lon="1.50044">
        <ele>220</ele>
        <time>2026-09-03T10:03:15Z</time>
      </trkpt>
      <trkpt lat="43.51601" lon="1.5007">
        <ele>219</ele>
        <time>2026-09-03T10:03:20Z</time>
      </trkpt>
      <trkpt lat="43.5161" lon="1.50077">
        <ele>218</ele>
        <time>2026-09-03T10:03:25Z</time>
      </trkpt>
      <trkpt lat="43.51628" lon="1.50067">
        <ele>218</ele>
        <time>2026-09-03T10:03:30Z</time>
      </trkpt>
      <trkpt lat="43.51645" lon="1.50059">
        <ele>218</ele>
        <time>2026-09-03T10:03:35Z</time>
      </trkpt>
      <trkpt lat="43.51662" lon="1.50054">
        <ele>218</ele>
        <time>2026-09-03T10:03:40Z</time>
      </trkpt>
      <trkpt lat="43.51679" lon="1.5006">
        <ele>218</ele>
        <time>2026-09-03T10:03:45Z</time>
      </trkpt>
      <trkpt lat="43.51695" lon="1.50074">
        <ele>218</ele>
        <time>2026-09-03T10:03:50Z</time>
      </trkpt>
      <trkpt lat="43.51695" lon="1.50067">
        <ele>218</ele>
        <time>2026-09-03T10:03:55Z</time>
      </trkpt>
      <trkpt lat="43.51691" lon="1.50062">
        <ele>218</ele>
        <time>2026-09-03T10:04:02Z</time>
      </trkpt>
      <trkpt lat="43.51698" lon="1.50057">
        <ele>218</ele>
        <time>2026-09-03T10:04:07Z</time>
      </trkpt>
      <trkpt lat="43.51711" lon="1.50057">
        <ele>219</ele>
        <time>2026-09-03T10:04:12Z</time>
      </trkpt>
      <trkpt lat="43.51721" lon="1.50045">
        <ele>221</ele>
        <time>2026-09-03T10:04:17Z</time>
      </trkpt>
      <trkpt lat="43.51732" lon="1.50035">
        <ele>222</ele>
        <time>2026-09-03T10:04:22Z</time>
      </trkpt>
      <trkpt lat="43.51748" lon="1.50027">
        <ele>223</ele>
        <time>2026-09-03T10:04:27Z</time>
      </trkpt>
      <trkpt lat="43.51764" lon="1.50024">
        <ele>223</ele>
        <time>2026-09-03T10:04:32Z</time>
      </trkpt>
      <trkpt lat="43.51781" lon="1.50018">
        <ele>222</ele>
        <time>2026-09-03T10:04:37Z</time>
      </trkpt>
      <trkpt lat="43.51794" lon="1.50013">
        <ele>221</ele>
        <time>2026-09-03T10:04:42Z</time>
      </trkpt>
      <trkpt lat="43.51799" lon="1.50001">
        <ele>220</ele>
        <time>2026-09-03T10:04:47Z</time>
      </trkpt>
      <trkpt lat="43.51801" lon="1.49994">
        <ele>219</ele>
        <time>2026-09-03T10:04:52Z</time>
      </trkpt>
      <trkpt lat="43.51803" lon="1.5">
        <ele>218</ele>
        <time>2026-09-03T10:05:01Z</time>
      </trkpt>
      <trkpt lat="43.51802" lon="1.49994">
        <ele>217</ele>
        <time>2026-09-03T10:05:11Z</time>
      </trkpt>
      <trkpt lat="43.51805" lon="1.49986">
        <ele>217</ele>
        <time>2026-09-03T10:05:16Z</time>
      </trkpt>
      <trkpt lat="43.51806" lon="1.49967">
        <ele>216</ele>
        <time>2026-09-03T10:05:21Z</time>
      </trkpt>
      <trkpt lat="43.51806" lon="1.49944">
        <ele>216</ele>
        <time>2026-09-03T10:05:26Z</time>
      </trkpt>
      <trkpt lat="43.51808" lon="1.49919">
        <ele>216</ele>
        <time>2026-09-03T10:05:31Z</time>
      </trkpt>
      <trkpt lat="43.51811" lon="1.49904">
        <ele>216</ele>
        <time>2026-09-03T10:05:36Z</time>
      </trkpt>
      <trkpt lat="43.51819" lon="1.4989">
        <ele>216</ele>
        <time>2026-09-03T10:05:41Z</time>
      </trkpt>
      <trkpt lat="43.51822" lon="1.49883">
        <ele>217</ele>
        <time>2026-09-03T10:05:46Z</time>
      </trkpt>
      <trkpt lat="43.51817" lon="1.49887">
        <ele>217</ele>
        <time>2026-09-03T10:05:51Z</time>
      </trkpt>
      <trkpt lat="43.51814" lon="1.49894">
        <ele>217</ele>
        <time>2026-09-03T10:05:56Z</time>
      </trkpt>
      <trkpt lat="43.51832" lon="1.49877">
        <ele>216</ele>
        <time>2026-09-03T10:06:01Z</time>
      </trkpt>
      <trkpt lat="43.51849" lon="1.49858">
        <ele>216</ele>
        <time>2026-09-03T10:06:06Z</time>
      </trkpt>
      <trkpt lat="43.51869" lon="1.49841">
        <ele>216</ele>
        <time>2026-09-03T10:06:11Z</time>
      </trkpt>
      <trkpt lat="43.51894" lon="1.49842">
        <ele>217</ele>
        <time>2026-09-03T10:06:16Z</time>
      </trkpt>
      <trkpt lat="43.51913" lon="1.49846">
        <ele>218</ele>
        <time>2026-09-03T10:06:21Z</time>
      </trkpt>
      <trkpt lat="43.51937" lon="1.49834">
        <ele>221</ele>
        <time>2026-09-03T10:06:26Z</time>
      </trkpt>
      <trkpt lat="43.51951" lon="1.49814">
        <ele>222</ele>
        <time>2026-09-03T10:06:31Z</time>
      </trkpt>
      <trkpt lat="43.51942" lon="1.49795">
        <ele>223</ele>
        <time>2026-09-03T10:06:36Z</time>
      </trkpt>
      <trkpt lat="43.51932" lon="1.49774">
        <ele>223</ele>
        <time>2026-09-03T10:06:41Z</time>
      </trkpt>
      <trkpt lat="43.51926" lon="1.49754">
        <ele>223</ele>
        <time>2026-09-03T10:06:46Z</time>
      </trkpt>
      <trkpt lat="43.51927" lon="1.4974">
        <ele>223</ele>
        <time>2026-09-03T10:06:51Z</time>
      </trkpt>
      <trkpt lat="43.51936" lon="1.49731">
        <ele>223</ele>
        <time>2026-09-03T10:06:56Z</time>
      </trkpt>
      <trkpt lat="43.51955" lon="1.49725">
        <ele>224</ele>
        <time>2026-09-03T10:07:01Z</time>
      </trkpt>
      <trkpt lat="43.51979" lon="1.49723">
        <ele>226</ele>
        <time>2026-09-03T10:07:06Z</time>
      </trkpt>
      <trkpt lat="43.51998" lon="1.49721">
        <ele>228</ele>
        <time>2026-09-03T10:07:11Z</time>
      </trkpt>
      <trkpt lat="43.52023" lon="1.49716">
        <ele>229</ele>
        <time>2026-09-03T10:07:16Z</time>
      </trkpt>
      <trkpt lat="43.52051" lon="1.49707">
        <ele>230</ele>
        <time>2026-09-03T10:07:21Z</time>
      </trkpt>
      <trkpt lat="43.5207" lon="1.49691">
        <ele>228</ele>
        <time>2026-09-03T10:07:26Z</time>
      </trkpt>
      <trkpt lat="43.52068" lon="1.49669">
        <ele>227</ele>
        <time>2026-09-03T10:07:31Z</time>
      </trkpt>
      <trkpt lat="43.52064" lon="1.4965">
        <ele>226</ele>
        <time>2026-09-03T10:07:36Z</time>
      </trkpt>
      <trkpt lat="43.52057" lon="1.49634">
        <ele>225</ele>
        <time>2026-09-03T10:07:41Z</time>
      </trkpt>
      <trkpt lat="43.52055" lon="1.49629">
        <ele>225</ele>
        <time>2026-09-03T10:08:01Z</time>
      </trkpt>
      <trkpt lat="43.52056" lon="1.49617">
        <ele>226</ele>
        <time>2026-09-03T10:08:06Z</time>
      </trkpt>
      <trkpt lat="43.52065" lon="1.49602">
        <ele>227</ele>
        <time>2026-09-03T10:08:11Z</time>
      </trkpt>
      <trkpt lat="43.52085" lon="1.49587">
        <ele>228</ele>
        <time>2026-09-03T10:08:16Z</time>
      </trkpt>
      <trkpt lat="43.52107" lon="1.49568">
        <ele>229</ele>
        <time>2026-09-03T10:08:21Z</time>
      </trkpt>
      <trkpt lat="43.5213" lon="1.49553">
        <ele>230</ele>
        <time>2026-09-03T10:08:26Z</time>
      </trkpt>
      <trkpt lat="43.52155" lon="1.49536">
        <ele>231</ele>
        <time>2026-09-03T10:08:31Z</time>
      </trkpt>
      <trkpt lat="43.52184" lon="1.49524">
        <ele>231</ele>
        <time>2026-09-03T10:08:36Z</time>
      </trkpt>
      <trkpt lat="43.52212" lon="1.49508">
        <ele>231</ele>
        <time>2026-09-03T10:08:41Z</time>
      </trkpt>
      <trkpt lat="43.52239" lon="1.49494">
        <ele>231</ele>
        <time>2026-09-03T10:08:46Z</time>
      </trkpt>
      <trkpt lat="43.52263" lon="1.49482">
        <ele>231</ele>
        <time>2026-09-03T10:08:51Z</time>
      </trkpt>
      <trkpt lat="43.52293" lon="1.49479">
        <ele>230</ele>
        <time>2026-09-03T10:08:56Z</time>
      </trkpt>
      <trkpt lat="43.52319" lon="1.49461">
        <ele>229</ele>
        <time>2026-09-03T10:09:01Z</time>
      </trkpt>
      <trkpt lat="43.52346" lon="1.49443">
        <ele>227</ele>
        <time>2026-09-03T10:09:06Z</time>
      </trkpt>
      <trkpt lat="43.52375" lon="1.49424">
        <ele>226</ele>
        <time>2026-09-03T10:09:11Z</time>
      </trkpt>
      <trkpt lat="43.52403" lon="1.49405">
        <ele>224</ele>
        <time>2026-09-03T10:09:16Z</time>
      </trkpt>
      <trkpt lat="43.52433" lon="1.49383">
        <ele>223</ele>
        <time>2026-09-03T10:09:21Z</time>
      </trkpt>
      <trkpt lat="43.5246" lon="1.49366">
        <ele>223</ele>
        <time>2026-09-03T10:09:26Z</time>
      </trkpt>
      <trkpt lat="43.52486" lon="1.49349">
        <ele>223</ele>
        <time>2026-09-03T10:09:31Z</time>
      </trkpt>
      <trkpt lat="43.52514" lon="1.4933">
        <ele>223</ele>
        <time>2026-09-03T10:09:36Z</time>
      </trkpt>
      <trkpt lat="43.52536" lon="1.49314">
        <ele>222</ele>
        <time>2026-09-03T10:09:41Z</time>
      </trkpt>
      <trkpt lat="43.52551" lon="1.49316">
        <ele>220</ele>
        <time>2026-09-03T10:09:46Z</time>
      </trkpt>
      <trkpt lat="43.5256" lon="1.49343">
        <ele>219</ele>
        <time>2026-09-03T10:09:51Z</time>
      </trkpt>
      <trkpt lat="43.52576" lon="1.4937">
        <ele>217</ele>
        <time>2026-09-03T10:09:56Z</time>
      </trkpt>
      <trkpt lat="43.52583" lon="1.4939">
        <ele>216</ele>
        <time>2026-09-03T10:10:01Z</time>
      </trkpt>
      <trkpt lat="43.52594" lon="1.49425">
        <ele>215</ele>
        <time>2026-09-03T10:10:06Z</time>
      </trkpt>
      <trkpt lat="43.52607" lon="1.49463">
        <ele>214</ele>
        <time>2026-09-03T10:10:11Z</time>
      </trkpt>
      <trkpt lat="43.52596" lon="1.49487">
        <ele>213</ele>
        <time>2026-09-03T10:10:16Z</time>
      </trkpt>
      <trkpt lat="43.5258" lon="1.49509">
        <ele>212</ele>
        <time>2026-09-03T10:10:21Z</time>
      </trkpt>
      <trkpt lat="43.52591" lon="1.49542">
        <ele>211</ele>
        <time>2026-09-03T10:10:26Z</time>
      </trkpt>
      <trkpt lat="43.52606" lon="1.49578">
        <ele>210</ele>
        <time>2026-09-03T10:10:31Z</time>
      </trkpt>
      <trkpt lat="43.52618" lon="1.49616">
        <ele>209</ele>
        <time>2026-09-03T10:10:36Z</time>
      </trkpt>
      <trkpt lat="43.52631" lon="1.49652">
        <ele>208</ele>
        <time>2026-09-03T10:10:41Z</time>
      </trkpt>
      <trkpt lat="43.52651" lon="1.49685">
        <ele>207</ele>
        <time>2026-09-03T10:10:46Z</time>
      </trkpt>
      <trkpt lat="43.52671" lon="1.49719">
        <ele>206</ele>
        <time>2026-09-03T10:10:51Z</time>
      </trkpt>
      <trkpt lat="43.5269" lon="1.49748">
        <ele>206</ele>
        <time>2026-09-03T10:10:56Z</time>
      </trkpt>
      <trkpt lat="43.52712" lon="1.49771">
        <ele>205</ele>
        <time>2026-09-03T10:11:01Z</time>
      </trkpt>
      <trkpt lat="43.52736" lon="1.49771">
        <ele>205</ele>
        <time>2026-09-03T10:11:06Z</time>
      </trkpt>
      <trkpt lat="43.52755" lon="1.49788">
        <ele>205</ele>
        <time>2026-09-03T10:11:11Z</time>
      </trkpt>
      <trkpt lat="43.52766" lon="1.49819">
        <ele>204</ele>
        <time>2026-09-03T10:11:16Z</time>
      </trkpt>
      <trkpt lat="43.52778" lon="1.4985">
        <ele>204</ele>
        <time>2026-09-03T10:11:21Z</time>
      </trkpt>
      <trkpt lat="43.52796" lon="1.49876">
        <ele>203</ele>
        <time>2026-09-03T10:11:26Z</time>
      </trkpt>
      <trkpt lat="43.52816" lon="1.49868">
        <ele>203</ele>
        <time>2026-09-03T10:11:31Z</time>
      </trkpt>
      <trkpt lat="43.52828" lon="1.49847">
        <ele>203</ele>
        <time>2026-09-03T10:11:36Z</time>
      </trkpt>
      <trkpt lat="43.52837" lon="1.49838">
        <ele>203</ele>
        <time>2026-09-03T10:11:41Z</time>
      </trkpt>
      <trkpt lat="43.52836" lon="1.49838">
        <ele>203</ele>
        <time>2026-09-03T10:11:56Z</time>
      </trkpt>
      <trkpt lat="43.52836" lon="1.49837">
        <ele>205</ele>
        <time>2026-09-03T10:11:59Z</time>
      </trkpt>
      <trkpt lat="43.52836" lon="1.49835">
        <ele>207</ele>
        <time>2026-09-03T10:12:29Z</time>
      </trkpt>
      <trkpt lat="43.5284" lon="1.49832">
        <ele>207</ele>
        <time>2026-09-03T10:12:32Z</time>
      </trkpt>
      <trkpt lat="43.5284" lon="1.49832">
        <ele>207</ele>
        <time>2026-09-03T10:13:02Z</time>
      </trkpt>
      <trkpt lat="43.52845" lon="1.49823">
        <ele>207</ele>
        <time>2026-09-03T10:13:05Z</time>
      </trkpt>
      <trkpt lat="43.52833" lon="1.49836">
        <ele>207</ele>
        <time>2026-09-03T10:13:10Z</time>
      </trkpt>
      <trkpt lat="43.52831" lon="1.49844">
        <ele>209</ele>
        <time>2026-09-03T10:13:21Z</time>
      </trkpt>
      <trkpt lat="43.52832" lon="1.49851">
        <ele>214</ele>
        <time>2026-09-03T10:13:26Z</time>
      </trkpt>
      <trkpt lat="43.52834" lon="1.49843">
        <ele>217</ele>
        <time>2026-09-03T10:13:31Z</time>
      </trkpt>
    </trkseg>
  </trk>
</gpx>